[[{"header":{"parameterUnit":"m.s-1","parameterCategory":1,"la1":30.6,"la2":28.766,"lo1":-90.7593,"lo2":-88.6598,"dy":0.0162,"dx":0.0183,"nx":116,"ny":114,"refTime":"2023-10-22T12:00:00:Z","depth":0,"parameterNumber":2,"parameterNumberName":"U-component_of_WINDS"},"data":[0.0,0.0,0.0,0.0,0.0,0.0,0.0,0.0,0.0,0.0,0.0,0.0,0.0,0.0,0.0,0.0,0.0,0.0,0.0,0.0,0.0,0.0,0.0,0.0,0.0,0.0,0.0,0.0,0.0,0.0,0.0,0.0,0.0,0.0,0.0,0.0,0.0,0.0,0.0,0.0,0.0,0.0,0.0,0.0,0.0,0.0,0.0,0.0,0.0,0.0,0.0,0.0,0.0,0.0,0.0,0.0,0.0,0.0,0.0,0.0,0.0,0.0,0.0,0.0,0.0,0.0,0.0,0.0,0.0,0.0,0.0,0.0,0.0,0.0,0.0,0.0,0.0,0.0,0.0,0.0,0.0,0.0,0.0,0.0,0.0,0.0,0.0,0.0,0.0,0.0,0.0,0.0,0.0,0.0,0.0,0.0,0.0,0.0,0.0,0.0,0.0,0.0,0.0,0.0,0.0,0.0,0.0,0.0,0.0,0.0,0.0,0.0,0.0,0.0,0.0,0.0,0.0,0.0,0.0,0.0,0.0,0.0,0.0,0.0,0.0,0.0,0.0,0.0,0.0,0.0,0.0,0.0,0.0,0.0,0.0,0.0,0.0,0.0,0.0,0.0,0.0,0.0,0.0,0.0,0.0,0.0,0.0,0.0,0.0,0.0,0.0,0.0,0.0,0.0,0.0,0.0,0.0,0.0,0.0,0.0,0.0,0.0,0.0,0.0,0.0,0.0,0.0,0.0,0.0,0.0,0.0,0.0,0.0,0.0,0.0,0.0,0.0,0.0,0.0,0.0,0.0,0.0,0.0,0.0,0.0,0.0,0.0,0.0,0.0,0.0,0.0,0.0,0.0,0.0,0.0,0.0,0.0,0.0,0.0,0.0,0.0,0.0,0.0,0.0,0.0,0.0,0.0,0.0,0.0,0.0,0.0,0.0,0.0,0.0,0.0,0.0,0.0,0.0,0.0,0.0,0.0,0.0,0.0,0.0,0.0,0.0,0.0,0.0,0.0,0.0,0.0,0.0,0.0,0.0,0.0,0.0,0.0,0.0,0.0,0.0,0.0,0.0,0.0,0.0,0.0,0.0,0.0,0.0,0.0,0.0,0.0,0.0,0.0,0.0,0.0,0.0,0.0,0.0,0.0,0.0,0.0,0.0,0.0,0.0,0.0,0.0,0.0,0.0,0.0,0.0,0.0,0.0,0.0,0.0,0.0,0.0,0.0,0.0,0.0,0.0,0.0,0.0,0.0,0.0,0.0,0.0,0.0,0.0,0.0,0.0,0.0,0.0,0.0,0.0,0.0,0.0,0.0,0.0,0.0,0.0,0.0,0.0,0.0,0.0,0.0,0.0,0.0,0.0,0.0,0.0,0.0,0.0,0.0,0.0,0.0,0.0,0.0,0.0,0.0,0.0,0.0,0.0,0.0,0.0,0.0,0.0,0.0,0.0,0.0,0.0,0.0,0.0,0.0,0.0,0.0,0.0,0.0,0.0,0.0,0.0,0.0,0.0,0.0,0.0,0.0,0.0,0.0,0.0,0.0,0.0,0.0,0.0,0.0,0.0,0.0,0.0,0.0,0.0,0.0,0.0,0.0,0.0,0.0,0.0,0.0,0.0,0.0,0.0,0.0,0.0,0.0,0.0,0.0,0.0,0.0,0.0,0.0,0.0,0.0,0.0,0.0,0.0,0.0,0.0,0.0,0.0,0.0,0.0,0.0,0.0,0.0,0.0,0.0,0.0,0.0,0.0,0.0,0.0,0.0,0.0,0.0,0.0,0.0,0.0,0.0,0.0,0.0,0.0,0.0,0.0,0.0,0.0,0.0,0.0,0.0,0.0,0.0,0.0,0.0,0.0,0.0,0.0,0.0,0.0,0.0,0.0,0.0,0.0,0.0,0.0,0.0,0.0,0.0,0.0,0.0,0.0,0.0,0.0,0.0,0.0,0.0,0.0,0.0,0.0,0.0,0.0,0.0,0.0,0.0,0.0,0.0,0.0,0.0,0.0,0.0,0.0,0.0,0.0,0.0,0.0,0.0,0.0,0.0,0.0,0.0,0.0,0.0,0.0,0.0,0.0,0.0,0.0,0.0,0.0,0.0,0.0,0.0,0.0,0.0,0.0,0.0,0.0,0.0,0.0,0.0,0.0,0.0,0.0,0.0,0.0,0.0,0.0,0.0,0.0,0.0,0.0,0.0,0.0,0.0,0.0,0.0,0.0,0.0,0.0,0.0,0.0,0.0,0.0,0.0,0.0,0.0,0.0,0.0,0.0,0.0,0.0,0.0,0.0,0.0,0.0,0.0,0.0,0.0,0.0,0.0,0.0,0.0,0.0,0.0,0.0,0.0,0.0,0.0,0.0,0.0,0.0,0.0,0.0,0.0,0.0,0.0,0.0,0.0,0.0,0.0,0.0,0.0,0.0,0.0,0.0,0.0,0.0,0.0,0.0,0.0,0.0,0.0,0.0,0.0,0.0,0.0,0.0,0.0,0.0,0.0,0.0,0.0,0.0,0.0,0.0,0.0,0.0,0.0,0.0,0.0,0.0,0.0,0.0,0.0,0.0,0.0,0.0,0.0,0.0,0.0,0.0,0.0,0.0,0.0,0.0,0.0,0.0,0.0,0.0,0.0,0.0,0.0,0.0,0.0,0.0,0.0,0.0,0.0,0.0,0.0,0.0,0.0,0.0,0.0,0.0,0.0,0.0,0.0,0.0,0.0,0.0,0.0,0.0,0.0,0.0,0.0,0.0,0.0,0.0,0.0,0.0,0.0,0.0,0.0,0.0,0.0,0.0,0.0,0.0,0.0,0.0,0.0,0.0,0.0,0.0,0.0,0.0,0.0,0.0,0.0,0.0,0.0,0.0,0.0,0.0,0.0,0.0,0.0,0.0,0.0,0.0,0.0,0.0,0.0,0.0,0.0,0.0,0.0,0.0,0.0,0.0,0.0,0.0,0.0,0.0,0.0,0.0,0.0,0.0,0.0,0.0,0.0,0.0,0.0,0.0,0.0,0.0,0.0,0.0,0.0,0.0,0.0,0.0,0.0,0.0,0.0,0.0,0.0,0.0,0.0,0.0,0.0,0.0,0.0,0.0,0.0,0.0,0.0,0.0,0.0,0.0,0.0,0.0,0.0,0.0,0.0,0.0,0.0,0.0,0.0,0.0,0.0,0.0,0.0,0.0,0.0,0.0,0.0,0.0,0.0,0.0,0.0,0.0,0.0,0.0,0.0,0.0,0.0,0.0,0.0,0.0,0.0,0.0,0.0,0.0,0.0,0.0,0.0,0.0,0.0,0.0,0.0,0.0,0.0,0.0,0.0,0.0,0.0,0.0,0.0,0.0,0.0,0.0,0.0,0.0,0.0,0.0,0.0,0.0,0.0,0.0,0.0,0.0,0.0,0.0,0.0,0.0,0.0,0.0,0.0,0.0,0.0,0.0,0.0,0.0,0.0,0.0,0.0,0.0,0.0,0.0,0.0,0.0,0.0,0.0,0.0,0.0,0.0,0.0,0.0,0.0,0.0,0.0,0.0,0.0,0.0,0.0,0.0,0.0,0.0,0.0,0.0,0.0,0.0,0.0,0.0,0.0,0.0,0.0,0.0,0.0,0.0,0.0,0.0,0.0,0.0,0.0,0.0,0.0,0.0,0.0,0.0,0.0,0.0,0.0,0.0,0.0,0.0,0.0,0.0,0.0,0.0,0.0,0.0,0.0,0.0,0.0,0.0,0.0,0.0,0.0,0.0,0.0,0.0,0.0,0.0,0.0,0.0,0.0,0.0,0.0,0.0,0.0,0.0,0.0,0.0,0.0,0.0,0.0,0.0,0.0,0.0,0.0,0.0,0.0,0.0,0.0,0.0,0.0,0.0,0.0,0.0,0.0,0.0,0.0,0.0,0.0,0.0,0.0,0.0,0.0,0.0,0.0,0.0,0.0,0.0,0.0,0.0,0.0,0.0,0.0,0.0,0.0,0.0,0.0,0.0,0.0,0.0,0.0,0.0,0.0,0.0,0.0,0.0,0.0,0.0,0.0,0.0,0.0,0.0,0.0,0.0,0.0,0.0,0.0,0.0,0.0,0.0,0.0,0.0,0.0,0.0,0.0,0.0,0.0,0.0,0.0,0.0,0.0,0.0,0.0,0.0,0.0,0.0,0.0,0.0,0.0,0.0,0.0,0.0,0.0,0.0,0.0,0.0,0.0,0.0,0.0,0.0,0.0,0.0,0.0,0.0,0.0,0.0,0.0,0.0,0.0,0.0,0.0,0.0,0.0,0.0,0.0,0.0,0.0,0.0,0.0,0.0,0.0,0.0,0.0,0.0,0.0,0.0,0.0,0.0,0.0,0.0,0.0,0.0,0.0,0.0,0.0,0.0,0.0,0.0,0.0,0.0,0.0,0.0,0.0,0.0,0.0,0.0,0.0,0.0,0.0,0.0,0.0,0.0,0.0,0.0,0.0,0.0,0.0,0.0,0.0,0.0,0.0,0.0,0.0,0.0,0.0,0.0,0.0,0.0,0.0,0.0,0.0,0.0,0.0,0.0,0.0,0.0,0.0,0.0,0.0,0.0,0.0,0.0,0.0,0.0,0.0,0.0,0.0,0.0,0.0,0.0,0.0,0.0,0.0,0.0,0.0,0.0,0.0,0.0,0.0,0.0,0.0,0.0,0.0,0.0,0.0,0.0,0.0,0.0,0.0,0.0,0.0,0.0,0.0,0.0,0.0,0.0,0.0,0.0,0.0,0.0,0.0,0.0,0.0,0.0,0.0,0.0,0.0,0.0,0.0,0.0,0.0,0.0,0.0,0.0,0.0,0.0,0.0,0.0,0.0,0.0,0.0,0.0,0.0,0.0,0.0,0.0,0.0,0.0,0.0,0.0,0.0,0.0,0.0,0.0,0.0,0.0,0.0,0.0,0.0,0.0,0.0,0.0,0.0,0.0,0.0,0.0,0.0,0.0,0.0,0.0,0.0,0.0,0.0,0.0,0.0,0.0,0.0,0.0,0.0,0.0,0.0,0.0,0.0,0.0,0.0,0.0,0.0,0.0,0.0,0.0,0.0,0.0,0.0,0.0,0.0,0.0,0.0,0.0,0.0,0.0,0.0,0.0,0.0,0.0,0.0,0.0,0.0,0.0,0.0,0.0,0.0,0.0,0.0,0.0,0.0,0.0,0.0,0.0,0.0,0.0,0.0,0.0,0.0,0.0,0.0,0.0,0.0,0.0,0.0,0.0,0.0,0.0,0.0,0.0,0.0,0.0,0.0,0.0,0.0,0.0,0.0,0.0,0.0,0.0,0.0,0.0,0.0,0.0,0.0,0.0,0.0,0.0,0.0,0.0,0.0,0.0,0.0,0.0,0.0,0.0,0.0,0.0,0.0,0.0,0.0,0.0,0.0,0.0,0.0,0.0,0.0,0.0,0.0,0.0,0.0,0.0,0.0,0.0,0.0,0.0,0.0,0.0,0.0,0.0,0.0,0.0,0.0,0.0,0.0,0.0,0.0,0.0,0.0,0.0,0.0,0.0,0.0,0.0,0.0,0.0,0.0,0.0,0.0,0.0,0.0,0.0,0.0,0.0,0.0,0.0,0.0,0.0,0.0,0.0,0.0,0.0,0.0,0.0,0.0,0.0,0.0,0.0,0.0,0.0,0.0,0.0,0.0,0.0,0.0,0.0,0.0,0.0,0.0,0.0,0.0,0.0,0.0,0.0,0.0,0.0,0.0,0.0,0.0,0.0,0.0,0.0,0.0,0.0,0.0,0.0,0.0,0.0,0.0,0.0,0.0,0.0,0.0,0.0,0.0,0.0,0.0,0.0,0.0,0.0,0.0,0.0,0.0,0.0,0.0,0.0,0.0,0.0,0.0,0.0,0.0,0.0,0.0,0.0,0.0,0.0,0.0,0.0,0.0,0.0,0.0,0.0,0.0,0.0,0.0,0.0,0.0,0.0,0.0,0.0,0.0,0.0,0.0,0.0,0.0,0.0,0.0,0.0,0.0,0.0,0.0,0.0,0.0,0.0,0.0,0.0,0.0,0.0,0.0,0.0,0.0,0.0,0.0,0.0,0.0,0.0,0.0,0.0,0.0,0.0,0.0,0.0,0.0,-1.1231,0.0,0.0,0.0,0.0,0.0,0.0,0.0,0.0,0.0,0.0,0.0,0.0,0.0,0.0,0.0,0.0,0.0,0.0,0.0,0.0,0.0,0.0,0.0,0.0,0.0,0.0,0.0,0.0,0.0,0.0,0.0,0.0,0.0,0.0,0.0,0.0,0.0,0.0,0.0,-2.1317,-2.2121,-2.2648,-2.2201,-2.1052,-1.9309,0.0,0.0,0.0,0.0,0.0,0.0,0.0,0.0,0.0,0.0,0.0,0.0,0.0,0.0,0.0,0.0,0.0,0.0,0.0,0.0,0.0,0.0,0.0,0.0,0.0,0.0,0.0,0.0,0.0,0.0,0.0,0.0,0.0,0.0,0.0,0.0,0.0,0.0,0.0,0.0,0.0,0.0,0.0,0.0,0.0,0.0,0.0,0.0,0.0,0.0,0.0,0.0,0.0,0.0,0.0,0.0,0.0,0.0,0.0,0.0,0.0,0.0,0.0,0.0,0.0,0.0,0.0,0.0,0.0,0.0,0.0,-1.1867,0.0,0.0,0.0,0.0,0.0,0.0,0.0,0.0,0.0,0.0,0.0,0.0,0.0,0.0,0.0,0.0,0.0,0.0,0.0,0.0,0.0,0.0,0.0,0.0,0.0,0.0,0.0,0.0,0.0,0.0,0.0,0.0,0.0,0.0,0.0,0.0,0.0,0.0,-2.2799,-2.4349,-2.5653,-2.5428,-2.4378,-2.2582,-2.1056,0.0,0.0,0.0,0.0,0.0,0.0,0.0,0.0,0.0,0.0,0.0,0.0,0.0,0.0,0.0,0.0,0.0,0.0,0.0,0.0,0.0,0.0,0.0,0.0,0.0,0.0,0.0,0.0,0.0,0.0,0.0,0.0,0.0,0.0,0.0,0.0,0.0,0.0,0.0,0.0,0.0,0.0,0.0,0.0,0.0,0.0,0.0,0.0,0.0,0.0,0.0,0.0,0.0,0.0,0.0,0.0,0.0,0.0,0.0,0.0,0.0,0.0,0.0,-1.8898,-1.8564,-1.8212,-1.8313,-1.8321,-1.8104,-1.5529,-1.4191,-1.3792,-1.2673,0.0,0.0,0.0,0.0,0.0,0.0,0.0,0.0,0.0,0.0,0.0,0.0,0.0,0.0,0.0,0.0,0.0,0.0,0.0,0.0,0.0,-1.8204,-1.8782,-1.8782,-1.9607,-1.9927,0.0,0.0,0.0,0.0,0.0,0.0,0.0,-2.031,-2.1169,-2.2096,-2.4764,-2.7128,-2.9126,-2.8587,-2.8338,-2.8237,-2.4705,-2.2545,-2.1569,0.0,0.0,0.0,0.0,0.0,0.0,0.0,0.0,0.0,0.0,0.0,0.0,0.0,0.0,0.0,0.0,0.0,0.0,0.0,0.0,0.0,0.0,0.0,0.0,0.0,0.0,0.0,0.0,0.0,0.0,0.0,0.0,0.0,0.0,0.0,0.0,0.0,0.0,0.0,0.0,0.0,-1.7592,-1.7647,0.0,0.0,0.0,0.0,0.0,0.0,0.0,0.0,0.0,0.0,0.0,0.0,0.0,-2.1427,-2.1841,-2.2481,-2.2686,-2.2571,-2.224,-2.1977,-2.1822,-2.1772,-2.1509,-2.1105,-2.0371,0.0,-1.6077,-1.505,0.0,0.0,0.0,0.0,0.0,0.0,0.0,0.0,0.0,0.0,0.0,0.0,0.0,0.0,0.0,0.0,0.0,0.0,0.0,0.0,0.0,-1.981,-2.1114,-2.1741,-2.2645,-2.2774,-2.1844,0.0,0.0,0.0,0.0,0.0,-2.0076,-2.1359,-2.3527,-2.6515,-2.8047,-2.993,-3.2089,-3.1537,-3.1521,-3.1889,-2.9742,-2.7099,-2.4201,-2.2569,0.0,0.0,0.0,0.0,0.0,0.0,0.0,0.0,0.0,0.0,0.0,0.0,0.0,0.0,0.0,0.0,0.0,0.0,0.0,0.0,0.0,0.0,0.0,0.0,0.0,0.0,0.0,0.0,0.0,0.0,0.0,0.0,0.0,0.0,0.0,0.0,0.0,0.0,0.0,-1.6722,-1.7836,-1.8231,-1.8339,-1.8035,0.0,0.0,0.0,0.0,0.0,0.0,0.0,0.0,0.0,-2.2834,-2.3484,-2.4184,-2.4902,-2.5189,-2.5389,-2.5389,-2.5237,-2.5051,-2.4853,-2.4761,-2.4528,-2.4137,-2.3359,-2.2175,-2.0581,-1.7732,-1.6781,-1.7017,0.0,0.0,0.0,0.0,-1.5265,-1.5053,0.0,0.0,0.0,0.0,0.0,0.0,0.0,0.0,0.0,0.0,0.0,0.0,-1.971,-2.2096,-2.3979,-2.4958,-2.5642,-2.5428,-2.4157,-2.2771,0.0,0.0,0.0,-2.0232,-2.0844,-2.3185,-2.6355,-3.0407,-3.126,-3.2717,-3.4726,-3.4324,-3.4274,-3.4525,-3.399,-3.1297,-2.7107,-2.5454,-2.334,-2.0953,0.0,0.0,0.0,0.0,0.0,0.0,0.0,0.0,0.0,0.0,0.0,0.0,0.0,0.0,0.0,0.0,0.0,0.0,0.0,0.0,0.0,0.0,0.0,0.0,0.0,0.0,0.0,0.0,0.0,0.0,0.0,0.0,0.0,0.0,0.0,0.0,0.0,-1.7812,-1.873,-1.9631,-1.965,-1.9412,0.0,0.0,0.0,0.0,0.0,0.0,-2.2965,-2.3761,-2.4536,-2.5343,-2.5902,-2.6532,-2.7226,-2.7393,-2.7476,-2.7506,-2.7561,-2.7452,-2.7196,-2.7206,-2.7002,-2.6677,-2.5721,-2.5112,-2.4566,-2.0405,-1.8962,-1.9279,-1.8197,-1.8073,-1.8434,-1.8101,-1.7837,-1.7723,0.0,0.0,0.0,0.0,0.0,0.0,0.0,0.0,0.0,0.0,0.0,-2.0943,-2.202,-2.5059,-2.7268,-2.7846,-2.7903,-2.7199,-2.5687,-2.398,-2.2427,-2.111,-2.1343,-2.1609,-2.1834,-2.5768,-2.9252,-3.2089,-3.3721,-3.5378,-3.701,-3.6985,-3.6757,-3.6279,-3.6254,-3.41,-3.0433,-2.8367,-2.6137,-2.368,0.0,0.0,0.0,0.0,0.0,0.0,0.0,0.0,0.0,0.0,0.0,0.0,0.0,0.0,0.0,0.0,0.0,0.0,0.0,0.0,0.0,0.0,0.0,0.0,0.0,0.0,0.0,0.0,0.0,0.0,0.0,0.0,0.0,0.0,0.0,0.0,0.0,0.0,0.0,-2.273,-2.2516,0.0,0.0,0.0,0.0,-2.2246,-2.3125,-2.418,-2.5469,-2.6348,-2.6929,-2.7135,-2.791,-2.8263,-2.8045,-2.8667,-2.8877,-2.8596,-2.8896,-2.884,-2.8596,-2.8877,-2.8802,-2.852,-2.7687,-2.722,-2.6675,-2.2969,-2.1579,-2.1771,-2.1011,-2.0874,-2.1138,-2.1287,-2.1224,-2.1065,0.0,0.0,0.0,0.0,0.0,0.0,0.0,0.0,0.0,-1.759,-1.9759,-2.22,-2.4739,-2.7982,-3.0583,-3.2215,-3.1878,-3.0761,-2.8776,-2.633,-2.4284,-2.2701,-2.2527,-2.3741,-2.6367,-2.9251,-3.1938,-3.4304,-3.5655,-3.6985,-3.8316,-3.7889,-3.7814,-3.8014,-3.7588,-3.631,-3.42,-3.1283,-2.8499,-2.5797,-2.2682,-2.0107,0.0,0.0,0.0,0.0,0.0,0.0,0.0,0.0,0.0,0.0,0.0,0.0,0.0,0.0,0.0,0.0,0.0,0.0,0.0,0.0,0.0,0.0,0.0,0.0,0.0,0.0,0.0,0.0,0.0,0.0,0.0,0.0,0.0,0.0,0.0,0.0,0.0,-2.4219,-2.4512,0.0,-2.418,-2.4141,-2.4329,-2.4961,-2.6309,-2.7422,-2.8164,-2.9043,-2.9514,-2.9614,-2.9869,-3.0024,-2.991,-3.0122,-3.0199,-3.0122,-3.0199,-3.0199,-3.0122,-2.9889,-2.9598,-2.9252,-2.8471,-2.7959,-2.7508,-2.5707,-2.4583,-2.4036,-2.351,-2.3477,-2.3708,-2.3767,-2.3448,-2.3056,0.0,0.0,0.0,0.0,0.0,0.0,0.0,0.0,0.0,-1.8487,-2.1101,-2.4123,-2.7494,-3.0809,-3.347,-3.5127,-3.4435,-3.2922,-3.0566,-2.7878,-2.5718,-2.4215,-2.4832,-2.6892,-3.0493,-3.2591,-3.4525,-3.6335,-3.7487,-3.8417,-3.9145,-3.8743,-3.8693,-3.8894,-3.8467,-3.774,-3.6641,-3.4114,-3.124,-2.8194,-2.5683,-2.3059,-2.0439,0.0,0.0,0.0,0.0,0.0,0.0,0.0,0.0,0.0,0.0,0.0,0.0,0.0,0.0,0.0,0.0,0.0,0.0,0.0,0.0,0.0,0.0,0.0,0.0,0.0,0.0,0.0,0.0,0.0,0.0,0.0,0.0,0.0,0.0,0.0,-2.4922,-2.6211,-2.6894,-2.7129,-2.6816,-2.707,-2.7363,-2.7656,-2.8984,-2.9922,-3.0215,-3.0781,-3.1094,-3.1094,-3.0957,-3.0898,-3.0898,-3.0898,-3.0898,-3.0898,-3.0898,-3.0898,-3.0879,-3.0566,-3.0273,-2.998,-2.9191,-2.871,-2.8401,-2.7626,-2.6912,-2.6186,-2.5566,-2.5507,-2.5687,-2.5687,-2.5339,-2.4811,0.0,0.0,0.0,0.0,0.0,0.0,0.0,-1.5777,-1.7218,-1.9802,-2.3214,-2.6766,-3.0292,-3.3577,-3.5759,-3.643,-3.5295,-3.3405,-3.0807,-2.8482,-2.67,-2.56,-2.8198,-3.1023,-3.3947,-3.5651,-3.6985,-3.809,-3.9195,-3.9747,-3.9747,-3.9747,-3.9471,-3.8994,-3.8944,-3.8492,-3.7643,-3.6801,-3.4428,-3.0989,-2.908,-2.6635,-2.3917,0.0,0.0,0.0,0.0,0.0,0.0,0.0,0.0,0.0,0.0,0.0,0.0,0.0,0.0,0.0,0.0,0.0,0.0,0.0,0.0,0.0,0.0,0.0,0.0,0.0,0.0,0.0,0.0,0.0,0.0,0.0,0.0,0.0,-2.3247,-2.5469,-2.7559,-2.8848,-2.9746,-3.0254,-3.0254,-3.0254,-3.0254,-3.0254,-3.1074,-3.1562,-3.1562,-3.1543,-3.1543,-3.1543,-3.1113,-3.0898,-3.0898,-3.0898,-3.0898,-3.0898,-3.0898,-3.0898,-3.0898,-3.0898,-3.0879,-3.0801,-2.9941,-2.9551,-2.9473,-2.8633,-2.8301,-2.8203,-2.7052,-2.6795,-2.7051,-2.7051,-2.6777,-2.6348,0.0,0.0,0.0,0.0,0.0,0.0,0.0,-1.5474,-1.7237,-2.0228,-2.3744,-2.7614,-3.1938,-3.465,-3.6684,-3.8114,-3.6234,-3.4088,-3.1907,-2.9875,-2.8892,-2.9083,-3.1414,-3.3828,-3.6232,-3.7561,-3.8718,-3.9823,-4.0551,-4.0824,-4.0824,-4.0824,-4.0802,-4.0598,-4.0439,-3.9876,-3.9041,-3.8554,-3.6901,-3.4339,-3.2096,-2.9993,-2.7989,0.0,0.0,0.0,0.0,0.0,0.0,0.0,0.0,0.0,0.0,0.0,0.0,0.0,0.0,0.0,0.0,0.0,0.0,0.0,0.0,0.0,0.0,0.0,0.0,0.0,0.0,0.0,0.0,0.0,0.0,0.0,0.0,-2.5112,-2.5488,-2.7441,-2.9355,-3.0644,-3.1289,-3.1621,-3.1621,-3.1621,-3.1621,-3.1621,-3.2129,-3.2441,-3.2441,-3.2148,-3.1992,-3.1992,-3.1269,-3.0898,-3.0898,-3.0898,-3.0898,-3.0898,-3.0898,-3.0898,-3.0898,-3.0898,-3.0547,-2.9922,-2.9668,-2.9219,-2.8633,-2.8398,-2.8301,-2.8262,-2.7974,-2.7896,-2.7949,-2.7949,-2.748,-2.6777,0.0,0.0,0.0,0.0,0.0,0.0,0.0,-1.5206,-1.7254,-2.0763,-2.414,-2.7989,-3.2642,-3.4612,-3.6127,-3.7418,-3.5402,-3.3363,-3.1724,-3.0676,-3.0628,-3.1754,-3.425,-3.6433,-3.8191,-3.9546,-4.045,-4.0852,-4.1404,-4.1555,-4.1275,-4.1275,-4.1222,-4.1114,-4.0844,-4.0212,-3.9376,-3.9049,-3.8034,-3.6507,-3.5004,-3.3026,-3.072,-2.8743,-2.6925,-2.5176,-2.3493,-2.2232,-2.1062,-1.9493,0.0,0.0,0.0,0.0,0.0,0.0,0.0,0.0,0.0,0.0,0.0,0.0,0.0,0.0,0.0,0.0,0.0,0.0,0.0,0.0,0.0,0.0,0.0,0.0,-2.5033,-2.7153,-2.8202,-2.9713,-3.1016,-3.1953,-3.2422,-3.2695,-3.2695,-3.2695,-3.2695,-3.2695,-3.293,-3.3066,-3.3066,-3.25,-3.2229,-3.2229,-3.1328,-3.0898,-3.0898,-3.0898,-3.0898,-3.0898,-3.0898,-3.0898,-3.0898,-3.0898,-3.0605,-3.0098,-2.9783,-2.9277,-2.8809,-2.8437,-2.8301,0.0,0.0,0.0,0.0,0.0,-2.7715,-2.7226,0.0,0.0,0.0,0.0,0.0,0.0,0.0,-1.4938,-1.7283,-2.1188,-2.4318,-2.7916,-3.243,-3.3643,-3.4403,-3.5106,-3.3317,-3.1724,-3.0827,-3.1174,-3.2169,-3.3906,-3.6689,-3.8743,-3.9948,-4.1458,-4.1957,-4.1422,-4.1952,-4.1952,-4.1314,-4.1314,-4.118,-4.0908,-4.0526,-3.992,-3.9116,-3.8803,-3.8248,-3.7679,-3.7469,-3.5603,-3.2833,-3.1224,-2.9733,-2.8239,-2.6078,-2.4824,-2.3947,-2.2534,0.0,0.0,0.0,0.0,0.0,0.0,0.0,0.0,0.0,0.0,0.0,0.0,0.0,0.0,0.0,0.0,0.0,0.0,0.0,0.0,0.0,0.0,0.0,0.0,-2.6718,-2.8827,-3.0714,-3.1593,-3.2196,-3.2626,-3.2995,-3.3228,-3.3228,-3.3228,-3.3292,-3.3355,-3.3355,-3.3355,-3.3418,0.0,0.0,0.0,0.0,-3.0898,-3.0898,-3.0898,-3.0898,-3.0898,-3.0898,-3.0898,-3.0898,-3.0898,-3.0859,-3.0762,-2.998,-2.959,-2.9434,-2.8672,-2.834,-2.8301,-2.8301,-2.8301,-2.8242,-2.7871,-2.7767,-2.7669,0.0,0.0,0.0,0.0,0.0,0.0,0.0,-1.4761,-1.6984,-2.0537,-2.3633,-2.6916,-3.0601,-3.1442,-3.1981,-3.256,-3.085,-2.9983,-3.0545,-3.2154,-3.408,-3.6198,-3.8266,-4.0099,-4.171,-4.2037,-4.2198,-4.227,-4.237,-4.2146,-4.1516,-4.1516,-4.1347,-4.1006,-4.0493,-4.0033,-3.9628,-3.9045,-3.8349,-3.7614,-3.7814,-3.7155,-3.5848,-3.4337,-3.2938,-3.1605,-2.9521,-2.8084,-2.6806,-2.4582,-2.3286,-2.2231,-1.9956,0.0,0.0,0.0,0.0,0.0,0.0,0.0,0.0,0.0,0.0,0.0,0.0,0.0,0.0,0.0,0.0,0.0,0.0,0.0,0.0,-2.4378,-2.688,-2.8924,-3.0176,-3.0792,-3.1304,-3.2016,-3.2155,-3.2192,-3.2192,-3.2192,-3.2403,-3.2975,-3.2975,-3.3102,-3.3355,-3.2617,-3.2229,-3.2229,-3.1328,-3.0898,-3.0898,-3.0898,-3.0898,-3.0898,0.0,0.0,-3.0898,-3.0898,-3.0684,-3.0332,-3.0156,-2.9687,-2.9023,-2.8867,-2.8594,-2.8301,-2.8301,-2.8301,-2.8281,-2.8203,-2.7949,-2.7708,0.0,0.0,0.0,0.0,0.0,0.0,0.0,-1.3969,-1.5946,-1.9135,-2.1541,-2.4115,-2.7162,-2.7514,-2.7726,-2.8407,-2.8458,-2.9052,-3.0431,-3.335,-3.5865,-3.7816,-3.9846,-4.1358,-4.2187,-4.2489,-4.2599,-4.2513,-4.2344,-4.1948,-4.1378,-4.1206,-4.0894,-4.0374,-4.0106,-3.9755,-3.9285,-3.893,-3.8498,-3.7999,-3.8177,-3.7979,-3.7484,-3.5746,-3.4489,-3.3375,-3.1493,-2.9935,-2.8557,-2.6718,-2.5447,-2.4249,-2.211,-2.0527,-1.9169,0.0,0.0,0.0,0.0,0.0,0.0,0.0,0.0,0.0,0.0,0.0,0.0,0.0,0.0,-1.6832,0.0,0.0,-2.2127,-2.4787,-2.6569,-2.7969,-2.9051,-2.934,-3.0,-3.1166,-3.123,-3.1166,-3.1295,-3.157,-3.1955,-3.2613,-3.2804,-3.3038,-3.3355,-3.2617,-3.2229,-3.2229,-3.1328,-3.0898,-3.0898,-3.0898,-3.0898,-3.0898,-3.0898,-3.0898,-3.0898,-3.0898,-3.0762,-3.0527,-3.0293,-2.9961,-2.9531,-2.9101,-2.8672,-2.8301,-2.8301,-2.8301,-2.8301,-2.8301,-2.8164,-2.7988,0.0,0.0,0.0,0.0,0.0,0.0,0.0,0.0,-1.4793,-1.7479,-1.919,-2.108,-2.3387,-2.3324,-2.3364,-2.4022,-2.6127,-2.8319,-3.034,-3.4218,-3.7166,-3.8967,-4.0943,-4.2043,-4.2143,-4.2593,-4.265,-4.2344,-4.2061,-4.1549,-4.086,-4.049,-4.0071,-3.9577,-3.96,-3.9373,-3.9084,-3.9107,-3.8942,-3.8754,-3.8754,-3.8582,-3.8148,-3.64,-3.5285,-3.4401,-3.2378,-3.0811,-2.9429,-2.8082,-2.6851,-2.5612,-2.393,-2.2573,-2.1207,-1.9128,-1.7861,0.0,0.0,0.0,0.0,0.0,0.0,0.0,0.0,0.0,-1.7065,-1.7456,-1.7912,-1.8782,-2.064,-2.1624,-2.2868,-2.5227,-2.6192,-2.6869,-2.7686,-2.7851,-2.8426,-2.9854,-2.9977,-3.0,-3.039,-3.0797,-3.1442,-3.223,-3.2594,-3.2975,-3.3355,-3.2695,-3.2246,-3.2229,-3.1426,-3.0976,-3.0898,-3.0898,-3.0898,-3.0898,-3.0898,-3.0898,-3.0898,-3.0898,-3.0898,-3.0859,-3.0391,-3.0195,-3.0137,-2.9277,-2.8711,-2.8398,-2.832,-2.8301,-2.8301,-2.8301,-2.8301,-2.8301,0.0,0.0,0.0,0.0,0.0,0.0,0.0,0.0,0.0,-1.5957,-1.7595,-1.914,-2.0461,-2.0322,-2.0363,-2.0797,-2.3896,-2.7061,-2.9875,-3.4037,-3.7318,-3.9435,-4.0745,-4.1632,-4.2125,-4.2174,-4.2029,-4.172,-4.1459,-4.0826,-3.9931,-3.9344,-3.9039,-3.9167,-3.8864,-3.9209,-4.0127,-4.0211,-4.0083,-3.9914,-3.9914,-3.9209,-3.7992,-3.676,-3.5826,-3.4849,-3.2231,-3.0486,-2.9134,-2.7293,-2.631,-2.5591,-2.4441,-2.3461,-2.2405,-2.0801,0.0,-1.7782,-1.8063,-1.7883,-1.7456,-1.678,-1.6667,-1.6742,0.0,0.0,-1.8584,-1.9319,-2.0192,-2.1291,-2.3005,-2.3667,-2.4292,-2.5424,-2.6187,-2.6643,-2.6427,-2.6658,-2.6938,-2.7146,-2.7915,-2.8576,-2.8971,-2.9609,-3.052,-3.1873,-3.2275,-3.274,-3.3355,-3.2988,-3.2559,-3.2187,-3.1699,-3.1269,-3.0898,-3.0898,-3.0898,-3.0898,-3.0898,-3.0898,-3.0898,-3.0898,-3.0898,-3.0859,-3.0391,-3.0195,-3.0137,-2.9277,-2.8887,-2.8809,-2.8437,-2.8301,-2.8301,-2.8301,-2.8301,-2.8301,0.0,0.0,0.0,0.0,0.0,0.0,0.0,0.0,0.0,0.0,-1.5437,-1.633,-1.7163,-1.7097,-1.7255,-1.8034,-2.1609,-2.5094,-2.8181,-3.2816,-3.6429,-3.8539,-4.0146,-4.1248,-4.1953,-4.215,-4.247,-4.2846,-4.2321,-4.165,-4.0937,-4.0278,-3.9909,-3.9891,-3.9869,-4.0327,-4.1144,-4.1228,-4.1294,-4.1302,-4.0662,-3.9748,-3.8592,-3.6464,-3.4614,-3.2922,-3.0906,-2.9039,0.0,0.0,-2.5073,-2.4565,-2.3723,-2.3199,-2.2601,-2.1076,-1.9927,0.0,-1.8811,-1.8693,-1.8549,0.0,-1.839,-1.8891,-1.9483,-1.9991,-2.0662,-2.1775,-2.2462,-2.322,-2.4316,-2.4785,-2.5323,0.0,-2.629,-2.6326,-2.6183,-2.603,-2.5974,-2.5945,-2.6594,-2.7457,-2.8341,-2.9047,-3.007,-3.1474,-3.2079,-3.2676,-3.3355,-3.3027,-3.2715,-3.2539,-3.1875,-3.1426,-3.125,-3.1016,-3.0898,-3.0898,-3.0898,-3.0898,-3.0898,-3.0898,-3.0898,-3.0879,-3.0684,-3.0449,-3.0176,-2.9805,-2.9375,-2.8906,-2.873,-2.8516,-2.8301,-2.8301,-2.8301,-2.8301,0.0,0.0,0.0,0.0,0.0,0.0,0.0,0.0,0.0,0.0,0.0,-1.4079,-1.4612,-1.4542,-1.4949,-1.6084,-1.9503,-2.3054,-2.6426,-3.1021,-3.4653,-3.6952,-3.8704,-4.0069,-4.0962,-4.1481,-4.2193,-4.3076,-4.2544,-4.2136,-4.1774,-4.1045,-4.0685,-4.0721,-4.0923,-4.1422,-4.2197,-4.2197,-4.2276,-4.2209,-4.1054,-3.9811,-3.832,-3.5479,-3.2831,-3.0453,-2.9065,-2.7174,0.0,0.0,-2.3273,-2.287,-2.2125,-2.2164,-2.214,-2.082,-2.0301,-1.9997,-1.8985,0.0,0.0,-1.9258,-1.9831,-2.0643,-2.1522,-2.1882,-2.2361,-2.3618,-2.4094,-2.4595,-2.5578,-2.5968,-2.6371,-2.7012,-2.6959,-2.6701,-2.6289,-2.6087,-2.5818,-2.5622,-2.5968,-2.6695,-2.7808,-2.8789,-2.987,-3.1171,-3.1942,-3.2631,-3.3179,-3.3066,-3.291,-3.2793,-3.2187,-3.1758,-3.1523,-3.1211,-3.0996,-3.0898,-3.0898,-3.0898,-3.0898,-3.0898,-3.0898,-3.0898,-3.0898,-3.0703,-3.0371,-3.0254,-2.9766,-2.9082,-2.8965,-2.8652,-2.8301,-2.8301,-2.8301,-2.8301,0.0,0.0,0.0,0.0,0.0,0.0,0.0,0.0,0.0,0.0,0.0,0.0,0.0,-1.3258,-1.3826,-1.5212,-1.782,-2.1079,-2.5022,-2.8656,-3.1935,-3.4795,-3.6241,-3.7564,-3.8689,-3.9597,-4.0582,-4.1602,-4.1419,-4.1471,-4.1774,-4.0885,-4.0829,-4.1558,-4.1575,-4.2226,-4.3279,-4.3279,-4.29,-4.2173,-4.1031,-3.9082,-3.6486,-3.3701,-3.0758,-2.7852,-2.6853,0.0,0.0,-2.1253,-2.0683,-2.0527,-1.9686,-2.0254,0.0,-2.0195,-2.0049,-1.9903,0.0,0.0,-2.0042,-1.9891,-2.0582,-2.1427,-2.2061,-2.2645,-2.3342,-2.4386,-2.4705,-2.5407,-2.7137,-2.7344,-2.7594,-2.8405,-2.8524,-2.8084,-2.6887,-2.6859,-2.6734,-2.6057,-2.6182,-2.6556,0.0,-2.8564,-2.9886,-3.1011,-3.1818,-3.244,-3.2812,-3.3184,-3.3223,-3.2812,-3.2773,-3.2363,-3.1523,-3.1504,-3.1289,-3.0898,-3.0898,-3.0898,-3.0898,-3.0898,-3.0898,-3.0898,-3.0898,-3.0879,-3.084,-3.0391,-2.9941,-2.9512,-2.9082,-2.8652,-2.8301,-2.8301,-2.8301,-2.8301,0.0,0.0,0.0,0.0,0.0,0.0,0.0,0.0,0.0,0.0,0.0,0.0,0.0,0.0,0.0,0.0,-1.6407,-1.8828,-2.1385,-2.508,-2.8132,-3.0349,-3.2683,-3.4659,-3.6039,-3.7369,-3.863,-3.9964,-4.0034,-4.0207,-4.0504,-4.0338,-4.0471,-4.0959,-4.1283,-4.1883,-4.2573,-4.1794,-4.1195,-4.0587,-3.862,-3.6454,-3.4079,-3.0808,-2.7913,-2.5259,0.0,0.0,-2.0558,-1.9291,-1.8867,-1.8809,-1.8535,-1.889,-1.9501,-1.9708,-2.0153,-2.0559,-2.0342,0.0,-2.1347,-2.1347,-2.2123,-2.2972,-2.3662,-2.3932,-2.432,-2.5281,-2.5404,-2.5608,-2.6378,-2.7035,-2.7635,-2.8229,-2.8377,-2.8241,-2.7685,-2.7299,-2.6712,-2.6024,-2.6134,0.0,0.0,0.0,0.0,-2.9961,-3.1228,-3.209,-3.242,-3.3078,-3.3359,-3.3223,-3.2949,-3.2656,-3.2363,-3.1797,-3.1445,-3.1309,-3.1016,-3.0898,-3.0898,-3.0898,-3.0898,-3.0898,-3.0898,-3.0898,-3.0879,-3.0723,-3.0391,-2.998,-2.9824,-2.9512,-2.9141,-2.9141,-2.9141,-2.9062,0.0,0.0,0.0,0.0,0.0,0.0,0.0,0.0,0.0,0.0,0.0,0.0,0.0,0.0,0.0,0.0,0.0,-1.69,-1.8838,-2.17,-2.424,-2.6372,-2.8705,-3.0739,-3.2341,-3.3746,-3.5154,-3.6564,-3.7018,-3.7485,-3.7937,-3.8367,-3.8803,-3.9302,-3.9661,-4.0036,-4.0282,-3.943,-3.8459,-3.7298,-3.5173,-3.3016,-3.0701,-2.7395,-2.4843,0.0,0.0,0.0,-1.8305,-1.7566,-1.7519,-1.7754,-1.7598,-1.8359,-1.9424,-1.9832,-2.0721,-2.1613,-2.149,-2.1892,-2.2408,-2.2715,-2.3393,-2.408,-2.4739,-2.4792,-2.4795,-2.5348,-2.5057,-2.4896,-2.5575,-2.6227,-2.7012,-2.792,-2.84,-2.863,-2.8447,-2.7843,-2.7125,-2.6405,-2.6163,-2.6136,0.0,0.0,0.0,-2.905,-3.0546,-3.1569,-3.188,-3.2729,-3.3292,-3.3418,-3.3164,-3.2949,-3.2793,-3.2246,-3.1816,-3.1504,-3.125,-3.1035,-3.0898,-3.0898,-3.0898,-3.0898,-3.0898,-3.0898,-3.0898,-3.0898,-3.0625,-3.0195,-3.0195,-2.9941,-2.9626,-2.9626,-2.9626,-2.9548,0.0,0.0,0.0,0.0,0.0,0.0,0.0,0.0,0.0,0.0,0.0,0.0,0.0,0.0,0.0,0.0,0.0,0.0,-1.7384,-1.8516,-2.0349,-2.3021,-2.4419,-2.5945,-2.7675,-2.9006,-3.0255,-3.139,-3.2509,-3.3354,-3.398,-3.4894,-3.5672,-3.6457,-3.6723,-3.6723,-3.6424,-3.6092,-3.4616,-3.2398,-3.0795,-2.8748,-2.6424,-2.3638,0.0,0.0,0.0,0.0,0.0,0.0,0.0,0.0,0.0,-1.8672,-2.0682,-2.0634,-2.1821,-2.3014,-2.2111,-2.2432,-2.3254,-2.3916,-2.4331,-2.4705,-2.5288,-2.5153,-2.4838,-2.4661,-2.3718,-2.3367,0.0,0.0,-2.5649,-2.7338,-2.8442,-2.906,-2.9016,-2.8431,-2.7754,0.0,0.0,0.0,0.0,0.0,0.0,-2.8155,0.0,-3.0803,-3.1129,-3.2281,-3.3038,-3.3355,-3.3418,-3.3223,-3.2832,-3.2812,-3.2383,-3.1483,-3.1483,-3.1269,-3.0859,-3.0918,-3.0918,-3.0898,-3.0898,-3.0898,-3.0898,-3.0898,-3.0625,-3.0234,-3.0234,-2.998,-2.9704,-2.9704,-2.9704,-2.9704,0.0,0.0,0.0,0.0,0.0,0.0,0.0,0.0,0.0,0.0,0.0,0.0,0.0,0.0,0.0,0.0,0.0,0.0,-1.4939,-1.6206,-1.7639,-1.9298,-2.0833,-2.2291,-2.3577,-2.4781,-2.5628,-2.6195,-2.7134,-2.7785,-2.822,-2.9179,-2.9825,-3.0245,-3.0696,-3.0874,-3.0732,-3.004,-2.8925,-2.7415,0.0,-2.4386,-2.2511,0.0,0.0,0.0,0.0,0.0,0.0,0.0,0.0,0.0,0.0,-2.0977,-2.2213,-2.3186,-2.3899,-2.4309,-2.4136,-2.4132,-2.4084,-2.4092,-2.4461,-2.4784,-2.4558,-2.4391,-2.409,-2.3615,-2.222,-2.1324,0.0,0.0,0.0,-2.4975,-2.6416,0.0,-2.8695,-2.8385,0.0,-2.7528,0.0,-2.5757,-2.5142,-2.542,0.0,0.0,-2.8289,-2.9984,-3.0858,-3.2182,-3.3038,-3.3355,-3.3418,-3.3379,-3.3262,-3.2949,-3.2396,-3.1568,-3.1568,-3.1216,-3.0615,-3.0873,-3.0818,-3.0509,-3.0762,-3.0898,-3.0898,-3.0898,-3.082,-3.0703,-3.0703,-3.0644,-3.0547,-3.0547,-3.0547,-3.0547,0.0,0.0,0.0,0.0,0.0,0.0,0.0,0.0,0.0,0.0,0.0,0.0,0.0,0.0,0.0,0.0,0.0,0.0,0.0,-1.4531,-1.543,-1.6543,-1.7645,-1.874,-1.9833,-2.0687,-2.1322,-2.1794,0.0,0.0,-2.3465,-2.4451,-2.5168,-2.5488,-2.5937,-2.6066,-2.5893,-2.5465,0.0,0.0,0.0,0.0,0.0,0.0,0.0,0.0,0.0,0.0,0.0,0.0,0.0,-2.0391,-2.2305,-2.3769,-2.4897,-2.537,0.0,-2.6276,-2.5797,-2.5343,-2.493,-2.4618,-2.455,-2.433,-2.3589,-2.3015,-2.2316,-2.1258,-1.9833,0.0,0.0,0.0,0.0,0.0,0.0,0.0,-2.8642,-2.8577,-2.8298,0.0,-2.7021,0.0,-2.5356,-2.5172,-2.52,0.0,-2.7537,-2.9211,-3.033,-3.154,-3.253,-3.3165,-3.3165,-3.3228,-3.3418,-3.3184,-3.2665,-3.1888,-3.1888,-3.144,-3.0528,-3.0847,-3.0796,-3.045,0.0,-3.0898,-3.0898,-3.0898,-3.0898,-3.0898,-3.0898,-3.0898,-3.0898,-3.0898,-3.0898,-3.0898,0.0,0.0,0.0,0.0,0.0,0.0,0.0,0.0,0.0,0.0,0.0,0.0,0.0,0.0,0.0,0.0,0.0,0.0,0.0,0.0,0.0,-1.459,-1.4961,-1.5606,-1.6583,-1.701,-1.7484,-1.8006,-1.8885,0.0,0.0,0.0,0.0,0.0,0.0,0.0,0.0,0.0,0.0,0.0,0.0,0.0,0.0,0.0,0.0,0.0,0.0,0.0,0.0,0.0,-2.1639,-2.2539,-2.4785,-2.6652,-2.7868,-2.7524,-2.7985,-2.8425,-2.7294,-2.6454,-2.5692,-2.5257,-2.4471,-2.355,-2.2269,-2.1172,-1.9945,-1.8347,0.0,-1.6545,-1.7388,-1.8415,-1.9868,-2.222,0.0,-2.6439,-2.8281,-2.8547,-2.8632,-2.8904,-2.7663,-2.6584,-2.5958,-2.523,-2.5041,-2.5611,-2.7165,-2.8561,-2.9654,-3.0745,-3.1827,-3.2867,-3.2912,-3.3102,-3.3418,-3.3355,-3.2991,-3.2248,-3.2205,-3.1537,-3.0396,-3.0781,-3.0713,-3.0351,-3.0781,-3.0976,-3.0976,-3.1035,-3.1055,-3.1055,-3.1055,-3.1055,-3.1055,-3.1055,-3.1055,-3.1055,0.0,0.0,0.0,0.0,0.0,0.0,0.0,0.0,0.0,0.0,0.0,0.0,0.0,0.0,0.0,0.0,0.0,0.0,0.0,0.0,0.0,0.0,-1.3789,-1.4062,-1.4598,-1.4676,-1.4782,-1.4888,-1.5428,-1.5861,0.0,0.0,0.0,0.0,0.0,0.0,0.0,0.0,0.0,0.0,0.0,0.0,0.0,0.0,0.0,0.0,0.0,0.0,0.0,0.0,-2.2392,-2.3965,-2.6836,-2.8418,-2.9397,-3.0064,-3.0073,-2.9686,-2.9274,-2.8045,-2.6669,-2.5498,-2.4209,-2.2662,-2.0447,-1.9094,0.0,0.0,0.0,-1.4435,-1.5611,-1.6465,-1.7664,-1.9715,0.0,0.0,0.0,0.0,-2.8394,0.0,0.0,0.0,0.0,0.0,0.0,0.0,-2.688,-2.7966,-2.9344,-3.0372,-3.157,-3.2848,-3.3165,-3.3355,-3.3418,-3.3102,-3.2619,-3.1971,-3.1716,-3.0965,-2.9924,-3.047,-3.0466,-3.0133,-3.099,0.0,-3.1445,-3.1797,-3.1953,-3.1953,-3.1953,-3.1953,-3.1953,-3.1953,-3.1953,-3.1894,0.0,0.0,0.0,0.0,0.0,0.0,0.0,0.0,0.0,0.0,0.0,0.0,0.0,0.0,0.0,0.0,0.0,0.0,0.0,0.0,0.0,0.0,0.0,0.0,0.0,-1.3782,-1.3899,-1.4114,0.0,-1.4523,-1.4718,-1.4718,-1.4835,-1.5059,-1.4816,0.0,0.0,0.0,0.0,0.0,0.0,0.0,0.0,0.0,0.0,0.0,0.0,0.0,0.0,0.0,-2.1238,-2.3329,-2.7129,-2.9199,-3.0372,-3.0836,-3.1001,-3.0902,-3.0656,-2.9314,-2.7669,-2.6323,-2.4306,-2.1928,-1.917,0.0,0.0,0.0,-1.2897,-1.2708,-1.3891,0.0,0.0,0.0,0.0,0.0,0.0,0.0,0.0,0.0,0.0,0.0,0.0,0.0,0.0,0.0,-2.7105,-2.76,-2.8444,-2.9626,-3.0642,-3.1257,-3.1765,-3.2049,-3.2008,-3.203,-3.1828,-3.132,-3.1414,-3.092,-3.0094,-3.0696,-3.0816,-3.0686,-3.1494,-3.1855,-3.1875,-3.209,-3.2229,-3.2229,-3.2229,-3.2229,-3.2229,-3.2229,-3.2229,-3.2148,0.0,0.0,0.0,0.0,0.0,0.0,0.0,0.0,-1.9136,-1.9661,-1.9593,-1.8593,-1.6214,-1.4756,0.0,0.0,0.0,0.0,0.0,0.0,0.0,0.0,0.0,0.0,0.0,0.0,0.0,-1.3841,-1.3841,0.0,0.0,0.0,0.0,0.0,-1.388,-1.3841,-1.3841,0.0,0.0,0.0,0.0,0.0,0.0,0.0,0.0,0.0,0.0,0.0,0.0,0.0,-1.9487,-2.1546,-2.5606,-2.8437,-3.0275,-3.0683,-3.1191,-3.1583,-3.1567,-3.0309,-2.8558,-2.7075,-2.4349,-2.1209,-1.8155,-1.5693,0.0,0.0,-1.1091,-1.129,-1.2425,0.0,0.0,0.0,0.0,0.0,0.0,0.0,0.0,0.0,0.0,0.0,0.0,0.0,0.0,0.0,-2.7584,-2.7384,-2.7716,-2.8821,-2.9478,-2.9566,-3.0194,-3.0497,-3.0495,-3.0747,-3.077,-3.0599,-3.0874,-3.0765,-3.0221,-3.098,-3.1296,-3.1243,-3.1999,-3.2305,-3.2305,-3.2402,-3.2441,-3.2441,-3.2441,-3.2441,-3.2441,-3.2441,-3.2441,-3.2422,0.0,0.0,0.0,0.0,0.0,0.0,0.0,0.0,-2.0628,-2.1452,-2.1649,-2.0937,-1.8951,-1.6377,0.0,0.0,0.0,0.0,0.0,0.0,0.0,0.0,0.0,0.0,0.0,0.0,0.0,-1.3013,-1.3013,0.0,0.0,0.0,0.0,0.0,0.0,-1.3013,-1.3013,-1.3013,0.0,0.0,0.0,0.0,0.0,0.0,0.0,0.0,0.0,0.0,0.0,0.0,0.0,-1.8971,-2.1412,-2.4886,-2.8281,-2.9863,0.0,0.0,-3.2018,-3.0998,-2.9214,-2.7219,-2.4064,-2.0548,-1.7056,0.0,0.0,-1.0571,-0.9991,-1.0173,-1.1471,-1.3004,0.0,0.0,0.0,-2.0074,0.0,0.0,0.0,0.0,0.0,0.0,0.0,0.0,0.0,0.0,-2.8246,-2.765,-2.77,-2.8112,-2.8476,-2.8811,-2.9214,-2.9582,-2.9857,-2.9645,-2.96,-2.9805,-2.9887,-2.9921,-2.9885,-3.0835,-3.132,-3.1346,-3.23,-3.2734,0.0,-3.3144,-3.3301,-3.3301,-3.3301,-3.3301,-3.3301,-3.3301,-3.3301,-3.3242,0.0,0.0,0.0,0.0,0.0,0.0,0.0,-1.9343,-2.1039,-2.1651,-2.2194,-2.1752,-1.9684,-1.7796,0.0,0.0,0.0,0.0,0.0,0.0,0.0,0.0,0.0,0.0,0.0,0.0,-1.3032,-1.3262,-1.3262,0.0,0.0,0.0,0.0,0.0,0.0,-1.2915,-1.2915,0.0,0.0,0.0,0.0,0.0,0.0,0.0,0.0,0.0,0.0,0.0,0.0,0.0,0.0,0.0,-1.8244,-2.0372,0.0,0.0,-2.8777,-2.9967,-3.117,-3.054,-2.9174,-2.7387,-2.4082,-2.0342,-1.6752,0.0,-1.1785,-0.9928,-0.9505,-0.976,-1.0708,-1.2485,-1.4025,0.0,0.0,0.0,0.0,0.0,0.0,0.0,0.0,0.0,0.0,0.0,0.0,-2.9917,-2.9151,-2.8262,-2.7458,-2.7116,-2.6842,-2.6534,-2.6703,-2.7085,-2.7545,-2.7706,-2.8199,-2.902,-2.9538,-3.0095,-3.0709,-3.1358,-3.1866,-3.2283,-3.2913,-3.3164,0.0,-3.3359,-3.3418,-3.3418,-3.3418,-3.3418,-3.3418,-3.3418,-3.3418,-3.3398,0.0,0.0,0.0,0.0,0.0,0.0,-1.6728,-1.8881,-2.0593,-2.1011,-2.1925,-2.1743,-1.9651,-1.8459,-1.6867,-1.4527,0.0,0.0,0.0,0.0,0.0,0.0,0.0,0.0,0.0,0.0,-1.3281,-1.3665,-1.3828,-1.3887,0.0,0.0,-1.3477,-1.3066,0.0,0.0,0.0,0.0,0.0,0.0,0.0,0.0,0.0,0.0,0.0,0.0,0.0,0.0,0.0,0.0,0.0,0.0,0.0,0.0,0.0,0.0,-2.6348,-2.793,-2.9512,-2.9298,-2.8217,-2.6716,-2.3357,-1.9542,0.0,0.0,-1.1294,-0.9552,-0.9233,-0.9506,-1.027,-1.1918,-1.3308,-1.3827,0.0,-1.8395,0.0,0.0,0.0,0.0,0.0,0.0,0.0,0.0,0.0,-3.0807,-3.0007,-2.9004,-2.7536,-2.6535,-2.5687,-2.495,-2.489,-2.5155,-2.5778,-2.6253,-2.7187,-2.8428,-2.9249,-3.0149,-3.1108,-3.1683,-3.2218,-3.2738,-3.317,-3.3418,0.0,-3.3418,-3.3418,-3.3418,-3.3418,-3.3418,-3.3418,-3.3418,-3.3418,-3.3418,0.0,0.0,0.0,0.0,0.0,0.0,0.0,0.0,-1.92,-1.9474,-2.0805,-2.0928,-1.8935,-1.803,-1.686,-1.4939,0.0,0.0,0.0,0.0,0.0,0.0,0.0,0.0,0.0,0.0,-1.3685,-1.4094,-1.457,-1.4793,-1.4793,-1.4309,-1.388,-1.3477,0.0,0.0,0.0,0.0,0.0,0.0,0.0,0.0,0.0,0.0,0.0,0.0,0.0,0.0,0.0,0.0,0.0,0.0,0.0,0.0,-1.6966,0.0,-2.3457,-2.4941,-2.7109,-2.7046,-2.6048,-2.4856,-2.1531,-1.7921,0.0,0.0,-1.0499,-0.9419,-0.9086,-0.9283,-1.0243,-1.1071,-1.2056,-1.3314,-1.4975,0.0,0.0,0.0,0.0,0.0,0.0,0.0,0.0,0.0,-3.2275,-3.1873,-3.0865,0.0,-2.8232,-2.6559,-2.5298,-2.4619,-2.4283,-2.4425,-2.5103,-2.5778,-2.6753,-2.8037,-2.9077,-2.9944,-3.0566,-3.1727,-3.2315,-3.2334,-3.3054,-3.3418,0.0,-3.3418,-3.3418,-3.3418,-3.3418,-3.3418,-3.3418,-3.3418,-3.3418,-3.3418,0.0,0.0,0.0,0.0,0.0,0.0,0.0,0.0,-1.7372,-1.7501,-1.8814,-1.9043,-1.7315,-1.714,-1.6363,-1.448,0.0,0.0,0.0,0.0,0.0,0.0,0.0,0.0,0.0,0.0,-1.425,-1.4972,-1.5478,-1.5634,-1.5486,-1.5061,-1.4426,-1.3628,-1.3317,-1.302,0.0,0.0,0.0,0.0,0.0,0.0,0.0,0.0,0.0,0.0,0.0,0.0,0.0,0.0,0.0,0.0,0.0,0.0,0.0,-1.6992,-1.9609,-2.2112,-2.3359,-2.3589,-2.3164,-2.197,-1.9737,-1.714,-1.4451,0.0,-1.0798,-0.9357,-0.9017,-0.9134,-0.9628,-1.0669,-1.1813,-1.2865,-1.4642,0.0,0.0,0.0,0.0,0.0,0.0,0.0,0.0,0.0,-3.2013,-3.2156,-3.1152,-2.9875,-2.8226,-2.6724,-2.5438,-2.4268,-2.3726,-2.3852,-2.4734,-2.5394,-2.6614,-2.8361,-2.9085,-3.0084,-3.1225,-3.1927,-3.2396,-3.2688,-3.3179,-3.3418,-3.3418,-3.3418,-3.3418,-3.3418,-3.3418,-3.3418,-3.3418,-3.3418,-3.3418,-3.3418,0.0,0.0,0.0,0.0,0.0,0.0,0.0,0.0,-1.5708,-1.5734,-1.6838,-1.7134,-1.587,-1.6001,-1.5592,-1.403,0.0,0.0,0.0,0.0,0.0,0.0,0.0,0.0,0.0,-1.4082,-1.4805,-1.5664,-1.6426,-1.6702,-1.651,-1.6119,-1.5346,-1.4298,-1.3727,-1.3182,0.0,0.0,0.0,0.0,0.0,0.0,-1.2915,0.0,0.0,0.0,0.0,0.0,0.0,0.0,0.0,0.0,0.0,0.0,0.0,0.0,-1.6235,-1.8372,0.0,-2.0332,-2.0112,-1.9319,-1.7628,0.0,0.0,0.0,-1.0493,-0.9247,-0.9044,-0.9138,-0.9356,-1.0424,-1.1542,-1.236,-1.4355,0.0,0.0,0.0,0.0,0.0,0.0,0.0,0.0,-3.1218,-3.1408,-3.1675,-3.068,-2.9451,-2.8035,-2.6525,-2.531,-2.4301,-2.3728,-2.3914,-2.478,-2.5806,-2.7099,-2.8737,-2.9431,-3.0291,-3.1289,-3.1719,-3.2148,-3.2578,-3.3008,-3.3281,0.0,-3.3418,-3.3418,-3.3418,-3.3418,-3.3418,-3.3418,-3.3418,-3.3418,-3.3418,0.0,0.0,0.0,0.0,0.0,0.0,0.0,0.0,0.0,0.0,0.0,-1.5299,-1.4558,-1.4807,0.0,0.0,0.0,0.0,0.0,0.0,0.0,0.0,0.0,0.0,0.0,-1.4394,-1.5283,-1.6144,-1.7422,-1.793,-1.7724,-1.7298,-1.6451,-1.5247,-1.4166,-1.3343,0.0,0.0,0.0,0.0,0.0,0.0,0.0,0.0,0.0,0.0,0.0,0.0,0.0,0.0,0.0,0.0,0.0,0.0,0.0,0.0,0.0,0.0,0.0,0.0,0.0,0.0,0.0,0.0,0.0,0.0,0.0,-0.9149,-0.9113,-0.9234,-0.9346,-1.0306,-1.1256,-1.1882,-1.4094,0.0,0.0,0.0,0.0,0.0,0.0,0.0,0.0,-3.0259,-3.0482,-3.0562,-2.9562,-2.8516,-2.7675,-2.5986,-2.4903,-2.461,-2.4301,-2.4471,-2.5194,-2.6779,-2.8062,-2.9035,-2.9981,-3.0567,-3.0898,-3.1328,-3.1758,0.0,-3.2617,-3.3027,-3.3418,-3.3418,-3.3418,-3.3418,-3.3418,-3.3418,-3.3418,-3.3418,-3.3418,-3.3418,0.0,0.0,0.0,0.0,0.0,0.0,0.0,0.0,0.0,0.0,0.0,-1.4119,0.0,0.0,0.0,0.0,0.0,0.0,0.0,0.0,0.0,0.0,0.0,0.0,0.0,-1.4796,-1.5703,-1.6551,-1.7818,-1.8321,-1.7986,-1.743,-1.6489,-1.5195,-1.4098,-1.324,-1.2563,0.0,0.0,0.0,0.0,0.0,0.0,0.0,0.0,0.0,-1.2915,-1.2915,0.0,0.0,0.0,0.0,0.0,0.0,0.0,0.0,-1.2738,-1.2744,-1.3164,0.0,-1.4284,-1.4081,-1.3402,0.0,0.0,0.0,0.0,0.0,0.0,0.0,0.0,-0.9967,-1.0939,-1.1584,-1.3485,-1.5267,0.0,0.0,0.0,0.0,0.0,0.0,-2.8062,-2.827,-2.8514,-2.9044,-2.8096,-2.7219,-2.6505,-2.5381,-2.4533,-2.4239,-2.4672,-2.5272,-2.6156,-2.7564,-2.8719,-2.9686,-3.0157,-3.0567,-3.0898,-3.1328,-3.1758,-3.2187,-3.2617,-3.3027,-3.3418,-3.3418,-3.3418,-3.3418,-3.3418,-3.3418,-3.3418,-3.3418,-3.3418,-3.3418,0.0,0.0,0.0,0.0,0.0,0.0,0.0,0.0,0.0,0.0,0.0,0.0,0.0,0.0,0.0,0.0,0.0,0.0,0.0,0.0,0.0,0.0,0.0,0.0,-1.4094,-1.5176,-1.6152,-1.7031,-1.8301,-1.8996,-1.9068,-1.8356,-1.7329,-1.5958,-1.389,-1.2609,-1.2042,-1.2258,-1.2455,-1.2627,-1.2749,0.0,0.0,0.0,0.0,0.0,-1.2822,-1.2798,0.0,-1.2676,-1.2627,-1.2603,0.0,0.0,0.0,0.0,-1.216,-1.1904,-1.1754,-1.2228,-1.2681,-1.2439,-1.2114,-1.1709,0.0,0.0,0.0,0.0,0.0,0.0,0.0,0.0,0.0,0.0,-1.3345,0.0,0.0,0.0,0.0,0.0,0.0,0.0,0.0,-2.6342,-2.6557,-2.6973,-2.6333,-2.5562,-2.478,-2.4224,-2.3914,-2.3852,-2.4841,-2.57,-2.6537,-2.8002,-2.9153,-2.9922,-3.0392,-3.0704,-3.0898,-3.1133,-3.1562,-3.2187,-3.2402,-3.2851,-3.3418,-3.3418,-3.3418,-3.3418,-3.3418,-3.3418,-3.3418,-3.3418,-3.3418,-3.3418,0.0,0.0,0.0,0.0,0.0,0.0,0.0,0.0,0.0,0.0,0.0,0.0,0.0,0.0,0.0,0.0,0.0,0.0,0.0,0.0,0.0,0.0,0.0,-1.3704,-1.4192,-1.5508,-1.6633,-1.748,-1.8828,-1.9749,-2.0159,-1.9428,-1.8155,-1.6457,-1.3459,-1.1862,-1.1444,-1.1694,-1.1968,-1.2258,-1.2505,0.0,0.0,0.0,0.0,0.0,0.0,0.0,0.0,-1.2357,-1.2258,-1.2234,-1.2085,0.0,0.0,0.0,0.0,0.0,-1.144,-1.1681,-1.1838,-1.1544,-1.1301,-1.1031,0.0,0.0,0.0,0.0,0.0,0.0,0.0,0.0,0.0,0.0,0.0,0.0,0.0,0.0,0.0,0.0,0.0,0.0,-2.4201,-2.4627,-2.4798,-2.4731,-2.444,-2.387,-2.2897,-2.2835,-2.2959,-2.3392,-2.4561,-2.5631,-2.6547,-2.8224,-2.939,-2.9981,-3.0587,-3.0898,-3.0898,-3.0898,-3.1328,-3.207,0.0,0.0,-3.332,-3.3398,-3.3418,-3.3418,-3.3418,-3.3418,-3.3418,-3.3418,-3.3418,-3.3418,0.0,0.0,0.0,0.0,0.0,0.0,0.0,0.0,0.0,0.0,0.0,0.0,0.0,0.0,0.0,0.0,0.0,0.0,0.0,0.0,0.0,0.0,-1.3477,-1.3887,-1.4668,-1.5957,-1.7019,-1.791,-1.9607,-2.0177,-1.9697,-1.9442,-1.7512,-1.4158,-1.2501,-1.1539,-1.1167,-1.1318,-1.1619,-1.1968,-1.2135,0.0,0.0,0.0,0.0,0.0,0.0,0.0,0.0,-1.2234,-1.2042,-1.1943,-1.1794,0.0,0.0,0.0,0.0,0.0,-1.1202,-1.1366,-1.1523,-1.1299,-1.1158,-1.0961,0.0,0.0,0.0,0.0,0.0,0.0,0.0,0.0,0.0,0.0,0.0,0.0,0.0,0.0,0.0,0.0,0.0,-2.2209,-2.2835,-2.3219,-2.3316,-2.3093,-2.2772,-2.2396,-2.1953,-2.1637,-2.1758,-2.2421,-2.3126,-2.4341,-2.6159,-2.83,-2.9667,-3.0333,-3.0704,-3.0898,-3.0898,-3.0898,-3.1152,-3.1641,0.0,-3.2441,-3.293,-3.3281,-3.3418,-3.3418,-3.3418,-3.3418,-3.3418,-3.3418,-3.3418,-3.3418,0.0,0.0,0.0,0.0,0.0,0.0,0.0,0.0,0.0,0.0,0.0,0.0,0.0,0.0,0.0,0.0,0.0,0.0,0.0,0.0,0.0,-1.3802,-1.4512,-1.5107,-1.5498,-1.7207,-1.8418,-1.9043,-2.0312,-2.0917,-2.0798,-1.9029,-1.6492,-1.3315,-1.1964,-1.097,-1.031,-1.0582,-1.0913,-1.1267,0.0,0.0,0.0,0.0,0.0,0.0,0.0,0.0,0.0,0.0,-1.1418,-1.1318,-1.1116,0.0,0.0,0.0,0.0,0.0,-1.0708,-1.0816,-1.0884,-1.0974,-1.1019,-1.0946,0.0,0.0,0.0,0.0,0.0,0.0,0.0,0.0,0.0,0.0,0.0,0.0,0.0,0.0,0.0,0.0,0.0,-2.1124,-2.1511,-2.1765,-2.1801,-2.1647,-2.1465,-2.1227,-2.0893,-2.0893,-2.1254,-2.1915,-2.2677,-2.3882,-2.5477,-2.7429,-2.8972,-3.0157,-3.0645,-3.0898,-3.0898,-3.0898,-3.1113,-3.1523,0.0,-3.2051,-3.248,-3.291,-3.3086,-3.3105,-3.334,-3.3418,-3.3418,-3.3418,-3.3418,-3.3418,0.0,0.0,0.0,0.0,0.0,0.0,0.0,0.0,0.0,0.0,0.0,0.0,0.0,0.0,0.0,0.0,0.0,0.0,0.0,0.0,-1.3821,-1.425,-1.5723,-1.6555,-1.6555,-1.8437,-1.9687,-2.0177,-2.1073,-2.152,-2.1475,-1.8471,-1.5704,-1.3172,-1.1729,-1.0559,-0.9666,-0.994,-1.0275,-1.065,0.0,0.0,0.0,0.0,0.0,0.0,0.0,0.0,0.0,0.0,0.0,0.0,0.0,0.0,0.0,-1.0095,-0.9925,-0.9836,-1.0261,-1.0322,-1.0378,-1.0623,0.0,0.0,0.0,0.0,0.0,0.0,0.0,0.0,0.0,0.0,0.0,0.0,0.0,0.0,0.0,-1.9225,-1.9559,-2.0067,-2.0172,-2.0264,-2.0563,-2.0626,-2.0617,-2.0482,-2.0495,-2.0334,-2.0027,-2.0267,-2.0686,-2.1208,-2.2098,-2.3188,-2.4571,-2.6179,-2.7926,-2.9672,-3.0412,-3.082,-3.0898,-3.0898,-3.1074,-3.1367,-3.1484,-3.1699,-3.2051,-3.2578,-3.2793,-3.2832,-3.3262,-3.3418,-3.3418,-3.3418,-3.3418,-3.3418,0.0,0.0,0.0,0.0,0.0,0.0,0.0,0.0,0.0,0.0,0.0,0.0,0.0,0.0,0.0,0.0,0.0,0.0,0.0,0.0,-1.425,-1.4727,-1.6758,-1.7871,-1.7871,-1.918,-2.0293,-2.1093,-2.1951,-2.172,-2.0345,-1.7825,-1.5561,-1.3489,-1.1846,-1.0614,-0.9773,-0.9681,-0.9914,-1.0342,-1.03,0.0,0.0,0.0,0.0,0.0,0.0,0.0,0.0,0.0,0.0,0.0,0.0,0.0,-0.9825,-0.9825,-0.9732,-0.9661,-0.989,-1.0136,-1.0321,-1.0405,-1.0825,0.0,0.0,0.0,0.0,0.0,0.0,0.0,0.0,0.0,0.0,0.0,0.0,0.0,-1.9252,0.0,-1.9479,-1.9786,-1.9813,-1.9907,-2.0201,-2.0214,-2.0154,-1.9913,-1.9886,-1.9779,-1.9439,-1.9484,-1.9658,-1.9935,-2.0557,-2.161,-2.32,-2.4768,-2.6707,-2.8948,-2.9966,-3.0567,-3.0898,-3.0898,-3.0918,-3.0957,-3.1348,-3.1543,-3.1621,-3.2461,-3.2793,-3.2832,-3.3262,-3.3418,-3.3418,-3.3418,-3.3418,-3.3418,0.0,0.0,0.0,0.0,0.0,0.0,0.0,0.0,0.0,0.0,0.0,0.0,0.0,0.0,0.0,0.0,0.0,0.0,0.0,0.0,-1.4062,-1.4793,-1.6348,-1.7564,-1.8344,-1.9904,-2.0995,-2.1641,-2.1699,-2.0947,-1.9519,-1.7348,-1.5331,-1.3489,-1.2037,-1.082,-0.9855,-0.9707,-0.9698,-0.9758,-0.981,-1.0002,0.0,0.0,0.0,0.0,0.0,0.0,0.0,0.0,-0.9966,-0.9955,-0.9706,-0.9524,-0.9394,-0.9316,-0.9225,-0.9149,-0.9398,-0.97,-0.9973,-1.0167,-1.0752,0.0,0.0,0.0,0.0,0.0,0.0,0.0,0.0,0.0,0.0,0.0,0.0,-1.8758,-1.9533,-1.9639,-1.9746,-2.004,-1.9907,-1.984,-1.9947,-1.98,-1.9653,-1.9546,-1.9359,-1.9212,-1.9092,-1.8918,-1.9074,-1.9535,-1.9919,-2.08,-2.2154,-2.3731,-2.5366,-2.705,-2.9087,-3.0316,-3.0898,-3.0898,-3.0898,-3.0898,-3.1055,-3.1269,-3.1562,-3.2168,-3.2559,-3.2832,-3.3262,-3.3418,-3.3418,-3.3418,-3.3418,-3.3418,0.0,0.0,0.0,0.0,0.0,0.0,0.0,0.0,0.0,0.0,0.0,0.0,0.0,0.0,0.0,0.0,0.0,0.0,-1.2915,-1.3281,-1.3828,-1.4551,-1.582,-1.696,-1.7974,-1.9553,-2.0781,-2.168,-2.123,-2.0352,-1.9033,-1.7234,-1.5446,-1.3695,-1.2426,-1.1192,-1.0057,-0.981,-0.9572,-0.9406,-0.942,-0.951,0.0,0.0,0.0,0.0,0.0,0.0,0.0,0.0,-0.955,-0.9577,-0.9394,-0.9237,-0.9106,-0.9041,-0.891,-0.8871,-0.9138,-0.9459,-0.9809,0.0,0.0,0.0,0.0,0.0,0.0,0.0,0.0,0.0,0.0,0.0,0.0,0.0,-1.7822,-1.8624,-1.9412,-1.9519,-1.9599,-1.98,-1.9559,-1.9386,-1.9386,-1.9212,-1.9149,-1.9149,-1.8905,-1.8784,-1.8784,-1.8597,-1.8695,-1.9108,-1.9485,-2.0189,-2.1183,-2.2767,-2.426,-2.5739,-2.7937,-2.9546,-3.0568,-3.0762,-3.0898,-3.0898,-3.0898,-3.1133,-3.1562,-3.1992,-3.25,-3.3027,-3.3301,-3.3418,-3.3418,-3.3418,-3.3418,-3.3418,0.0,0.0,0.0,0.0,0.0,0.0,0.0,0.0,0.0,0.0,0.0,0.0,0.0,0.0,0.0,0.0,0.0,0.0,-1.2915,-1.3262,-1.3665,-1.4094,-1.5352,-1.6269,-1.6687,-1.7935,-1.9436,-2.1171,-2.0762,-2.0041,-1.8929,-1.7415,-1.5829,-1.425,-1.2975,-1.1656,-1.0372,-0.9907,-0.9586,-0.9368,-0.912,-0.9173,-0.9394,0.0,0.0,0.0,0.0,0.0,0.0,0.0,-0.9211,-0.9211,-0.9211,-0.9106,-0.9015,-0.9015,-0.891,-0.8871,-0.9138,-0.9459,-0.9863,0.0,0.0,0.0,0.0,0.0,0.0,0.0,0.0,0.0,0.0,0.0,0.0,-1.7112,-1.7662,-1.8195,-1.8838,-1.8918,-1.8918,-1.8918,-1.8664,-1.849,-1.849,-1.849,-1.849,-1.849,-1.849,-1.849,-1.849,-1.8477,-1.8477,-1.849,-1.9108,-1.9696,-2.0314,-2.1733,-2.3489,-2.5383,-2.6621,-2.8071,-2.9834,-3.0568,-3.0898,-3.0898,-3.0898,-3.1133,-3.1543,-3.1992,-3.2676,-3.3418,-3.3418,-3.3418,-3.3418,-3.3418,-3.3418,-3.3418,0.0,0.0,0.0,0.0,0.0,0.0,0.0,0.0,0.0,0.0,0.0,0.0,0.0,0.0,0.0,0.0,0.0,0.0,-1.2915,-1.3013,-1.3262,-1.3646,-1.4546,-1.5226,-1.5641,-1.6779,-1.8039,-1.9377,-1.9241,-1.8818,-1.8046,-1.6648,-1.5695,-1.5078,-1.3461,-1.2228,-1.1316,-1.0533,-1.0034,-0.9757,-0.956,-0.941,-0.9275,0.0,0.0,0.0,0.0,0.0,0.0,0.0,0.0,0.0,-0.908,-0.9028,-0.8989,-0.8883,-0.8831,-0.8871,-0.9138,-0.9753,0.0,0.0,0.0,0.0,0.0,0.0,0.0,0.0,0.0,0.0,0.0,0.0,0.0,-1.7139,-1.7662,-1.8129,-1.8571,-1.8624,-1.8624,-1.8624,-1.8544,-1.849,-1.849,-1.849,-1.849,-1.849,-1.8303,-1.8129,-1.8129,-1.7969,-1.7956,-1.8115,-1.8574,-1.9054,-1.9653,-2.0956,-2.2173,-2.336,-2.5076,-2.7148,-2.947,-2.9892,-3.0122,-3.0216,-3.045,-3.076,-3.1244,-3.2244,-3.293,-3.3418,-3.3418,-3.3418,-3.3418,-3.3418,-3.3418,-3.3418,0.0,0.0,0.0,0.0,0.0,0.0,0.0,0.0,0.0,0.0,-1.2915,-1.2915,0.0,0.0,0.0,0.0,0.0,0.0,0.0,-1.2915,-1.3066,-1.3496,-1.4026,-1.4601,-1.5267,-1.5744,-1.6324,-1.7001,-1.7634,-1.775,-1.7364,-1.6322,-1.5683,-1.5443,-1.3802,-1.2583,-1.1585,-1.0601,-1.0,-0.9698,-0.9569,-0.9364,-0.9217,0.0,0.0,0.0,0.0,0.0,0.0,0.0,0.0,0.0,-0.8936,0.0,-0.9059,-0.8978,-0.8951,-0.9044,-0.9444,-1.0154,0.0,0.0,0.0,0.0,0.0,0.0,0.0,0.0,0.0,0.0,0.0,-1.6817,0.0,-1.7326,-1.7622,-1.7969,-1.8277,-1.8317,-1.8317,-1.8317,-1.821,-1.813,-1.813,-1.813,-1.813,-1.813,-1.7969,-1.7862,-1.7862,-1.7689,-1.7662,-1.7862,-1.8156,-1.8562,-1.9071,-2.0259,-2.1267,-2.2152,-2.3964,-2.5713,-2.7416,-2.8667,-2.9255,-2.9343,-2.9839,-3.0241,-3.0524,-3.1746,-3.2368,-3.2618,-3.3044,-3.3165,-3.3228,-3.3355,-3.3418,-3.3418,0.0,0.0,0.0,0.0,0.0,0.0,0.0,0.0,0.0,0.0,-1.2915,-1.2915,0.0,0.0,0.0,0.0,0.0,0.0,0.0,0.0,-1.3042,-1.3445,-1.3734,-1.4298,-1.5191,-1.4706,-1.4414,-1.4378,-1.5933,-1.6717,-1.6708,-1.6163,-1.5764,-1.5427,-1.4028,-1.266,-1.1391,-1.0346,-0.9738,-0.9451,-0.9313,-0.9257,-0.9244,-0.9217,0.0,0.0,0.0,0.0,0.0,0.0,0.0,0.0,-0.8804,-0.8978,-0.9217,-0.9217,-0.9217,-0.9337,-0.9923,0.0,0.0,0.0,0.0,0.0,0.0,0.0,0.0,0.0,0.0,0.0,-1.7286,-1.7246,-1.7326,-1.7542,-1.7582,-1.7689,-1.7916,-1.7955,-1.7955,-1.7955,-1.7756,-1.7582,-1.7582,-1.7582,-1.7582,-1.7582,-1.7582,-1.7582,-1.7582,-1.7582,-1.7582,-1.7582,-1.7889,-1.8158,-1.8468,-1.9583,-2.0606,-2.1471,-2.2895,-2.3851,-2.4302,-2.6956,-2.8162,-2.8272,-2.9057,-2.9404,-2.9575,-3.0655,-3.1113,-3.1313,-3.2378,-3.2785,-3.2912,-3.3228,-3.3355,-3.3355,0.0,0.0,0.0,0.0,0.0,0.0,0.0,0.0,0.0,0.0,0.0,0.0,0.0,0.0,0.0,0.0,0.0,0.0,0.0,0.0,-1.2769,-1.317,-1.3487,-1.3675,-1.3667,-1.3334,-1.3044,-1.2796,-1.4344,-1.5223,-1.5462,-1.5357,-1.5355,-1.5407,-1.3904,-1.2692,-1.1713,-1.0554,-1.001,-0.9943,-0.9673,-0.9593,-0.9566,-0.9297,-0.9031,0.0,0.0,0.0,0.0,0.0,0.0,0.0,-0.8804,-0.8978,-0.9217,-0.9217,-0.9217,-0.9337,0.0,-1.0889,0.0,0.0,0.0,0.0,0.0,0.0,0.0,0.0,0.0,0.0,-1.7502,-1.7488,-1.7515,-1.7569,-1.7582,-1.7609,-1.7675,-1.7689,-1.7689,-1.7689,-1.7622,-1.7582,-1.7582,-1.7582,-1.7582,-1.7582,-1.7582,-1.7582,-1.7582,-1.7582,-1.7582,-1.7582,-1.7889,-1.805,-1.8104,-1.8824,-1.9515,-2.0202,-2.0974,-2.1688,-2.2306,-2.4906,-2.6353,-2.6946,-2.7357,-2.8043,-2.885,-2.9395,-2.9978,-3.0619,-3.1404,-3.2019,-3.2549,-3.2848,-3.2994,-3.2994,0.0,0.0,0.0,0.0,0.0,0.0,0.0,0.0,0.0,0.0,0.0,0.0,0.0,0.0,0.0,0.0,0.0,0.0,0.0,0.0,0.0,-1.2706,-1.2959,-1.2944,-1.2615,-1.2164,-1.1842,-1.1688,-1.2632,-1.3595,-1.4533,-1.4599,-1.4765,-1.494,-1.3619,-1.247,-1.1404,-1.0342,-0.982,-0.9657,-0.9526,-0.9472,-0.9459,-0.9271,-0.9031,-0.8804,-0.8804,0.0,0.0,0.0,0.0,0.0,0.0,0.0,-0.9217,-0.9217,-0.9217,-0.9377,0.0,0.0,0.0,0.0,0.0,0.0,0.0,0.0,0.0,0.0,0.0,-1.7542,-1.7447,-1.7434,-1.7434,-1.7434,-1.7434,-1.7474,-1.7569,-1.7582,-1.7582,-1.7582,-1.7582,-1.7582,-1.7582,-1.7582,-1.7582,-1.7582,-1.7582,-1.7582,-1.7582,-1.7582,-1.7582,-1.7582,-1.7742,-1.7822,-1.7822,-1.8388,-1.8892,-1.9209,-2.0059,-2.0754,-2.1231,-2.3168,-2.4447,-2.5131,-2.5326,-2.5785,-2.6516,-2.721,-2.8037,-2.8922,-3.0155,-3.1258,-3.2211,-3.2549,-3.2676,-3.2676,0.0,0.0,0.0,0.0,0.0,0.0,0.0,0.0,0.0,0.0,0.0,0.0,0.0,0.0,0.0,0.0,0.0,0.0,0.0,0.0,0.0,-1.2114,-1.2247,-1.2159,-1.177,-1.1133,-1.077,-1.0707,-1.1149,-1.2105,0.0,0.0,-1.4078,-1.4178,-1.327,-1.2114,-1.0823,-1.0041,-0.9512,-0.9176,-0.9123,-0.9137,-0.9149,-0.9096,-0.8937,-0.8778,-0.8778,-0.8778,-0.8804,-0.8804,0.0,0.0,0.0,0.0,-0.9217,-0.9217,-0.9217,-0.9391,0.0,0.0,0.0,0.0,0.0,0.0,0.0,0.0,0.0,0.0,0.0,-1.7474,-1.7179,-1.7125,-1.7125,-1.7125,-1.7125,-1.7206,-1.7395,-1.7435,-1.7448,-1.7502,-1.7502,-1.7502,-1.7502,-1.7502,-1.7502,-1.7502,-1.7502,-1.7528,-1.7582,-1.7582,-1.7582,-1.7582,-1.7582,-1.7582,-1.7582,-1.8103,-1.8413,-1.8536,-1.968,-2.0359,-2.0673,-2.1799,-2.2687,-2.3369,-2.3551,-2.3825,-2.4286,-2.5266,-2.6307,-2.738,-2.9009,-3.0546,-3.1827,-3.2166,-3.2294,-3.2294,0.0,0.0,0.0,0.0,0.0,0.0,0.0,0.0,0.0,0.0,-1.2915,0.0,0.0,0.0,0.0,0.0,0.0,0.0,0.0,0.0,0.0,-1.1348,-1.1478,-1.1304,-1.0798,-1.029,-0.9911,-0.9609,-1.0365,0.0,0.0,0.0,0.0,-1.3419,0.0,-1.184,-1.0433,-0.9924,-0.9512,-0.9163,-0.8817,-0.8816,-0.8997,-0.8629,-0.8553,-0.8633,-0.8633,-0.8685,-0.8804,-0.8804,-0.8804,0.0,0.0,0.0,-0.9217,-0.9217,-0.9217,-0.9351,0.0,0.0,0.0,0.0,0.0,0.0,0.0,0.0,0.0,0.0,-1.7058,-1.7166,-1.682,-1.6767,-1.6767,-1.6767,-1.6767,-1.678,-1.682,-1.682,-1.6914,-1.7233,-1.7259,-1.7259,-1.7259,-1.7259,-1.7259,-1.7259,-1.7259,-1.7367,-1.7569,-1.7582,-1.7582,-1.7582,-1.7582,-1.7582,-1.7582,-1.7675,-1.7995,-1.8536,-1.9403,-2.0019,-2.0385,-2.0759,-2.1482,-2.2407,-2.3233,-2.3978,-2.4564,-2.5297,-2.6213,-2.735,-2.8469,-2.9988,-3.1506,-3.1846,-3.1974,-3.1955,0.0,0.0,0.0,0.0,0.0,0.0,0.0,0.0,0.0,0.0,0.0,-1.2652,0.0,0.0,0.0,0.0,0.0,0.0,0.0,0.0,0.0,0.0,-1.0394,-1.0249,-0.994,-0.9647,-0.9431,-0.929,0.0,0.0,0.0,-1.2507,-1.3055,0.0,0.0,0.0,0.0,-0.9894,-0.9391,-0.8843,-0.8605,-0.8498,-0.8532,-0.8339,-0.8368,-0.8501,-0.8567,-0.8685,-0.8804,-0.8804,-0.8752,-0.8685,-0.8685,0.0,0.0,0.0,-0.8883,0.0,-1.0114,0.0,0.0,0.0,0.0,0.0,0.0,0.0,0.0,-1.6219,-1.6192,-1.6233,-1.6433,-1.646,-1.646,-1.646,-1.646,-1.6526,-1.6687,-1.67,-1.6754,-1.6887,-1.6901,-1.6901,-1.6901,-1.6901,-1.6901,-1.6901,-1.6901,-1.6954,-1.7088,-1.7088,-1.7168,-1.738,-1.7393,-1.7474,-1.7582,-1.7582,-1.7994,-1.8737,-1.9661,-2.0325,-2.0756,-2.1598,-2.2047,-2.2214,-2.2767,-2.3551,-2.4348,-2.5061,-2.5907,-2.6985,-2.822,-2.9789,-3.1365,-3.1511,-3.1705,-3.1809,0.0,0.0,0.0,0.0,0.0,0.0,0.0,0.0,0.0,0.0,0.0,0.0,0.0,0.0,0.0,0.0,0.0,0.0,0.0,0.0,0.0,0.0,0.0,-0.9406,-0.9316,-0.9159,-0.9106,0.0,0.0,0.0,-1.1279,-1.1854,-1.2416,0.0,-1.2221,-1.1376,0.0,0.0,0.0,0.0,0.0,-0.8275,0.0,0.0,0.0,-0.8402,-0.8497,0.0,0.0,0.0,0.0,0.0,-0.8501,-0.8395,0.0,0.0,0.0,0.0,0.0,0.0,0.0,0.0,0.0,0.0,0.0,0.0,0.0,0.0,-1.5391,-1.5418,-1.5906,-1.6053,-1.6046,-1.6046,-1.6112,-1.6233,-1.646,-1.6486,-1.6513,-1.658,-1.6593,-1.6593,-1.6593,-1.6593,-1.6593,-1.6593,-1.6593,-1.662,-1.67,-1.67,-1.6807,-1.7085,-1.7166,-1.73,-1.7527,-1.7699,-1.8206,-1.8992,-1.992,-2.0694,-2.139,-2.2457,-2.2902,-2.2793,-2.3225,-2.3894,-2.4745,-2.5513,-2.6371,-2.7339,-2.8403,-2.9879,-3.1271,-3.1402,-3.1626,-3.1742,0.0,0.0,0.0,0.0,0.0,0.0,0.0,0.0,0.0,0.0,0.0,0.0,0.0,-1.1494,-1.1167,-1.0777,0.0,0.0,0.0,0.0,0.0,0.0,0.0,0.0,-0.9015,-0.8883,-0.8831,0.0,0.0,0.0,-1.0658,-1.1216,-1.1645,-1.1948,-1.1778,-1.1302,-1.0564,0.0,0.0,0.0,0.0,0.0,0.0,0.0,0.0,0.0,0.0,0.0,0.0,0.0,0.0,0.0,0.0,0.0,0.0,0.0,0.0,0.0,0.0,0.0,0.0,0.0,0.0,0.0,0.0,0.0,0.0,0.0,-1.4803,-1.5035,-1.5075,-1.5303,-1.5444,-1.5444,-1.5671,-1.5811,-1.5824,-1.5872,-1.5979,-1.6259,-1.6348,-1.6348,-1.6348,-1.6348,-1.6348,-1.6348,-1.6348,-1.642,-1.6687,-1.67,-1.6714,-1.6727,-1.7058,-1.7206,-1.7219,-1.797,-1.8682,-1.9299,-2.0181,-2.1064,-2.1985,-2.2608,-2.3454,-2.4441,-2.535,-2.5956,-2.6347,-2.7407,-2.8275,-2.8893,-2.938,-3.0185,-3.1167,-3.1583,-3.1772,-3.1766,0.0,0.0,0.0,0.0,0.0,0.0,0.0,0.0,0.0,0.0,0.0,0.0,0.0,-1.0964,-1.0557,-1.0156,-0.9732,0.0,0.0,0.0,0.0,0.0,0.0,0.0,0.0,-0.8831,0.0,0.0,0.0,-1.0274,-1.06,-1.1156,-1.1583,-1.1886,-1.1424,-1.0994,-1.0559,-1.0127,0.0,0.0,0.0,0.0,0.0,0.0,0.0,0.0,0.0,0.0,0.0,0.0,0.0,0.0,0.0,0.0,0.0,0.0,0.0,0.0,0.0,0.0,0.0,0.0,0.0,0.0,0.0,0.0,-1.2746,-1.3039,-1.3333,-1.3695,-1.4041,-1.4669,-1.5124,-1.5124,-1.5204,-1.5271,-1.5271,-1.5271,-1.5378,-1.5671,-1.5712,-1.5712,-1.5712,-1.5712,-1.5712,-1.5712,-1.5712,-1.5832,-1.6126,-1.6139,-1.6233,-1.642,-1.6714,-1.7048,-1.7474,-1.8053,-1.8583,-1.8998,-2.0325,-2.1315,-2.2039,-2.3043,-2.3806,-2.449,-2.5709,-2.6306,-2.6508,-2.7347,-2.7832,-2.8094,-2.8697,-2.9294,-2.988,-3.0303,-3.0759,-3.1099,0.0,0.0,0.0,0.0,0.0,0.0,0.0,0.0,0.0,0.0,0.0,0.0,0.0,0.0,-1.0316,-0.9801,-0.9418,-0.9111,-0.8936,-0.8936,0.0,0.0,0.0,0.0,0.0,0.0,0.0,0.0,0.0,0.0,0.0,-1.0862,-1.1236,-1.1444,-1.1055,-1.0827,0.0,0.0,0.0,-0.9154,0.0,0.0,-0.8384,0.0,0.0,0.0,0.0,0.0,0.0,0.0,0.0,0.0,0.0,0.0,0.0,0.0,0.0,0.0,0.0,0.0,0.0,0.0,0.0,0.0,0.0,0.0,-1.1578,-1.1931,-1.2318,-1.2784,-1.3253,-1.3908,-1.4469,-1.4763,-1.4941,-1.5008,-1.5008,-1.5008,-1.5075,-1.5231,-1.5257,-1.5257,-1.5257,-1.5257,-1.5257,-1.5257,-1.5337,0.0,-1.5671,-1.5731,-1.6005,-1.6406,-1.6607,-1.6981,-1.7569,-1.8055,-1.8422,-1.867,-1.9897,-2.0817,-2.1408,-2.2419,-2.3102,-2.3533,-2.4654,-2.5635,-2.6513,-2.7372,-2.7684,-2.7684,-2.8164,-2.8505,-2.8792,-2.9187,-2.9725,-3.0185,0.0,0.0,0.0,0.0,0.0,0.0,0.0,0.0,0.0,-1.0528,0.0,0.0,0.0,0.0,0.0,-0.977,-0.9411,-0.9111,-0.8844,-0.8831,0.0,0.0,0.0,0.0,0.0,0.0,0.0,0.0,0.0,0.0,0.0,0.0,-1.0586,-1.0586,-1.0586,-1.0747,-1.0942,0.0,-1.0036,-0.9858,0.0,-0.9191,-0.8986,0.0,0.0,0.0,-0.9121,-0.8865,0.0,-0.8483,0.0,0.0,0.0,0.0,0.0,0.0,0.0,0.0,0.0,0.0,0.0,0.0,0.0,0.0,-0.9593,0.0,-1.072,-1.1229,-1.185,-1.2358,-1.269,-1.2998,-1.3454,-1.4322,-1.4723,-1.4955,-1.4968,-1.4968,-1.4981,-1.4995,-1.4995,-1.4995,-1.4995,-1.4995,-1.4995,-1.4995,-1.5217,-1.5391,-1.5391,-1.5671,-1.6099,-1.6673,-1.67,-1.6981,-1.7569,-1.7845,-1.8122,-1.8422,-1.9011,-1.959,-2.0204,-2.0779,-2.1261,-2.1612,-2.2284,-2.3995,-2.6383,-2.741,-2.7907,-2.7847,-2.7847,-2.7847,-2.79,-2.8349,-2.8738,-2.9145,0.0,0.0,0.0,0.0,0.0,0.0,0.0,0.0,0.0,0.0,0.0,0.0,-1.1621,-1.1025,-1.0434,-0.9895,-0.9667,-0.9526,-0.9446,-0.9446,-0.9446,-0.9446,-0.9446,0.0,0.0,0.0,0.0,0.0,0.0,0.0,0.0,0.0,0.0,0.0,-1.0586,-1.064,-1.0707,-1.0533,0.0,0.0,-0.9793,-0.9646,0.0,0.0,0.0,0.0,0.0,-0.9938,-0.9558,0.0,-0.8365,-0.7336,0.0,0.0,0.0,0.0,0.0,0.0,-0.8421,0.0,0.0,0.0,0.0,0.0,-0.9031,-0.9499,-0.9997,-1.014,-1.0795,-1.145,-1.1744,-1.2037,-1.2489,-1.3172,-1.3494,-1.3774,-1.3975,-1.4015,-1.4162,-1.4589,-1.4643,-1.4643,-1.4643,-1.4643,-1.4643,0.0,-1.4923,-1.5223,-1.5391,-1.5826,-1.6341,-1.6918,-1.6941,-1.7154,-1.752,-1.7855,-1.8016,-1.8122,-1.8684,-1.9156,-1.9633,-2.0185,-2.0619,-2.1,-2.1667,-2.2479,-2.3345,-2.4364,-2.4939,-2.5178,-2.5178,-2.5178,-2.521,-2.564,-2.6307,-2.7046,0.0,0.0,0.0,0.0,0.0,0.0,0.0,0.0,0.0,0.0,0.0,0.0,-1.2346,-1.1768,-1.1157,-1.0632,-1.0265,-1.0023,-0.9873,-0.9753,-0.9715,-0.9715,-0.9715,-0.9715,-0.9715,0.0,0.0,-0.9715,-0.998,-1.0083,-1.0127,0.0,0.0,0.0,0.0,0.0,0.0,0.0,0.0,0.0,-1.0177,0.0,0.0,-1.0203,-1.0328,0.0,0.0,0.0,-1.0009,-0.9678,-0.8721,0.0,0.0,0.0,0.0,0.0,0.0,0.0,0.0,0.0,0.0,0.0,0.0,0.0,-0.8804,-0.9165,-0.9526,0.0,-1.0194,-1.0755,-1.1169,-1.1383,-1.1698,-1.2154,-1.2345,-1.2667,-1.3333,-1.3427,-1.36,-1.4053,-1.4106,-1.4159,-1.4322,-1.4335,-1.4335,-1.4335,-1.4616,-1.5008,-1.5516,-1.6107,-1.6538,-1.6988,-1.7062,-1.7214,-1.7514,-1.771,-1.7859,-1.7859,-1.816,-1.8401,-1.8649,-1.9219,-1.9624,-1.9822,-2.0443,-2.0953,-2.137,-2.2091,-2.2926,-2.3713,-2.3837,-2.3899,-2.3929,-2.4439,-2.5046,-2.5579,0.0,0.0,0.0,0.0,0.0,0.0,0.0,0.0,0.0,0.0,-1.2912,-1.3055,-1.314,-1.2767,-1.2241,-1.1624,-1.1035,-1.0573,-1.0243,-1.002,-0.9873,-0.9873,-0.9846,-0.9863,-0.9863,-0.9822,-0.9809,-0.9809,-1.0033,-1.0167,-1.0167,0.0,0.0,0.0,0.0,0.0,0.0,0.0,0.0,-1.064,-1.064,-1.068,0.0,0.0,-1.0908,-1.1055,-1.1501,-1.1095,-1.0278,-1.0086,-0.8937,0.0,0.0,0.0,0.0,0.0,-0.8275,0.0,0.0,0.0,0.0,0.0,0.0,0.0,-0.8818,-0.9004,-0.9284,-0.9579,-0.9873,-1.0221,-1.0755,-1.0848,-1.0942,-1.1202,-1.1282,-1.1744,-1.2946,-1.3106,-1.3187,-1.352,-1.356,-1.3653,-1.3961,-1.4015,-1.4041,-1.4041,-1.4362,-1.4994,-1.5837,-1.6374,-1.6809,-1.7077,-1.7133,-1.7301,-1.751,-1.7578,-1.7582,-1.7582,-1.7582,-1.7635,-1.7661,-1.8238,-1.8574,-1.8684,-1.925,-1.9843,-2.0465,-2.0768,-2.1713,-2.2999,-2.334,-2.3542,-2.3666,-2.4301,-2.4579,-2.4728,-1.2386,0.0,0.0,0.0,0.0,0.0,0.0,0.0,0.0,0.0,-1.3801,-1.3558,0.0,0.0,0.0,-1.1933,-1.1492,-1.1236,-1.1136,-1.1082,-1.1089,-1.1089,-1.0862,-1.0742,-1.0742,-1.0533,-1.0425,-1.0425,-1.0479,-1.0506,-1.0506,-1.0559,0.0,0.0,0.0,0.0,0.0,0.0,0.0,-1.0915,-1.0915,0.0,-1.165,-1.1716,-1.1907,-1.2207,-1.2579,-1.2308,-1.1627,-1.0396,-0.9297,-0.8405,0.0,0.0,0.0,0.0,0.0,0.0,0.0,0.0,0.0,0.0,0.0,0.0,-0.8858,-0.9004,-0.9231,0.0,-0.9566,-0.9806,-0.9943,-0.997,-1.0033,-1.0327,-1.0568,-1.1176,-1.2318,-1.2478,-1.2679,-1.3187,-1.3293,-1.332,-1.3373,-1.3547,-1.3693,-1.3693,-1.4602,-1.5511,-1.6296,-1.6886,-1.7276,-1.7537,-1.7609,-1.759,-1.7496,-1.7574,-1.7582,-1.7582,-1.7582,-1.7687,-1.7925,-1.8346,-1.8905,-1.958,-1.9892,-2.0544,-2.1379,-2.2008,-2.2238,-2.2309,-2.263,-2.3106,-2.3604,-2.3728,-2.4314,-2.5014,-1.2583,0.0,0.0,0.0,0.0,0.0,0.0,0.0,0.0,0.0,-1.4636,0.0,0.0,0.0,0.0,0.0,0.0,0.0,0.0,0.0,-1.1389,-1.1389,-1.1289,-1.1209,-1.1209,-1.1062,-1.0915,-1.0814,-1.0814,-1.0814,-1.0801,-1.0667,0.0,0.0,0.0,0.0,0.0,0.0,-1.0841,-1.1196,-1.1049,0.0,-1.194,-1.2075,-1.2342,-1.271,-1.2988,-1.2699,-1.2018,-1.0705,-1.0043,0.0,0.0,-0.906,-0.9193,0.0,-0.9528,-0.9628,0.0,0.0,0.0,-0.9499,0.0,0.0,0.0,-0.9111,-0.9217,-0.9217,-0.9324,-0.9512,-0.9659,-0.9566,-0.9552,-0.9846,-1.0154,-1.0626,-1.1363,-1.1677,-1.2037,-1.2492,-1.2665,-1.2812,-1.2959,-1.3253,-1.3453,-1.3586,-1.4514,-1.5355,-1.6055,-1.6747,-1.7211,-1.7481,-1.7423,-1.7443,-1.7498,-1.7449,-1.7553,-1.7806,-1.7806,-1.8003,-1.8436,-1.8865,-1.9539,-2.0277,-2.0656,-2.1294,-2.2073,-2.282,-2.3184,-2.3323,-2.3702,-2.4023,-2.4394,-2.5071,-2.5429,-2.5638,-1.2675,0.0,0.0,0.0,0.0,0.0,0.0,0.0,0.0,0.0,0.0,0.0,0.0,0.0,0.0,0.0,0.0,0.0,0.0,0.0,0.0,0.0,-1.157,-1.153,-1.1562,-1.1455,-1.1282,-1.1076,-1.1076,-1.1076,-1.1076,-1.0868,0.0,0.0,0.0,0.0,0.0,0.0,0.0,-1.149,0.0,-1.153,-1.202,-1.2211,-1.2559,-1.2985,-1.3133,-1.2778,-1.2094,-1.1075,-1.0761,-1.0727,-1.0192,-1.012,0.0,0.0,0.0,0.0,0.0,0.0,0.0,0.0,0.0,-0.9351,0.0,0.0,0.0,-0.9138,-0.9124,0.0,0.0,0.0,0.0,0.0,0.0,0.0,0.0,-1.0755,0.0,-1.1765,-1.1984,-1.2251,-1.2583,-1.2852,-1.316,-1.3413,-1.42,-1.4923,-1.5502,-1.64,-1.702,-1.727,-1.7141,-1.719,-1.7498,-1.7313,-1.7457,-1.8016,-1.8016,-1.8318,-1.8893,-1.943,-2.0178,-2.0985,-2.1478,-2.2054,-2.2755,-2.3441,-2.405,-2.459,-2.5,-2.5272,-2.5501,-2.6537,-2.6675,-2.6377,-1.2429,-1.3118,0.0,0.0,0.0,0.0,0.0,0.0,0.0,0.0,0.0,0.0,0.0,0.0,0.0,0.0,0.0,0.0,-1.2717,0.0,0.0,0.0,0.0,0.0,-1.2198,-1.1655,-1.1375,-1.1335,-1.1335,-1.1335,-1.1335,-1.1309,0.0,0.0,-1.1309,0.0,0.0,0.0,-1.1792,0.0,-1.2064,-1.2198,0.0,-1.2291,-1.2812,-1.3467,-1.3293,-1.287,-1.2374,0.0,-1.1208,-1.0915,0.0,-1.1092,-1.1057,0.0,0.0,0.0,0.0,0.0,0.0,0.0,-1.0047,0.0,0.0,0.0,-0.9138,-0.8884,0.0,0.0,0.0,0.0,0.0,0.0,0.0,0.0,-0.9364,-0.9673,-1.0274,-1.1322,-1.1469,-1.1637,-1.198,-1.2238,-1.2532,-1.2864,-1.364,-1.4322,-1.4787,-1.6126,-1.7008,-1.7189,-1.7326,-1.74,-1.7498,-1.7313,-1.7457,-1.8016,-1.8016,-1.8436,-1.9272,-1.9561,-2.0498,-2.185,-2.2151,-2.2715,-2.3448,-2.4122,-2.4465,-2.4665,-2.5258,-2.59,-2.6449,-2.6571,-2.6813,-2.6942,-1.2382,-1.3236,0.0,0.0,0.0,0.0,0.0,0.0,0.0,0.0,0.0,0.0,0.0,0.0,0.0,0.0,0.0,-1.3975,0.0,0.0,0.0,0.0,0.0,0.0,0.0,0.0,0.0,0.0,-1.169,-1.169,-1.1677,0.0,0.0,0.0,-1.1503,0.0,-1.1931,0.0,-1.21,0.0,0.0,0.0,0.0,-1.2596,-1.2906,-1.3333,-1.3253,-1.2867,-1.2379,0.0,-1.2038,0.0,0.0,0.0,0.0,0.0,0.0,0.0,0.0,0.0,0.0,0.0,0.0,0.0,-0.9777,0.0,-0.9459,0.0,0.0,0.0,0.0,0.0,0.0,0.0,-0.9031,0.0,0.0,0.0,-0.986,0.0,0.0,0.0,-1.1316,-1.1476,-1.173,-1.2234,-1.289,-1.3563,-1.4251,-1.5319,-1.6106,-1.6569,-1.6655,-1.6877,-1.7263,-1.7035,-1.7333,-1.8213,-1.8213,-1.8788,-1.9776,-2.005,-2.094,-2.2226,-2.2333,-2.2792,-2.3505,-2.3673,-2.3725,-2.3758,-2.4259,-2.5339,-2.6631,-2.6978,-2.7116,-2.6969,0.0,0.0,0.0,0.0,0.0,0.0,0.0,0.0,0.0,0.0,0.0,0.0,-1.5368,-1.5281,0.0,0.0,-1.5124,-1.4897,0.0,0.0,-1.3654,0.0,0.0,0.0,0.0,0.0,0.0,0.0,-1.2141,-1.21,-1.1984,0.0,0.0,0.0,0.0,-1.1904,-1.2291,0.0,-1.2395,-1.277,-1.2599,-1.2679,-1.2918,-1.2998,-1.3133,-1.3333,-1.3333,-1.2999,-1.2572,-1.2744,-1.2636,0.0,-1.2824,0.0,0.0,0.0,0.0,0.0,-1.1655,0.0,0.0,0.0,0.0,0.0,0.0,0.0,0.0,0.0,0.0,0.0,0.0,0.0,0.0,0.0,0.0,-0.9098,0.0,0.0,0.0,0.0,0.0,0.0,0.0,-1.0822,-1.1082,-1.1511,-1.2109,-1.2777,-1.3459,-1.4476,-1.5271,-1.5847,-1.5989,-1.643,-1.7114,-1.6814,-1.7262,-1.8265,-1.8265,-1.8788,-1.9761,-2.005,-2.0773,-2.1798,-2.1963,-2.2362,-2.2839,-2.2715,-2.2671,-2.2767,-2.3095,-2.4127,-2.5631,-2.6321,-2.6415,-2.6189,-1.217,-1.2819,0.0,0.0,0.0,0.0,0.0,0.0,0.0,0.0,0.0,0.0,0.0,0.0,0.0,0.0,0.0,-1.6152,-1.5062,0.0,-1.4776,0.0,0.0,-1.3693,0.0,0.0,0.0,0.0,0.0,0.0,0.0,0.0,0.0,0.0,0.0,-1.2278,-1.2318,-1.2636,-1.277,-1.2811,-1.3066,-1.3186,-1.3227,0.0,-1.3586,-1.3586,-1.3586,0.0,0.0,-1.2878,-1.277,0.0,0.0,0.0,0.0,0.0,0.0,0.0,0.0,0.0,0.0,-1.149,0.0,0.0,0.0,0.0,-1.0479,0.0,0.0,0.0,0.0,0.0,0.0,0.0,0.0,0.0,0.0,0.0,0.0,0.0,0.0,0.0,0.0,-1.0439,-1.0613,-1.0626,-1.143,-1.1997,-1.2252,-1.3691,-1.4739,-1.5217,-1.5607,-1.6224,-1.7114,-1.6814,-1.716,-1.8016,-1.8016,-1.8318,-1.8826,-1.9205,-1.971,-2.0287,-2.0887,-2.1182,-2.1294,-2.1553,-2.171,-2.1745,-2.2023,-2.242,-2.2926,-2.3901,-2.4193,-2.4131,0.0,0.0,0.0,0.0,0.0,0.0,0.0,-1.607,0.0,0.0,0.0,0.0,0.0,-1.7382,-1.7475,0.0,0.0,-1.7034,-1.6496,-1.5732,0.0,0.0,0.0,-1.3653,0.0,0.0,0.0,0.0,0.0,0.0,0.0,0.0,0.0,0.0,0.0,-1.2532,0.0,0.0,0.0,0.0,0.0,-1.3453,-1.3467,0.0,-1.36,-1.36,-1.36,-1.3413,0.0,-1.3307,-1.3213,-1.3146,-1.3641,-1.3654,-1.3453,-1.3453,-1.328,0.0,0.0,0.0,-1.2131,-1.2037,0.0,0.0,0.0,0.0,0.0,0.0,0.0,0.0,0.0,0.0,0.0,0.0,0.0,0.0,0.0,0.0,0.0,0.0,0.0,0.0,0.0,0.0,0.0,-1.0234,-1.076,-1.1411,-1.2227,-1.313,-1.4074,-1.5042,-1.5372,-1.5961,-1.685,-1.6764,-1.716,-1.8016,-1.8016,-1.8265,-1.8826,-1.8945,-1.9313,-1.9953,-2.0131,-2.0398,-2.0608,-2.0473,-2.0442,-2.048,-2.0745,-2.0948,-2.1221,-2.2839,-2.3402,-2.3476,-1.3013,0.0,0.0,0.0,0.0,0.0,0.0,0.0,0.0,0.0,-1.7604,0.0,-1.8358,0.0,-1.845,0.0,-1.8397,-1.8104,-1.7702,-1.6714,0.0,-1.6019,-1.499,0.0,0.0,0.0,0.0,0.0,0.0,-1.3213,0.0,0.0,0.0,0.0,0.0,-1.2786,-1.3026,0.0,-1.3026,0.0,0.0,-1.3853,0.0,0.0,-1.388,-1.3613,0.0,-1.3681,-1.3547,-1.3734,-1.3681,-1.3601,-1.4095,-1.4108,-1.3906,-1.3906,-1.3786,-1.3654,-1.3547,-1.316,0.0,-1.2652,-1.2265,0.0,-1.1891,0.0,0.0,0.0,0.0,0.0,0.0,0.0,0.0,0.0,0.0,0.0,0.0,-0.9232,0.0,0.0,0.0,0.0,0.0,0.0,-0.9524,-0.994,-1.0466,-1.1089,0.0,-1.2559,-1.3387,-1.4456,-1.4776,-1.5458,-1.654,-1.6553,-1.7002,-1.7859,-1.7859,-1.8055,-1.8356,-1.8356,-1.8626,-1.9049,-1.9219,-1.9458,-1.9682,-1.9644,-1.9649,-1.9703,-2.006,-2.0167,-2.0368,-2.1818,-2.2418,-2.2454,0.0,0.0,0.0,0.0,-1.4213,0.0,0.0,0.0,-1.7566,0.0,-1.8619,-1.9459,-1.9819,-1.9826,-1.9826,-1.9826,-1.9546,-1.9189,-1.8571,-1.7956,0.0,0.0,-1.6339,-1.5811,-1.5784,0.0,0.0,0.0,0.0,0.0,0.0,0.0,0.0,0.0,-1.3213,0.0,-1.2824,-1.2797,-1.2958,-1.328,-1.4148,-1.4335,-1.4148,-1.4767,-1.4416,-1.368,-1.4028,-1.4122,-1.4108,-1.4122,-1.4135,-1.4175,-1.4456,-1.4536,-1.4536,-1.4536,-1.4536,-1.4482,-1.4188,-1.3895,-1.356,-1.3307,-1.3038,0.0,0.0,0.0,-1.2811,0.0,0.0,0.0,0.0,0.0,0.0,0.0,0.0,0.0,0.0,0.0,0.0,0.0,0.0,0.0,0.0,-0.9339,-0.9702,-0.9729,-1.0474,0.0,0.0,-1.1971,-1.2705,-1.36,-1.3948,-1.4803,-1.6308,-1.6286,-1.6727,-1.7582,-1.7582,-1.7582,-1.7582,-1.7582,-1.7595,-1.7635,-1.8237,-1.8504,-1.8557,-1.9189,-1.943,-1.9452,-2.0013,-2.0193,-2.0286,-2.0909,-2.1122,-2.1216,-1.3868,-1.4269,-1.4553,0.0,-1.4759,-1.5149,0.0,0.0,0.0,0.0,-1.9562,-2.006,-2.008,-2.012,-2.012,-2.012,-1.9653,0.0,0.0,0.0,0.0,-1.7488,-1.6834,-1.6273,-1.5798,-1.5404,0.0,-1.478,0.0,0.0,-1.3854,0.0,0.0,0.0,0.0,0.0,-1.3387,-1.2971,-1.2958,-1.3267,-1.3935,-1.4148,-1.4122,0.0,-1.4496,-1.4292,-1.4629,-1.4603,-1.4442,-1.4669,-1.478,-1.4794,-1.4874,-1.4843,-1.4843,-1.4843,-1.4843,-1.479,-1.4482,-1.4188,-1.3908,-1.356,-1.3307,-1.3093,0.0,0.0,0.0,0.0,0.0,0.0,0.0,0.0,0.0,0.0,0.0,0.0,0.0,0.0,0.0,-0.9579,0.0,0.0,0.0,-0.9244,-0.9511,-0.9967,-1.0221,0.0,0.0,0.0,-1.2599,-1.3935,-1.4255,-1.5003,-1.6308,-1.6486,-1.6927,-1.7582,-1.7582,-1.7582,-1.7582,-1.7582,-1.7702,-1.7889,-1.833,-1.8611,-1.8838,-1.9212,-1.9492,-1.972,-2.0094,-2.0494,-2.0895,-2.1056,-2.1256,-2.1496,-1.4376,0.0,0.0,-1.5297,0.0,0.0,-1.6448,-1.75,0.0,-1.9283,-1.9861,0.0,-2.0575,-2.0615,-2.0615,-2.0615,-2.0201,0.0,-1.976,0.0,0.0,-1.8183,-1.7475,-1.6874,-1.642,-1.5872,0.0,-1.515,0.0,0.0,-1.4269,0.0,0.0,0.0,0.0,-1.3614,0.0,-1.328,-1.324,-1.3427,-1.4175,-1.4469,0.0,-1.4937,-1.5017,-1.4937,-1.5231,-1.507,-1.4736,-1.4955,-1.5008,-1.5035,-1.5156,-1.515,-1.515,-1.515,-1.515,-1.5084,-1.479,-1.4589,-1.4429,-1.4269,-1.4001,-1.3788,-1.3788,-1.3681,-1.3641,0.0,-1.3227,-1.2692,0.0,0.0,0.0,0.0,0.0,0.0,0.0,0.0,0.0,0.0,-1.01,0.0,-0.963,-0.959,-0.9724,-1.0057,-1.0234,0.0,0.0,0.0,-1.2543,-1.4131,-1.4345,-1.503,-1.6217,-1.6429,-1.674,-1.7208,-1.738,-1.7447,-1.7447,-1.7528,-1.7756,-1.8009,-1.8357,-1.8651,-1.8958,-1.9386,-1.9653,-1.984,-2.0267,-2.0708,-2.1122,-2.1256,-2.1403,-2.1681,0.0,0.0,0.0,0.0,0.0,0.0,0.0,-1.7528,0.0,-1.9426,0.0,-2.0494,-2.1056,-2.1109,-2.1109,-2.1109,0.0,-2.0548,-2.0193,-1.972,-1.9279,-1.8945,-1.8143,-1.7581,-1.7206,-1.6353,0.0,0.0,0.0,-1.4576,-1.4576,0.0,0.0,0.0,0.0,0.0,0.0,-1.368,-1.372,-1.38,-1.4723,-1.5142,-1.5236,-1.5738,-1.5765,-1.5551,-1.5792,-1.5511,-1.5075,-1.5115,-1.5115,-1.5169,-1.5378,-1.5458,-1.5458,-1.5458,-1.5458,-1.5391,-1.5142,-1.5062,-1.5062,-1.5022,-1.4763,-1.4576,-1.4576,-1.4349,-1.4148,-1.4148,-1.3641,-1.3213,0.0,0.0,0.0,0.0,0.0,0.0,0.0,0.0,0.0,0.0,0.0,0.0,0.0,0.0,0.0,0.0,0.0,0.0,0.0,0.0,-1.2502,-1.4237,-1.4379,-1.5004,-1.6211,-1.6311,-1.646,-1.6714,-1.7058,-1.7206,-1.7206,-1.7488,-1.7809,-1.8062,-1.8424,-1.8731,-1.9078,-1.9586,-1.984,-1.9973,-2.0521,-2.0909,-2.1203,-2.1496,-2.1695,-2.1802,0.0,0.0,0.0,0.0,0.0,-1.7902,-1.8397,-1.8838,-1.9452,-2.0334,-2.0535,-2.0735,-2.1069,-2.1109,-2.1109,-2.1109,-2.0842,0.0,0.0,0.0,0.0,-1.8945,-1.8544,-1.7956,-1.7219,-1.6754,-1.6286,0.0,-1.5177,-1.4928,-1.4914,-1.4335,0.0,0.0,0.0,0.0,-1.364,-1.4119,0.0,-1.4399,-1.5278,-1.5832,-1.6134,-1.642,-1.6366,-1.6126,-1.6179,-1.5818,-1.5351,-1.5605,-1.5671,-1.5685,-1.5738,-1.5752,-1.5752,-1.5752,-1.5752,-1.5685,-1.5404,-1.5324,-1.5257,-1.5075,-1.4968,-1.4928,-1.4928,-1.4656,-1.4442,-1.4442,-1.3788,-1.3213,-1.3213,0.0,0.0,0.0,0.0,0.0,0.0,0.0,0.0,0.0,0.0,-1.1806,0.0,0.0,0.0,0.0,0.0,0.0,0.0,0.0,-1.2502,0.0,-1.4585,0.0,0.0,0.0,-1.666,-1.6714,-1.7058,-1.7206,-1.7219,-1.7716,-1.813,-1.8424,-1.8718,-1.9145,-1.9653,-1.976,-2.008,-2.0561,-2.0895,-2.1216,-2.1574,-2.1804,-2.2058,-2.2285,0.0,0.0,0.0,0.0,0.0,0.0,0.0,-2.0214,-2.0663,-2.0869,-2.0775,-2.0788,-2.1082,-2.1109,-2.1109,-2.1109,-2.0989,-2.0775,-2.0481,-2.0187,-1.9826,-1.9399,-1.8811,0.0,-1.7622,-1.7021,-1.65,-1.6059,-1.5631,-1.5337,-1.5177,-1.5057,0.0,0.0,0.0,-1.4322,0.0,0.0,0.0,-1.5471,-1.5885,-1.6233,-1.6513,-1.6647,-1.662,-1.65,-1.65,-1.6313,-1.6046,-1.5838,-1.5784,-1.5784,-1.5784,-1.5784,-1.5784,-1.5784,-1.5784,-1.5758,-1.5658,-1.5618,-1.5591,-1.5444,-1.5297,-1.519,-1.519,-1.4963,-1.471,-1.4549,-1.4188,-1.3801,-1.3453,-1.316,0.0,0.0,0.0,0.0,0.0,0.0,0.0,0.0,0.0,0.0,0.0,0.0,0.0,0.0,0.0,0.0,0.0,0.0,-1.2887,0.0,0.0,0.0,-1.6339,0.0,-1.67,-1.6714,-1.7058,-1.7286,-1.7447,-1.7836,-1.8235,-1.8731,-1.9025,-1.9399,-1.9826,-2.0134,-2.0508,-2.0935,-2.1229,-2.1494,-2.1668,-2.2044,-2.2298,-2.2445,0.0,-1.7541,0.0,0.0,-1.8865,0.0,-2.0708,-2.1373,-2.1537,-2.1243,-2.1002,-2.0922,-2.1096,-2.1109,-2.1109,-2.1109,-2.1109,-2.0989,-2.0695,-2.0454,-2.0174,-1.9813,-1.9078,-1.8477,-1.7995,-1.7288,-1.6714,0.0,-1.6072,-1.5778,-1.5498,-1.5725,0.0,0.0,0.0,0.0,0.0,0.0,-1.5718,-1.6366,-1.6482,-1.6633,-1.6887,-1.6887,-1.6847,-1.6807,-1.6807,-1.6767,-1.6633,-1.6166,-1.5971,-1.5971,-1.5971,-1.5971,-1.5971,-1.5971,-1.5965,-1.5925,-1.5925,-1.5824,-1.5784,-1.5784,-1.5658,-1.5484,-1.5484,-1.5257,-1.499,-1.475,-1.4603,-1.4362,-1.3786,-1.3693,0.0,0.0,0.0,0.0,0.0,0.0,0.0,0.0,0.0,0.0,-1.2248,0.0,0.0,0.0,0.0,0.0,-1.2382,0.0,0.0,0.0,0.0,-1.5542,-1.6433,0.0,-1.67,-1.6714,-1.7125,-1.742,-1.7595,-1.8036,-1.8435,-1.8945,-1.9305,-1.9666,-2.0027,-2.0548,-2.0909,-2.1136,-2.1443,-2.1655,-2.171,-2.2231,-2.2458,-2.2552,0.0,0.0,0.0,0.0,0.0,-2.0722,-2.144,-2.1737,-2.1844,-2.1614,-2.1547,-2.1376,-2.1136,-2.1109,-2.1109,-2.1109,-2.1109,-2.0989,-2.0695,-2.0655,-2.0388,-1.9826,-1.9466,-1.8891,-1.8009,-1.7689,-1.7221,0.0,-1.638,-1.6086,-1.5744,-1.5771,0.0,0.0,0.0,0.0,0.0,-1.6032,-1.6353,-1.6687,-1.7005,-1.73,-1.7502,-1.7502,-1.7341,-1.7166,-1.7166,-1.6941,-1.67,-1.6647,-1.662,-1.662,-1.662,-1.662,-1.662,-1.662,-1.6433,-1.6233,-1.6233,-1.6032,-1.5784,-1.5784,-1.5758,-1.5744,-1.5744,-1.5565,-1.5351,-1.5324,-1.4897,-1.4429,-1.4108,-1.4041,-1.4015,0.0,0.0,0.0,0.0,0.0,0.0,0.0,0.0,0.0,0.0,-1.2864,-1.2703,0.0,-1.1864,0.0,0.0,0.0,0.0,-1.4332,-1.4902,-1.5536,-1.6211,-1.6567,-1.67,-1.6714,-1.7275,-1.7555,-1.7609,-1.845,-1.8878,-1.8958,-1.9519,-2.008,-2.0615,-2.0935,-2.1082,-2.1136,-2.1443,-2.1775,-2.1977,-2.2298,-2.2592,-2.2887,0.0,0.0,0.0,0.0,0.0,0.0,0.0,-2.2325,-2.2405,-2.2111,-2.1924,-2.1764,-2.1643,-2.1483,-2.1376,-2.1376,-2.1216,-2.1056,-2.0949,-2.0775,-2.0575,-2.0334,-1.9765,-1.9199,-1.8851,-1.8009,-1.7462,0.0,0.0,0.0,0.0,-1.646,0.0,0.0,0.0,-1.6192,-1.6366,-1.6486,-1.6807,-1.7248,-1.7407,-1.7475,-1.7582,-1.7582,-1.7515,-1.746,-1.746,-1.7328,-1.7235,-1.7235,-1.6994,-1.67,-1.67,-1.67,-1.67,-1.67,-1.662,-1.6526,-1.6526,-1.6313,-1.6099,-1.6099,-1.5965,-1.5784,-1.5784,-1.5738,-1.5605,-1.5431,-1.507,-1.4696,-1.4402,-1.4349,-1.4229,-1.3881,0.0,0.0,0.0,0.0,0.0,0.0,0.0,0.0,0.0,-1.2851,-1.2717,-1.2529,0.0,0.0,0.0,0.0,0.0,-1.3985,0.0,-1.5386,-1.6163,-1.6518,-1.6981,-1.7463,-1.7689,-1.805,-1.8397,-1.8758,-1.9212,-1.9674,-2.0147,-2.0561,-2.0949,-2.1069,-2.1109,-2.1162,-2.163,-2.1884,-2.2044,-2.2512,-2.2752,-2.2928,-2.1056,0.0,-2.1149,0.0,-2.167,-2.1977,-2.2472,-2.2726,-2.2792,-2.2579,-2.2365,-2.2178,-2.2004,-2.1804,-2.1748,-2.1748,-2.1416,-2.1243,-2.1243,-2.0962,-2.0762,-2.0681,-2.0,0.0,-1.943,-1.845,-1.7889,-1.7716,-1.7515,0.0,0.0,0.0,0.0,0.0,-1.666,-1.6767,-1.6967,-1.6967,-1.7208,-1.7582,-1.7582,-1.7582,-1.7582,-1.7582,-1.7582,-1.7582,-1.7582,-1.7582,-1.7582,-1.7582,-1.7315,-1.6967,-1.6967,-1.6967,-1.6967,-1.6967,-1.6901,-1.6834,-1.6834,-1.662,-1.6393,-1.6393,-1.6246,-1.6059,-1.5979,-1.5965,-1.5858,-1.5471,-1.5231,-1.5003,-1.471,-1.4656,-1.4509,-1.4095,0.0,0.0,0.0,0.0,0.0,0.0,-1.3414,-1.324,-1.2703,-1.273,-1.269,0.0,0.0,0.0,0.0,0.0,0.0,0.0,0.0,0.0,-1.6069,-1.6599,-1.7194,-1.7916,-1.8129,-1.8462,-1.8931,-1.9105,-1.9613,-2.0374,-2.0588,-2.0842,-2.1109,-2.1109,-2.1109,-2.1162,-2.175,-2.1991,-2.2058,-2.2645,-2.2928,-2.2928,-2.1964,-2.1964,-2.2058,-2.2352,-2.2405,-2.2512,-2.2806,-2.2928,-2.2928,-2.2859,-2.2928,-2.2632,-2.2044,-2.1977,-2.1977,-2.1977,-2.1775,-2.1614,-2.1614,-2.1269,-2.0975,0.0,0.0,-1.996,-1.943,-1.9065,-1.8568,-1.7982,0.0,0.0,-1.7192,0.0,-1.7353,-1.7569,-1.7569,-1.7569,-1.7569,-1.7569,-1.7569,-1.7582,-1.7582,-1.7582,-1.7582,-1.7582,-1.7582,-1.7582,-1.7582,-1.7582,-1.7582,-1.7582,-1.7582,-1.7569,-1.7569,-1.7569,-1.7569,-1.7569,-1.742,-1.7192,-1.7192,-1.6927,-1.67,-1.67,-1.67,-1.662,-1.6339,-1.6273,-1.6099,-1.5511,-1.5391,-1.5297,-1.5062,-1.5008,-1.4995,-1.4995,0.0,0.0,0.0,0.0,0.0,0.0,-1.3895,-1.3614,-1.2425,-1.261,0.0,0.0,0.0,0.0,0.0,0.0,0.0,-1.4055,-1.47,0.0,-1.5818,-1.675,-1.734,-1.7595,-1.849,-1.8918,-1.8945,-1.9533,-2.0107,-2.0668,-2.0681,-2.0842,-2.1109,-2.1109,-2.1109,-2.1162,-2.175,-2.1991,-2.2058,-2.2645,-2.2928,-2.2928,-2.2539,-2.2579,-2.2619,-2.2699,-2.2726,-2.2752,-2.2846,-2.2928,-2.2928,-2.2928,-2.2928,-2.2861,-2.2605,-2.2405,-2.2285,0.0,-2.2017,-2.1829,0.0,-2.1534,-2.1283,-2.0989,-2.0695,-2.0454,-2.0267,-1.9586,-1.9132,-1.8945,0.0,0.0,0.0,-1.73,-1.7246,-1.7353,-1.7502,-1.7582,-1.7582,-1.7582,-1.7582,-1.7582,-1.7582,-1.7582,-1.7582,-1.7582,-1.7582,-1.7582,-1.7582,-1.7582,-1.7582,-1.7582,-1.7582,-1.7582,-1.7582,-1.7582,-1.7582,-1.7582,-1.7515,-1.7448,-1.7448,-1.7286,-1.7058,-1.7058,-1.686,-1.6687,-1.6593,-1.642,-1.6268,-1.6032,-1.5832,-1.5605,-1.5311,-1.5257,-1.519,-1.5035,-1.5124,0.0,0.0,0.0,0.0,0.0,-1.4028,-1.3854,-1.324,-1.348,0.0,0.0,0.0,0.0,0.0,0.0,0.0,0.0,-1.47,0.0,-1.6126,-1.6857,-1.7554,-1.821,-1.8691,-1.9132,-1.9546,-2.0134,-2.0508,-2.0681,-2.0882,-2.1029,-2.1109,-2.1109,-2.1229,-2.1443,-2.183,-2.2111,-2.2325,-2.2712,-2.2928,-2.2928,-2.2887,-2.2928,-2.2928,-2.2928,-2.2928,-2.2928,-2.2928,-2.2928,-2.2928,-2.2928,-2.2928,-2.2928,-2.2928,-2.2699,0.0,-2.2579,-2.2325,-2.2071,-2.1884,-2.1735,-2.1534,-2.1283,-2.0895,-2.0681,-2.0681,-2.0027,0.0,-1.9533,-1.8945,-1.8343,-1.7756,-1.7569,-1.7474,-1.7367,-1.7554,-1.7582,-1.7582,-1.7582,-1.7582,-1.7582,-1.7582,-1.7582,-1.7582,-1.7582,-1.7582,-1.7582,-1.7582,-1.7582,-1.7582,-1.7582,-1.7582,-1.7582,-1.7582,-1.7582,-1.7582,-1.7582,-1.7582,-1.7582,-1.7582,-1.7501,-1.7367,-1.7367,-1.7168,-1.7007,-1.6901,-1.6647,-1.6433,-1.6433,-1.6206,-1.5939,-1.5752,-1.5631,-1.5498,-1.5324,-1.5444,-1.5498,-1.5311,0.0,0.0,0.0,0.0,0.0,0.0,-1.3908,-1.4135,0.0,0.0,0.0,0.0,0.0,0.0,-1.4883,-1.5364,-1.5986,-1.6643,-1.7353,-1.7929,-1.8504,-1.9011,-1.9559,-2.0147,-2.0508,-2.0735,-2.0855,-2.1029,-2.1109,-2.1109,-2.1109,-2.1283,-2.1641,-2.1871,-2.2164,-2.2458,-2.2752,-2.2928,-2.2928,-2.2928,-2.2928,-2.2928,-2.2928,-2.2928,-2.2928,-2.2928,-2.2928,-2.2928,-2.2928,-2.2928,-2.2928,-2.2928,-2.2928,-2.2928,-2.2928,0.0,0.0,-2.2418,-2.1911,-2.1655,-2.1614,-2.1029,-2.0722,-2.0708,-2.0414,-2.012,-1.9826,-1.9239,-1.8677,-1.8089,-1.8049,-1.7916,-1.7649,-1.7622,-1.7609,-1.7609,-1.7595,-1.7582,-1.7582,-1.7582,-1.7582,-1.7582,-1.7582,-1.7582,-1.7582,-1.7582,-1.7582,-1.7582,-1.7582,-1.7582,-1.7582,-1.7582,-1.7582,-1.7582,-1.7582,-1.7582,-1.7582,-1.7582,-1.7582,-1.7582,-1.7582,-1.7582,-1.7515,-1.7286,-1.6954,-1.674,-1.674,-1.65,-1.6299,-1.6273,-1.6046,-1.5811,-1.5784,-1.5784,-1.5784,-1.5784,0.0,0.0,0.0,0.0,0.0,-1.38,-1.4082,-1.4376,0.0,0.0,0.0,0.0,0.0,-1.519,-1.6273,-1.6567,-1.6874,-1.7259,-1.8063,-1.8517,-1.8597,-1.9452,-2.0147,-2.0681,-2.0695,-2.0855,-2.1109,-2.1109,-2.1109,-2.1109,-2.1109,-2.1296,-2.1681,-2.1884,-2.2178,-2.2485,-2.2752,-2.2928,-2.2928,0.0,0.0,-2.2928,-2.2928,-2.2928,-2.2928,-2.2928,-2.2928,-2.2928,-2.2928,-2.2928,-2.2928,-2.2928,-2.2928,-2.2928,-2.2928,-2.2806,-2.2659,-2.2432,-2.2285,-2.2017,-2.1641,-2.148,-2.1243,-2.1015,-2.0722,-2.0428,-2.0134,-1.9546,-1.9185,-1.9052,-1.8597,-1.8343,-1.8263,-1.8036,-1.7943,-1.7862,-1.7689,-1.7582,-1.7582,-1.7582,-1.7582,-1.7582,-1.7582,-1.7582,-1.7582,-1.7582,-1.7582,-1.7582,-1.7582,-1.7582,-1.7582,-1.7582,-1.7582,-1.7582,-1.7582,-1.7582,-1.7582,-1.7582,-1.7582,-1.7582,-1.7582,-1.7582,-1.7569,-1.7502,-1.73,-1.7099,-1.7099,-1.6807,-1.654,-1.6362,-1.6268,-1.6086,-1.5824,-1.5784,-1.5784,-1.5784,-1.5578,-1.5351,0.0,-1.5378,-1.5425,-1.5278,-1.5778,-1.6112,0.0,0.0,0.0,-1.6764,-1.6656,-1.6553,-1.6607,-1.6673,-1.7061,-1.7796,-1.8263,-1.8824,-1.9492,-2.016,-2.0548,-2.0681,-2.0909,-2.1042,-2.1109,-2.1109,-2.1109,-2.1109,-2.1109,-2.1416,-2.1884,-2.1964,-2.2298,-2.2766,-2.2832,-2.2928,-2.2928,-2.2928,-2.2928,-2.2928,-2.2928,-2.2928,-2.2928,-2.2928,-2.2928,-2.2928,-2.2928,-2.2928,-2.2928,-2.2928,-2.2928,-2.2928,-2.2928,-2.2928,-2.2792,-2.2632,-2.2498,-2.2271,-2.1964,-2.1762,-2.1483,-2.1309,-2.1029,-2.0735,-2.0441,-2.012,-1.9819,-1.9417,-1.9038,-1.8744,-1.8477,-1.8317,-1.825,-1.8223,-1.7929,-1.7796,-1.7782,-1.7635,-1.7582,-1.7582,-1.7582,-1.7582,-1.7582,-1.7582,-1.7582,-1.7582,-1.7582,-1.7582,-1.7582,-1.7582,-1.7582,-1.7582,-1.7582,-1.7582,-1.7582,-1.7582,-1.7582,-1.7582,-1.7582,-1.7582,-1.7582,-1.7582,-1.7514,-1.7393,-1.7393,-1.7166,-1.686,-1.675,-1.6509,-1.6219,-1.6059,-1.5912,-1.5784,-1.5784,-1.5578,-1.5444,-1.5578,-1.5725,-1.5885,-1.6019,-1.6446,-1.67,-1.67,-1.6687,0.0,-1.738,-1.7488,-1.7488,-1.7328,-1.7582,-1.7943,-1.8424,-1.8865,-1.9466,-2.0201,-2.0521,-2.0748,-2.0882,-2.1042,-2.1109,-2.1109,-2.1109,-2.1109,-2.1122,-2.1256,-2.1577,-2.2004,-2.2124,-2.2458,-2.2928,-2.2928,-2.2928,-2.2928,-2.2928,-2.2928,-2.2928,-2.2928,-2.2928,-2.2873,-2.2926,-2.2939,-2.2953,-2.3062,-2.2966,-2.2939,-2.2939,-2.2886,-2.2928,-2.2928,-2.2928,-2.2928,-2.2928,-2.2619,-2.2472,-2.2418,-2.1951,-2.1708,-2.1614,-2.1256,-2.0989,-2.0735,-2.0695,-2.0294,-1.9559,-1.9466,-1.9172,-1.8677,-1.8597,-1.8557,-1.8544,-1.8182,-1.8035,-1.7969,-1.7756,-1.7622,-1.7582,-1.7582,-1.7582,-1.7582,-1.7582,-1.7582,-1.7582,-1.7582,-1.7582,-1.7582,-1.7582,-1.7582,-1.7582,-1.7582,-1.7582,-1.7582,-1.7582,-1.7582,-1.7582,-1.7582,-1.7582,-1.7582,-1.7582,-1.7582,-1.7582,-1.7582,-1.7434,-1.7246,-1.7206,-1.679,-1.6429,-1.6286,-1.6019,-1.5784,-1.5784,0.0,-1.5565,-1.5858,-1.5979,-1.6139,-1.6446,-1.674,-1.6927,-1.6967,-1.7259,-1.7514,-1.7702,-1.805,-1.8195,-1.8195,-1.8731,-1.9038,-1.9118,-1.9666,-2.0187,-2.0681,-2.0722,-2.0869,-2.1109,-2.1109,-2.1109,-2.1109,-2.1109,-2.1136,-2.1189,-2.1443,-2.175,-2.2071,-2.2325,-2.2605,-2.2928,-2.2928,-2.2928,-2.2928,-2.2928,-2.2928,-2.2928,-2.2928,-2.2928,-2.2953,-2.322,-2.326,-2.334,-2.3594,-2.3407,-2.326,-2.326,-2.302,-2.2928,-2.2928,-2.2928,-2.2928,-2.2928,-2.2819,-2.2686,-2.2432,-2.2338,-2.2058,-2.1628,-2.1256,-2.1082,-2.1042,-2.0802,-2.0601,-2.0468,-1.996,-1.9679,-1.9573,-1.9078,-1.8851,-1.8838,-1.8544,-1.8277,-1.7995,-1.7942,-1.7822,-1.7582,-1.7582,-1.7582,-1.7582,-1.7582,-1.7582,-1.7582,-1.7582,-1.7582,-1.7582,-1.7582,-1.7582,-1.7582,-1.7582,-1.7582,-1.7582,-1.7582,-1.7582,-1.7582,-1.7582,-1.7582,-1.7582,-1.7582,-1.7582,-1.7582,-1.7582,-1.7542,-1.7487,-1.7246,-1.7125,-1.6898,-1.6402,-1.6019,-1.5784,-1.5784,0.0,-1.5872,-1.6166,-1.6697,-1.7112,-1.7355,-1.7662,-1.7943,-1.8196,-1.8263,-1.8303,-1.8343,-1.8865,-1.9158,-1.9158,-1.9252,-1.9533,-1.9967,-2.0374,-2.0588,-2.0681,-2.0922,-2.1069,-2.1109,-2.1109,-2.1109,-2.1109,-2.1109,-2.1256,-2.1547,-2.1601,-2.1871,-2.2352,-2.2405,-2.2605,-2.2928,-2.2928,-2.2928,-2.2928,-2.3113,-2.3247,-2.3354,-2.3354,-2.3354,-2.3394,-2.3541,-2.3567,-2.3621,-2.3754,-2.3647,-2.35,-2.334,-2.3193,-2.3046,-2.2873,-2.2928,-2.2928,-2.2928,-2.2928,-2.2806,-2.2659,-2.2498,-2.2151,-2.1628,-2.1416,-2.1269,-2.1109,-2.0975,-2.0828,-2.0668,-2.0401,-2.0107,-1.9786,-1.9519,-1.9305,-1.9145,-1.8851,-1.8651,-1.8435,-1.8115,-1.7902,-1.7809,-1.7649,-1.7689,-1.7836,-1.7836,-1.7929,-1.8076,-1.8076,-1.8076,-1.8076,-1.8076,-1.8076,-1.8076,-1.8076,-1.7836,-1.7582,-1.7582,-1.7582,-1.7582,-1.7582,-1.7582,-1.7582,-1.7582,-1.7582,-1.7582,-1.7582,-1.7582,-1.7542,-1.746,-1.73,-1.7112,-1.6844,-1.65,0.0,-1.6299,-1.6299,-1.6473,-1.6927,-1.7273,-1.7569,-1.8023,-1.8196,-1.8343,-1.8477,-1.8637,-1.8798,-1.8958,-1.9372,-1.9666,-1.9826,-1.9826,-2.004,-2.0468,-2.0601,-2.0762,-2.0909,-2.1042,-2.1109,-2.1109,-2.1109,-2.1109,-2.1122,-2.1283,-2.1494,-2.1641,-2.1897,-2.2178,-2.2432,-2.2592,-2.2739,-2.2928,-2.2928,-2.2928,-2.2928,-2.3434,-2.3621,-2.3768,-2.3768,-2.3768,-2.3794,-2.3861,-2.3875,-2.3901,-2.3968,-2.3915,-2.3781,-2.3554,-2.3407,-2.3233,-2.2993,-2.2968,-2.2928,-2.2928,-2.2928,-2.2928,-2.2928,-2.2579,-2.2178,-2.1735,-2.1655,-2.1403,-2.1109,-2.1109,-2.0989,-2.0775,-2.0708,-2.0441,-2.0,-1.9933,-1.9733,-1.9452,-1.9225,-1.9052,-1.8878,-1.8382,-1.8155,-1.8075,-1.7889,-1.7943,-1.8102,-1.8102,-1.8303,-1.849,-1.849,-1.849,-1.849,-1.849,-1.849,-1.849,-1.849,-1.8156,-1.7796,-1.7796,-1.7796,-1.7796,-1.7796,-1.7796,-1.7796,-1.7796,-1.7796,-1.7796,-1.7796,-1.7796,-1.7796,-1.7796,-1.7661,-1.746,-1.7326,0.0,-1.6887,-1.682,-1.686,-1.7101,-1.7622,-1.7756,-1.8036,-1.8637,-1.8691,-1.8744,-1.8891,-1.9105,-1.9332,-1.9559,-1.984,-2.0134,-2.0428,-2.0374,-2.0481,-2.0775,-2.0775,-2.0922,-2.1216,-2.1216,-2.1243,-2.1309,-2.1309,-2.1309,-2.1323,-2.155,-2.1762,-2.179,-2.2231,-2.2458,-2.2539,-2.2779,-2.2928,-2.2928,-2.2928,-2.2928,-2.2928,-2.3741,-2.3754,-2.3768,-2.3768,-2.3768,-2.3861,-2.4128,-2.4168,-2.4262,-2.4543,-2.4342,-2.4168,-2.4142,-2.3647,-2.3313,-2.33,-2.3033,-2.2928,-2.2928,-2.2928,-2.2928,-2.2928,-2.2579,-2.2271,-2.1964,-2.1762,-2.1403,-2.1109,-2.1109,-2.1096,-2.1069,-2.0802,-2.0655,-2.0601,-2.0321,-2.004,-1.9773,-1.9746,-1.9426,-1.8918,-1.8878,-1.8704,-1.845,-1.8437,-1.8437,-1.8464,-1.8464,-1.8477,-1.849,-1.849,-1.849,-1.849,-1.849,-1.849,-1.849,-1.849,-1.8464,-1.8424,-1.8424,-1.8424,-1.8424,-1.8424,-1.8424,-1.8424,-1.8424,-1.8424,-1.8424,-1.8424,-1.8424,-1.8424,-1.8424,-1.841,-1.821,-1.7635,0.0,0.0,-1.7206,-1.7393,-1.7635,-1.7916,-1.825,-1.8651,-1.931,-1.9305,-1.9519,-2.0067,-2.006,-2.0087,-2.0174,-2.0454,-2.0748,-2.1042,-2.0788,-2.0788,-2.1069,-2.1082,-2.1229,-2.1588,-2.1588,-2.1657,-2.1924,-2.1924,-2.1924,-2.1924,-2.1951,-2.2111,-2.2352,-2.2405,-2.2579,-2.2901,-2.2928,-2.2928,-2.2928,-2.2928,-2.2928,-2.2928,-2.4035,-2.4182,-2.4302,-2.4302,-2.4302,-2.4342,-2.4449,-2.4476,-2.4516,-2.4623,-2.4543,-2.4396,-2.4222,-2.4008,-2.3728,-2.3354,-2.322,-2.3073,-2.2873,-2.2928,-2.2928,-2.2928,-2.2752,-2.2552,-2.2258,-2.2151,-2.1857,-2.139,-2.139,-2.1296,-2.1109,-2.1002,-2.0855,-2.0668,-2.0561,-2.0347,-2.0054,-1.988,-1.9666,-1.9439,-1.9065,-1.8865,-1.8744,-1.8557,-1.8597,-1.8758,-1.8758,-1.8998,-1.9305,-1.9305,-1.9426,-1.9573,-1.9573,-1.9573,-1.9573,-1.9573,-1.9573,-1.9573,-1.9573,-1.9038,-1.849,-1.849,-1.849,-1.849,-1.849,-1.849,-1.849,-1.849,-1.849,-1.849,-1.849,-1.849,-1.841,-1.8183,0.0,-1.8103,-1.7996,-1.8076,-1.8263,-1.8557,-1.8851,-1.9185,-1.9599,-1.98,-2.0,-2.0153,-2.0401,-2.0508,-2.0508,-2.0788,-2.0989,-2.1109,-2.1176,-2.1333,-2.139,-2.139,-2.1537,-2.1817,-2.1817,-2.1884,-2.1991,-2.1991,-2.1991,-2.1991,-2.2178,-2.2311,-2.2432,-2.2619,-2.2766,-2.2928,-2.2928,-2.2928,-2.2928,-2.2928,-2.2928,-2.2928,-2.4462,-2.4636,-2.481,-2.489,-2.4903,-2.4903,-2.4903,-2.4903,-2.4903,-2.4903,-2.4836,-2.4703,-2.4502,-2.4315,-2.4048,-2.3634,-2.3434,-2.3233,-2.302,-2.2913,-2.2928,-2.2928,-2.2928,-2.2726,-2.2432,-2.2418,-2.2178,-2.1762,-2.1762,-2.1537,-2.1256,-2.1256,-2.1096,-2.0815,-2.0815,-2.0655,-2.0361,-2.016,-2.0027,-1.9907,-1.9492,-1.9332,-1.9319,-1.9118,-1.9158,-1.9332,-1.9332,-1.9599,-1.9933,-1.9933,-2.0067,-2.0167,-2.0167,-2.0167,-2.0167,-2.0167,-2.0167,-2.0167,-2.0167,-1.9653,-1.9038,-1.9038,-1.9038,-1.9038,-1.9038,-1.9038,-1.9038,-1.9038,-1.9038,-1.9038,-1.9038,-1.9038,-1.9011,-1.8918,-1.8971,-1.9011,-1.8918,-1.8985,-1.9105,-1.9305,-1.9519,-1.976,-2.0054,-2.0254,-2.0414,-2.0494,-2.0695,-2.0815,-2.0815,-2.1002,-2.1149,-2.1243,-2.1507,-2.1708,-2.1817,-2.1802,-2.183,-2.2124,-2.2124,-2.2164,-2.2258,-2.2258,-2.2258,-2.2271,-2.2472,-2.2565,-2.2579,-2.2779,-2.2928,-2.2928,-2.2928,-2.2928,-2.2928,-2.2928,-2.2928,-2.2928,-2.5024,-2.5077,-2.517,-2.5464,-2.5518,-2.5518,-2.5518,-2.5518,-2.5518,-2.5518,-2.5264,-2.5077,-2.5077,-2.4556,-2.4209,-2.4209,-2.3674,-2.334,-2.3327,-2.3033,-2.2928,-2.2928,-2.2928,-2.2726,-2.2432,-2.2418,-2.2285,-2.1991,-2.1991,-2.1844,-2.1614,-2.1614,-2.139,-2.1109,-2.1109,-2.0949,-2.0681,-2.0681,-2.0508,-2.018,-2.0167,-2.0167,-2.0167,-2.0167,-2.0167,-2.0167,-2.0167,-2.0167,-2.018,-2.018,-2.0241,-2.0241,-2.0241,-2.0241,-2.0241,-2.0241,-2.0241,-2.0241,-2.0241,-2.0241,-2.0241,-2.0167,-2.0167,-2.0167,-2.0167,-2.0167,-2.0167,-2.0167,-2.0167,-2.0167,-2.0167,-2.0167,-2.0134,-1.9853,-2.004,-2.0134,-1.984,-2.0054,-2.0167,-2.0167,-2.018,-2.0347,-2.0641,-2.0681,-2.0802,-2.1082,-2.1109,-2.1109,-2.1109,-2.1122,-2.1256,-2.1614,-2.1628,-2.1844,-2.2405,-2.2138,-2.2138,-2.2418,-2.2418,-2.2579,-2.2928,-2.2928,-2.2928,-2.2928,-2.2928,-2.2928,-2.2928,-2.2928,-2.2928,-2.2928,-2.2928,-2.2928,-2.2928,-2.2928,-2.2928,-2.2928,-2.5371,-2.5384,-2.5411,-2.5504,-2.5518,-2.5518,-2.5518,-2.5518,-2.5518,-2.5518,-2.5438,-2.5304,-2.5104,-2.4917,-2.4649,-2.4235,-2.4048,-2.3848,-2.3647,-2.3354,-2.3193,-2.3193,-2.2979,-2.2819,-2.2726,-2.2726,-2.2592,-2.2285,-2.2285,-2.2138,-2.1857,-2.1708,-2.1574,-2.1416,-2.1203,-2.1069,-2.0962,-2.0762,-2.0628,-2.0521,-2.0321,-2.0167,-2.0167,-2.0167,-2.0167,-2.0167,-2.0167,-2.0361,-2.0548,-2.0548,-2.0681,-2.0842,-2.0842,-2.0842,-2.0842,-2.0842,-2.0842,-2.0842,-2.0842,-2.0842,-2.0748,-2.0334,-2.0167,-2.0167,-2.0167,-2.0167,-2.0167,-2.0167,-2.0167,-2.0167,-2.0167,-2.0167,-2.014,-2.012,-2.0174,-2.014,-2.012,-2.0174,-2.0167,-2.0167,-2.0414,-2.0575,-2.0668,-2.0855,-2.1015,-2.1096,-2.1296,-2.1416,-2.1416,-2.1617,-2.1764,-2.1857,-2.2058,-2.2245,-2.2418,-2.2338,-2.2445,-2.2726,-2.2726,-2.2779,-2.2928,-2.2928,-2.2928,-2.2928,-2.2928,-2.2928,-2.2928,-2.2928,-2.2928,-2.2928,-2.2928,-2.2928,-2.2928,-2.2928,-2.2928,-2.2928,-2.5665,-2.5692,-2.5732,-2.5838,-2.5865,-2.5865,-2.5865,-2.5865,-2.5865,-2.5865,-2.5758,-2.5625,-2.5451,-2.5317,-2.5104,-2.4756,-2.4502,-2.4209,-2.3794,-2.3607,-2.3447,-2.3327,-2.3153,-2.2993,-2.2928,-2.2928,-2.2779,-2.2592,-2.2592,-2.2445,-2.2151,-2.1977,-2.1777,-2.1614,-2.1483,-2.139,-2.1269,-2.1096,-2.1092,-2.1065,-2.0695,-2.0575,-2.0575,-2.0575,-2.0575,-2.0575,-2.0575,-2.0695,-2.0842,-2.0842,-2.0962,-2.1109,-2.1109,-2.1109,-2.1109,-2.1109,-2.1109,-2.1109,-2.1109,-2.1109,-2.1029,-2.0668,-2.0575,-2.0575,-2.0575,-2.0575,-2.0575,-2.0575,-2.0575,-2.0575,-2.0575,-2.0575,-2.0575,-2.0575,-2.0575,-2.0575,-2.0575,-2.0575,-2.0575,-2.0575,-2.0735,-2.0842,-2.0842,-2.1109,-2.1336,-2.1443,-2.1617,-2.1789,-2.1789,-2.1897,-2.2044,-2.2151,-2.2325,-2.2472,-2.2592,-2.2592,-2.2686,-2.2928,-2.2928,-2.2928,-2.2928,-2.2928,-2.2928,-2.2928,-2.2928,-2.2928,-2.2928,-2.2928,-2.2928,-2.2928,-2.2928,-2.2928,-2.2928,-2.2928,-2.2928,-2.2928,-2.5972,-2.6039,-2.6132,-2.6413,-2.6466,-2.6466,-2.6466,-2.6466,-2.6466,-2.6466,-2.6239,-2.6066,-2.6039,-2.5772,-2.5585,-2.5558,-2.5037,-2.4476,-2.3928,-2.3861,-2.3714,-2.342,-2.3354,-2.3193,-2.2913,-2.2873,-2.2928,-2.2928,-2.2928,-2.2726,-2.2458,-2.2432,-2.2138,-2.1708,-2.1884,-2.1844,-2.1655,-2.1655,-2.1655,-2.1628,-2.1296,-2.1189,-2.1189,-2.1189,-2.1176,-2.1149,-2.1149,-2.1136,-2.1109,-2.1109,-2.1109,-2.1109,-2.1109,-2.1109,-2.1109,-2.1109,-2.1109,-2.1109,-2.1109,-2.1122,-2.1149,-2.1149,-2.1162,-2.1176,-2.1149,-2.1149,-2.1162,-2.1189,-2.1189,-2.1189,-2.1189,-2.1189,-2.1189,-2.1189,-2.1189,-2.1189,-2.1189,-2.1189,-2.1189,-2.1189,-2.1189,-2.1189,-2.1189,-2.143,-2.1762,-2.1964,-2.2004,-2.2031,-2.2031,-2.2044,-2.2191,-2.2445,-2.2458,-2.2592,-2.2928,-2.2928,-2.2928,-2.2928,-2.2928,-2.2928,-2.2928,-2.2928,-2.2928,-2.2928,-2.2928,-2.2928,-2.2928,-2.2928,-2.2928,-2.2928,-2.2928,-2.2928,-2.2928,-2.2928,-2.2928,-2.2928,-2.6573,-2.664,-2.672,-2.7028,-2.7081,-2.7081,-2.7081,-2.7081,-2.7081,-2.7081,-2.7028,-2.6894,-2.6667,-2.6373,-2.6106,-2.5879,-2.5531,-2.517,-2.4823,-2.4583,-2.4315,-2.4022,-2.3567,-2.33,-2.322,-2.2993,-2.2928,-2.2928,-2.2928,-2.2832,-2.2766,-2.2525,-2.2352,-2.2218,-2.2058,-2.1951,-2.1897,-2.1897,-2.1897,-2.1884,-2.1817,-2.179,-2.179,-2.179,-2.1657,-2.1521,-2.1521,-2.1309,-2.1109,-2.1109,-2.1109,-2.1109,-2.1109,-2.1109,-2.1109,-2.1109,-2.1109,-2.1109,-2.1109,-2.1283,-2.1521,-2.1521,-2.163,-2.1737,-2.1574,-2.1521,-2.1523,-2.175,-2.179,-2.179,-2.179,-2.179,-2.179,-2.179,-2.179,-2.179,-2.179,-2.179,-2.179,-2.179,-2.179,-2.179,-2.179,-2.1857,-2.1924,-2.1977,-2.2191,-2.2325,-2.2325,-2.2552,-2.2699,-2.2766,-2.2766,-2.2792,-2.2928,-2.2928,-2.2928,-2.2928,-2.2928,-2.2928,-2.2928,-2.2928,-2.2928,-2.2928,-2.2928,-2.2928,-2.2928,-2.2928,-2.2928,-2.2928,-2.2928,-2.2928,-2.2928,-2.2928,-2.2928,-2.2899,-2.7001,-2.7028,-2.7081,-2.7241,-2.7268,-2.7268,-2.7268,-2.7268,-2.7268,-2.7268,-2.7268,-2.7201,-2.7054,-2.6894,-2.664,-2.6199,-2.5892,-2.5598,-2.5304,-2.501,-2.4716,-2.4422,-2.3981,-2.3621,-2.334,-2.3166,-2.3006,-2.2928,-2.2928,-2.2928,-2.2928,-2.2699,-2.2552,-2.2418,-2.2405,-2.2325,-2.2191,-2.2191,-2.2191,-2.2178,-2.2044,-2.1991,-2.1991,-2.1991,-2.1897,-2.1764,-2.1764,-2.1657,-2.1523,-2.1523,-2.1523,-2.1523,-2.1523,-2.1523,-2.1523,-2.1523,-2.1523,-2.1523,-2.1523,-2.1643,-2.1764,-2.1764,-2.1871,-2.1951,-2.179,-2.1764,-2.1804,-2.1951,-2.1991,-2.1991,-2.1991,-2.1991,-2.1991,-2.1991,-2.1991,-2.1991,-2.1991,-2.1991,-2.1991,-2.1991,-2.1991,-2.2044,-2.2178,-2.2191,-2.2245,-2.2392,-2.2539,-2.2632,-2.2632,-2.2779,-2.2928,-2.2928,-2.2928,-2.2928,-2.2928,-2.2928,-2.2928,-2.2928,-2.2928,-2.2928,-2.2928,-2.2928,-2.2928,-2.2928,-2.2928,-2.2928,-2.2928,-2.2928,-2.2928,-2.2928,-2.2928,-2.2928,-2.2928,-2.2928,-2.2928,-2.2968,-2.7335,-2.7348,-2.7362,-2.7402,-2.7415,-2.7415,-2.7415,-2.7415,-2.7415,-2.7415,-2.7415,-2.7415,-2.7415,-2.7321,-2.7054,-2.6507,-2.6199,-2.5905,-2.5611,-2.5358,-2.5077,-2.473,-2.4436,-2.4022,-2.3487,-2.3434,-2.322,-2.2928,-2.2928,-2.2928,-2.2928,-2.2928,-2.2726,-2.2498,-2.2752,-2.2726,-2.2498,-2.2498,-2.2498,-2.2472,-2.2231,-2.2138,-2.2138,-2.2138,-2.2098,-2.2058,-2.2058,-2.2031,-2.1991,-2.1991,-2.1991,-2.1991,-2.1991,-2.1991,-2.1991,-2.1991,-2.1991,-2.1991,-2.1991,-2.2017,-2.2058,-2.2058,-2.2098,-2.2138,-2.2138,-2.2098,-2.2071,-2.2124,-2.2138,-2.2138,-2.2138,-2.2138,-2.2138,-2.2138,-2.2138,-2.2138,-2.2138,-2.2138,-2.2138,-2.2138,-2.2138,-2.2231,-2.2472,-2.2498,-2.2592,-2.2914,-2.2928,-2.2928,-2.2928,-2.2928,-2.2928,-2.2928,-2.2928,-2.2928,-2.2928,-2.2928,-2.2928,-2.2928,-2.2928,-2.2928,-2.2928,-2.2928,-2.2928,-2.2928,-2.2928,-2.2928,-2.2928,-2.2928,-2.2928,-2.2928,-2.2928,-2.2928,-2.2928,-2.2928,-2.2928,-2.2981,-2.7589,-2.7642,-2.7722,-2.806,-2.8114,-2.8114,-2.8114,-2.8114,-2.8114,-2.8114,-2.8114,-2.8114,-2.8114,-2.7575,-2.7134,-2.6787,-2.6493,-2.6213,-2.5919,-2.5865,-2.5598,-2.5037,-2.4743,-2.4422,-2.4088,-2.3834,-2.3434,-2.2928,-2.2928,-2.2928,-2.2928,-2.2928,-2.2914,-2.2806,-2.2914,-2.2846,-2.2806,-2.2806,-2.2806,-2.2806,-2.2766,-2.2807,-2.2807,-2.2807,-2.2579,-2.2365,-2.2365,-2.2205,-2.1991,-2.1991,-2.1991,-2.1991,-2.1991,-2.1991,-2.1991,-2.1991,-2.1991,-2.1991,-2.1991,-2.2164,-2.2365,-2.2365,-2.2552,-2.2807,-2.2807,-2.2539,-2.2432,-2.2686,-2.2807,-2.2807,-2.2807,-2.2807,-2.2807,-2.2807,-2.2807,-2.2807,-2.2807,-2.2807,-2.2807,-2.2807,-2.2807,-2.2766,-2.2806,-2.2806,-2.2819,-2.2928,-2.2928,-2.2928,-2.2928,-2.2928,-2.2928,-2.2928,-2.2928,-2.2928,-2.2928,-2.2928,-2.2928,-2.2928,-2.2928,-2.2928,-2.2928,-2.2928,-2.2928,-2.2928,-2.2928,-2.2928,-2.2928,-2.2928,-2.2928,-2.2928,-2.2928,-2.2928,-2.2928,-2.2928,-2.2928,-2.3008,-2.7923,-2.7949,-2.8073,-2.8207,-2.8221,-2.8221,-2.8221,-2.8221,-2.8221,-2.8221,-2.8221,-2.8221,-2.8221,-2.7698,-2.7215,-2.7081,-2.6653,-2.6333,-2.6199,-2.6052,-2.5916,-2.5585,-2.513,-2.4743,-2.4449,-2.4155,-2.3808,-2.3367,-2.3207,-2.3033,-2.2928,-2.2928,-2.2928,-2.2928,-2.2928,-2.2928,-2.2928,-2.2928,-2.2928,-2.2928,-2.2928,-2.2928,-2.2928,-2.2928,-2.2779,-2.2672,-2.2672,-2.2579,-2.2472,-2.2472,-2.2472,-2.2472,-2.2472,-2.2472,-2.2472,-2.2472,-2.2472,-2.2472,-2.2472,-2.2565,-2.2672,-2.2672,-2.2766,-2.2928,-2.2928,-2.2766,-2.2699,-2.2832,-2.2928,-2.2928,-2.2928,-2.2928,-2.2928,-2.2928,-2.2928,-2.2928,-2.2928,-2.2928,-2.2928,-2.2928,-2.2928,-2.2928,-2.2928,-2.2928,-2.2928,-2.2928,-2.2928,-2.2928,-2.2928,-2.2928,-2.2928,-2.2928,-2.2928,-2.2928,-2.2928,-2.2928,-2.2928,-2.2928,-2.2928,-2.2928,-2.2928,-2.2928,-2.2928,-2.2928,-2.2928,-2.2791,-2.2585,-2.2585,-2.2448,-2.231,-2.2516,-2.2722,-2.2928,-2.2928,-2.2928,-2.3021]},{"header":{"parameterUnit":"m.s-1","parameterCategory":1,"la1":30.6,"la2":28.766,"lo1":-90.7593,"lo2":-88.6598,"dy":0.0162,"dx":0.0183,"nx":116,"ny":114,"refTime":"2023-10-22T12:00:00:Z","depth":0,"parameterNumber":3,"parameterNumberName":"V-component_of_WINDS"},"data":[0.0,0.0,0.0,0.0,0.0,0.0,0.0,0.0,0.0,0.0,0.0,0.0,0.0,0.0,0.0,0.0,0.0,0.0,0.0,0.0,0.0,0.0,0.0,0.0,0.0,0.0,0.0,0.0,0.0,0.0,0.0,0.0,0.0,0.0,0.0,0.0,0.0,0.0,0.0,0.0,0.0,0.0,0.0,0.0,0.0,0.0,0.0,0.0,0.0,0.0,0.0,0.0,0.0,0.0,0.0,0.0,0.0,0.0,0.0,0.0,0.0,0.0,0.0,0.0,0.0,0.0,0.0,0.0,0.0,0.0,0.0,0.0,0.0,0.0,0.0,0.0,0.0,0.0,0.0,0.0,0.0,0.0,0.0,0.0,0.0,0.0,0.0,0.0,0.0,0.0,0.0,0.0,0.0,0.0,0.0,0.0,0.0,0.0,0.0,0.0,0.0,0.0,0.0,0.0,0.0,0.0,0.0,0.0,0.0,0.0,0.0,0.0,0.0,0.0,0.0,0.0,0.0,0.0,0.0,0.0,0.0,0.0,0.0,0.0,0.0,0.0,0.0,0.0,0.0,0.0,0.0,0.0,0.0,0.0,0.0,0.0,0.0,0.0,0.0,0.0,0.0,0.0,0.0,0.0,0.0,0.0,0.0,0.0,0.0,0.0,0.0,0.0,0.0,0.0,0.0,0.0,0.0,0.0,0.0,0.0,0.0,0.0,0.0,0.0,0.0,0.0,0.0,0.0,0.0,0.0,0.0,0.0,0.0,0.0,0.0,0.0,0.0,0.0,0.0,0.0,0.0,0.0,0.0,0.0,0.0,0.0,0.0,0.0,0.0,0.0,0.0,0.0,0.0,0.0,0.0,0.0,0.0,0.0,0.0,0.0,0.0,0.0,0.0,0.0,0.0,0.0,0.0,0.0,0.0,0.0,0.0,0.0,0.0,0.0,0.0,0.0,0.0,0.0,0.0,0.0,0.0,0.0,0.0,0.0,0.0,0.0,0.0,0.0,0.0,0.0,0.0,0.0,0.0,0.0,0.0,0.0,0.0,0.0,0.0,0.0,0.0,0.0,0.0,0.0,0.0,0.0,0.0,0.0,0.0,0.0,0.0,0.0,0.0,0.0,0.0,0.0,0.0,0.0,0.0,0.0,0.0,0.0,0.0,0.0,0.0,0.0,0.0,0.0,0.0,0.0,0.0,0.0,0.0,0.0,0.0,0.0,0.0,0.0,0.0,0.0,0.0,0.0,0.0,0.0,0.0,0.0,0.0,0.0,0.0,0.0,0.0,0.0,0.0,0.0,0.0,0.0,0.0,0.0,0.0,0.0,0.0,0.0,0.0,0.0,0.0,0.0,0.0,0.0,0.0,0.0,0.0,0.0,0.0,0.0,0.0,0.0,0.0,0.0,0.0,0.0,0.0,0.0,0.0,0.0,0.0,0.0,0.0,0.0,0.0,0.0,0.0,0.0,0.0,0.0,0.0,0.0,0.0,0.0,0.0,0.0,0.0,0.0,0.0,0.0,0.0,0.0,0.0,0.0,0.0,0.0,0.0,0.0,0.0,0.0,0.0,0.0,0.0,0.0,0.0,0.0,0.0,0.0,0.0,0.0,0.0,0.0,0.0,0.0,0.0,0.0,0.0,0.0,0.0,0.0,0.0,0.0,0.0,0.0,0.0,0.0,0.0,0.0,0.0,0.0,0.0,0.0,0.0,0.0,0.0,0.0,0.0,0.0,0.0,0.0,0.0,0.0,0.0,0.0,0.0,0.0,0.0,0.0,0.0,0.0,0.0,0.0,0.0,0.0,0.0,0.0,0.0,0.0,0.0,0.0,0.0,0.0,0.0,0.0,0.0,0.0,0.0,0.0,0.0,0.0,0.0,0.0,0.0,0.0,0.0,0.0,0.0,0.0,0.0,0.0,0.0,0.0,0.0,0.0,0.0,0.0,0.0,0.0,0.0,0.0,0.0,0.0,0.0,0.0,0.0,0.0,0.0,0.0,0.0,0.0,0.0,0.0,0.0,0.0,0.0,0.0,0.0,0.0,0.0,0.0,0.0,0.0,0.0,0.0,0.0,0.0,0.0,0.0,0.0,0.0,0.0,0.0,0.0,0.0,0.0,0.0,0.0,0.0,0.0,0.0,0.0,0.0,0.0,0.0,0.0,0.0,0.0,0.0,0.0,0.0,0.0,0.0,0.0,0.0,0.0,0.0,0.0,0.0,0.0,0.0,0.0,0.0,0.0,0.0,0.0,0.0,0.0,0.0,0.0,0.0,0.0,0.0,0.0,0.0,0.0,0.0,0.0,0.0,0.0,0.0,0.0,0.0,0.0,0.0,0.0,0.0,0.0,0.0,0.0,0.0,0.0,0.0,0.0,0.0,0.0,0.0,0.0,0.0,0.0,0.0,0.0,0.0,0.0,0.0,0.0,0.0,0.0,0.0,0.0,0.0,0.0,0.0,0.0,0.0,0.0,0.0,0.0,0.0,0.0,0.0,0.0,0.0,0.0,0.0,0.0,0.0,0.0,0.0,0.0,0.0,0.0,0.0,0.0,0.0,0.0,0.0,0.0,0.0,0.0,0.0,0.0,0.0,0.0,0.0,0.0,0.0,0.0,0.0,0.0,0.0,0.0,0.0,0.0,0.0,0.0,0.0,0.0,0.0,0.0,0.0,0.0,0.0,0.0,0.0,0.0,0.0,0.0,0.0,0.0,0.0,0.0,0.0,0.0,0.0,0.0,0.0,0.0,0.0,0.0,0.0,0.0,0.0,0.0,0.0,0.0,0.0,0.0,0.0,0.0,0.0,0.0,0.0,0.0,0.0,0.0,0.0,0.0,0.0,0.0,0.0,0.0,0.0,0.0,0.0,0.0,0.0,0.0,0.0,0.0,0.0,0.0,0.0,0.0,0.0,0.0,0.0,0.0,0.0,0.0,0.0,0.0,0.0,0.0,0.0,0.0,0.0,0.0,0.0,0.0,0.0,0.0,0.0,0.0,0.0,0.0,0.0,0.0,0.0,0.0,0.0,0.0,0.0,0.0,0.0,0.0,0.0,0.0,0.0,0.0,0.0,0.0,0.0,0.0,0.0,0.0,0.0,0.0,0.0,0.0,0.0,0.0,0.0,0.0,0.0,0.0,0.0,0.0,0.0,0.0,0.0,0.0,0.0,0.0,0.0,0.0,0.0,0.0,0.0,0.0,0.0,0.0,0.0,0.0,0.0,0.0,0.0,0.0,0.0,0.0,0.0,0.0,0.0,0.0,0.0,0.0,0.0,0.0,0.0,0.0,0.0,0.0,0.0,0.0,0.0,0.0,0.0,0.0,0.0,0.0,0.0,0.0,0.0,0.0,0.0,0.0,0.0,0.0,0.0,0.0,0.0,0.0,0.0,0.0,0.0,0.0,0.0,0.0,0.0,0.0,0.0,0.0,0.0,0.0,0.0,0.0,0.0,0.0,0.0,0.0,0.0,0.0,0.0,0.0,0.0,0.0,0.0,0.0,0.0,0.0,0.0,0.0,0.0,0.0,0.0,0.0,0.0,0.0,0.0,0.0,0.0,0.0,0.0,0.0,0.0,0.0,0.0,0.0,0.0,0.0,0.0,0.0,0.0,0.0,0.0,0.0,0.0,0.0,0.0,0.0,0.0,0.0,0.0,0.0,0.0,0.0,0.0,0.0,0.0,0.0,0.0,0.0,0.0,0.0,0.0,0.0,0.0,0.0,0.0,0.0,0.0,0.0,0.0,0.0,0.0,0.0,0.0,0.0,0.0,0.0,0.0,0.0,0.0,0.0,0.0,0.0,0.0,0.0,0.0,0.0,0.0,0.0,0.0,0.0,0.0,0.0,0.0,0.0,0.0,0.0,0.0,0.0,0.0,0.0,0.0,0.0,0.0,0.0,0.0,0.0,0.0,0.0,0.0,0.0,0.0,0.0,0.0,0.0,0.0,0.0,0.0,0.0,0.0,0.0,0.0,0.0,0.0,0.0,0.0,0.0,0.0,0.0,0.0,0.0,0.0,0.0,0.0,0.0,0.0,0.0,0.0,0.0,0.0,0.0,0.0,0.0,0.0,0.0,0.0,0.0,0.0,0.0,0.0,0.0,0.0,0.0,0.0,0.0,0.0,0.0,0.0,0.0,0.0,0.0,0.0,0.0,0.0,0.0,0.0,0.0,0.0,0.0,0.0,0.0,0.0,0.0,0.0,0.0,0.0,0.0,0.0,0.0,0.0,0.0,0.0,0.0,0.0,0.0,0.0,0.0,0.0,0.0,0.0,0.0,0.0,0.0,0.0,0.0,0.0,0.0,0.0,0.0,0.0,0.0,0.0,0.0,0.0,0.0,0.0,0.0,0.0,0.0,0.0,0.0,0.0,0.0,0.0,0.0,0.0,0.0,0.0,0.0,0.0,0.0,0.0,0.0,0.0,0.0,0.0,0.0,0.0,0.0,0.0,0.0,0.0,0.0,0.0,0.0,0.0,0.0,0.0,0.0,0.0,0.0,0.0,0.0,0.0,0.0,0.0,0.0,0.0,0.0,0.0,0.0,0.0,0.0,0.0,0.0,0.0,0.0,0.0,0.0,0.0,0.0,0.0,0.0,0.0,0.0,0.0,0.0,0.0,0.0,0.0,0.0,0.0,0.0,0.0,0.0,0.0,0.0,0.0,0.0,0.0,0.0,0.0,0.0,0.0,0.0,0.0,0.0,0.0,0.0,0.0,0.0,0.0,0.0,0.0,0.0,0.0,0.0,0.0,0.0,0.0,0.0,0.0,0.0,0.0,0.0,0.0,0.0,0.0,0.0,0.0,0.0,0.0,0.0,0.0,0.0,0.0,0.0,0.0,0.0,0.0,0.0,0.0,0.0,0.0,0.0,0.0,0.0,0.0,0.0,0.0,0.0,0.0,0.0,0.0,0.0,0.0,0.0,0.0,0.0,0.0,0.0,0.0,0.0,0.0,0.0,0.0,0.0,0.0,0.0,0.0,0.0,0.0,0.0,0.0,0.0,0.0,0.0,0.0,0.0,0.0,0.0,0.0,0.0,0.0,0.0,0.0,0.0,0.0,0.0,0.0,0.0,0.0,0.0,0.0,0.0,0.0,0.0,0.0,0.0,0.0,0.0,0.0,0.0,0.0,0.0,0.0,0.0,0.0,0.0,0.0,0.0,0.0,0.0,0.0,0.0,0.0,0.0,0.0,0.0,0.0,0.0,0.0,0.0,0.0,0.0,0.0,0.0,0.0,0.0,0.0,0.0,0.0,0.0,0.0,0.0,0.0,0.0,0.0,0.0,0.0,0.0,0.0,0.0,0.0,0.0,0.0,0.0,0.0,0.0,0.0,0.0,0.0,0.0,0.0,0.0,0.0,0.0,0.0,0.0,0.0,0.0,0.0,0.0,0.0,0.0,0.0,0.0,0.0,0.0,0.0,0.0,0.0,0.0,0.0,0.0,0.0,0.0,0.0,0.0,0.0,0.0,0.0,0.0,0.0,0.0,0.0,0.0,0.0,0.0,0.0,0.0,0.0,0.0,0.0,0.0,0.0,0.0,0.0,0.0,0.0,0.0,0.0,0.0,0.0,0.0,0.0,0.0,0.0,0.0,0.0,0.0,0.0,0.0,0.0,0.0,0.0,0.0,0.0,0.0,0.0,0.0,0.0,0.0,0.0,0.0,0.0,0.0,0.0,0.0,0.0,0.0,0.0,0.0,0.0,0.0,0.0,0.0,0.0,0.0,0.0,0.0,0.0,0.0,0.0,0.0,0.0,0.0,0.0,0.0,0.0,0.0,0.0,0.0,0.0,0.0,0.0,0.0,0.0,0.0,0.0,0.0,0.0,0.0,0.0,0.0,0.0,0.0,0.0,0.0,0.0,0.0,0.0,0.0,0.0,0.0,0.0,0.0,0.0,0.0,0.0,0.0,0.0,0.0,0.0,0.0,0.0,0.0,0.0,0.0,0.0,0.0,0.0,0.0,0.0,0.0,0.0,0.0,0.0,0.0,0.0,0.0,0.0,0.0,0.0,0.0,0.0,0.0,0.0,0.0,0.0,0.0,0.0,0.0,0.0,0.0,0.0,0.0,0.0,0.0,0.0,0.0,0.0,0.0,0.0,2.8239,0.0,0.0,0.0,0.0,0.0,0.0,0.0,0.0,0.0,0.0,0.0,0.0,0.0,0.0,0.0,0.0,0.0,0.0,0.0,0.0,0.0,0.0,0.0,0.0,0.0,0.0,0.0,0.0,0.0,0.0,0.0,0.0,0.0,0.0,0.0,0.0,0.0,0.0,0.0,2.5405,2.6363,2.6991,2.6753,2.623,2.5508,0.0,0.0,0.0,0.0,0.0,0.0,0.0,0.0,0.0,0.0,0.0,0.0,0.0,0.0,0.0,0.0,0.0,0.0,0.0,0.0,0.0,0.0,0.0,0.0,0.0,0.0,0.0,0.0,0.0,0.0,0.0,0.0,0.0,0.0,0.0,0.0,0.0,0.0,0.0,0.0,0.0,0.0,0.0,0.0,0.0,0.0,0.0,0.0,0.0,0.0,0.0,0.0,0.0,0.0,0.0,0.0,0.0,0.0,0.0,0.0,0.0,0.0,0.0,0.0,0.0,0.0,0.0,0.0,0.0,0.0,0.0,2.9373,0.0,0.0,0.0,0.0,0.0,0.0,0.0,0.0,0.0,0.0,0.0,0.0,0.0,0.0,0.0,0.0,0.0,0.0,0.0,0.0,0.0,0.0,0.0,0.0,0.0,0.0,0.0,0.0,0.0,0.0,0.0,0.0,0.0,0.0,0.0,0.0,0.0,0.0,2.7171,2.9082,3.064,3.0573,2.997,2.8904,2.8006,0.0,0.0,0.0,0.0,0.0,0.0,0.0,0.0,0.0,0.0,0.0,0.0,0.0,0.0,0.0,0.0,0.0,0.0,0.0,0.0,0.0,0.0,0.0,0.0,0.0,0.0,0.0,0.0,0.0,0.0,0.0,0.0,0.0,0.0,0.0,0.0,0.0,0.0,0.0,0.0,0.0,0.0,0.0,0.0,0.0,0.0,0.0,0.0,0.0,0.0,0.0,0.0,0.0,0.0,0.0,0.0,0.0,0.0,0.0,0.0,0.0,0.0,0.0,3.8111,3.8274,3.8616,3.8395,3.8737,3.927,3.4776,3.2932,3.2889,3.0689,0.0,0.0,0.0,0.0,0.0,0.0,0.0,0.0,0.0,0.0,0.0,0.0,0.0,0.0,0.0,0.0,0.0,0.0,0.0,0.0,0.0,2.1695,2.2433,2.2433,2.3627,2.4173,0.0,0.0,0.0,0.0,0.0,0.0,0.0,2.4312,2.5173,2.6333,2.9448,3.2258,3.4711,3.4144,3.4148,3.4484,3.1409,2.9918,2.9619,0.0,0.0,0.0,0.0,0.0,0.0,0.0,0.0,0.0,0.0,0.0,0.0,0.0,0.0,0.0,0.0,0.0,0.0,0.0,0.0,0.0,0.0,0.0,0.0,0.0,0.0,0.0,0.0,0.0,0.0,0.0,0.0,0.0,0.0,0.0,0.0,0.0,0.0,0.0,0.0,0.0,2.8848,2.9226,0.0,0.0,0.0,0.0,0.0,0.0,0.0,0.0,0.0,0.0,0.0,0.0,0.0,3.926,4.1078,4.1621,4.2442,4.3474,4.2722,4.2901,4.3768,4.2962,4.2789,4.3033,4.1652,0.0,3.6755,3.5241,0.0,0.0,0.0,0.0,0.0,0.0,0.0,0.0,0.0,0.0,0.0,0.0,0.0,0.0,0.0,0.0,0.0,0.0,0.0,0.0,0.0,2.3661,2.5219,2.5967,2.7349,2.775,2.6795,0.0,0.0,0.0,0.0,0.0,2.4354,2.5625,2.8038,3.1599,3.3425,3.5669,3.8242,3.7584,3.7648,3.8257,3.6483,3.4297,3.1898,3.0921,0.0,0.0,0.0,0.0,0.0,0.0,0.0,0.0,0.0,0.0,0.0,0.0,0.0,0.0,0.0,0.0,0.0,0.0,0.0,0.0,0.0,0.0,0.0,0.0,0.0,0.0,0.0,0.0,0.0,0.0,0.0,0.0,0.0,0.0,0.0,0.0,0.0,0.0,0.0,2.8459,3.0205,3.1106,3.1133,3.0541,0.0,0.0,0.0,0.0,0.0,0.0,0.0,0.0,0.0,4.0669,4.1827,4.3405,4.5507,4.5795,4.6398,4.7375,4.6969,4.7113,4.7615,4.6692,4.6374,4.649,4.5354,4.4115,4.255,3.8796,3.6611,3.5378,0.0,0.0,0.0,0.0,3.045,3.1208,0.0,0.0,0.0,0.0,0.0,0.0,0.0,0.0,0.0,0.0,0.0,0.0,2.3541,2.6333,2.8577,2.9744,3.1106,3.1331,2.9898,2.8756,0.0,0.0,0.0,2.4984,2.5342,2.7815,3.1478,3.6237,3.7255,3.899,4.1384,4.0905,4.0846,4.1145,4.0778,3.8391,3.4539,3.3398,3.2051,3.0486,0.0,0.0,0.0,0.0,0.0,0.0,0.0,0.0,0.0,0.0,0.0,0.0,0.0,0.0,0.0,0.0,0.0,0.0,0.0,0.0,0.0,0.0,0.0,0.0,0.0,0.0,0.0,0.0,0.0,0.0,0.0,0.0,0.0,0.0,0.0,0.0,0.0,3.0852,3.2442,3.4087,3.4121,3.3537,0.0,0.0,0.0,0.0,0.0,0.0,3.9379,4.0949,4.2712,4.468,4.5665,4.7014,4.8865,4.904,4.9441,5.0138,5.0108,5.0168,5.0351,4.959,4.9345,4.9389,4.7995,4.7479,4.7192,4.207,3.9644,3.8881,3.6103,3.4718,3.4218,3.3953,3.4356,3.5161,0.0,0.0,0.0,0.0,0.0,0.0,0.0,0.0,0.0,0.0,0.0,2.4903,2.6243,2.9864,3.2497,3.3185,3.4304,3.4118,3.2076,3.1181,2.9762,2.7573,2.7195,2.6984,2.6903,3.1052,3.4861,3.8242,4.0187,4.2162,4.4107,4.4077,4.3708,4.314,4.311,4.1092,3.7582,3.5983,3.4449,3.2817,0.0,0.0,0.0,0.0,0.0,0.0,0.0,0.0,0.0,0.0,0.0,0.0,0.0,0.0,0.0,0.0,0.0,0.0,0.0,0.0,0.0,0.0,0.0,0.0,0.0,0.0,0.0,0.0,0.0,0.0,0.0,0.0,0.0,0.0,0.0,0.0,0.0,0.0,0.0,3.9469,3.9097,0.0,0.0,0.0,0.0,3.8531,4.0054,4.188,4.4113,4.5635,4.6878,4.784,4.9331,5.0209,5.0465,5.1057,5.1432,5.1589,5.1466,5.1498,5.1589,5.1432,5.1429,5.1452,4.9949,4.9359,4.9256,4.5202,4.2928,4.1821,4.0147,3.8849,3.8036,3.8802,3.9192,3.9411,0.0,0.0,0.0,0.0,0.0,0.0,0.0,0.0,0.0,2.1291,2.3653,2.6398,2.9418,3.3274,3.6447,3.8392,3.9278,3.8672,3.6258,3.4548,3.2373,2.9652,2.8898,2.9581,3.1773,3.5015,3.8063,4.0973,4.2491,4.4077,4.5562,4.5155,4.5065,4.5203,4.4796,4.3369,4.1212,3.8804,3.6724,3.4704,3.1946,2.988,0.0,0.0,0.0,0.0,0.0,0.0,0.0,0.0,0.0,0.0,0.0,0.0,0.0,0.0,0.0,0.0,0.0,0.0,0.0,0.0,0.0,0.0,0.0,0.0,0.0,0.0,0.0,0.0,0.0,0.0,0.0,0.0,0.0,0.0,0.0,0.0,0.0,4.1948,4.2455,0.0,4.188,4.1813,4.2245,4.3234,4.5568,4.7496,4.8781,5.0304,5.1249,5.1553,5.2127,5.2398,5.2464,5.2702,5.2838,5.2837,5.2838,5.2838,5.2837,5.2295,5.1787,5.131,5.045,4.9797,4.9244,4.747,4.5991,4.4733,4.364,4.2903,4.2552,4.2877,4.274,4.2465,0.0,0.0,0.0,0.0,0.0,0.0,0.0,0.0,0.0,2.2677,2.5484,2.8813,3.2766,3.6716,3.9888,4.1863,4.2334,4.1296,3.8427,3.6413,3.4129,3.1345,3.1359,3.3061,3.642,3.8841,4.1145,4.3399,4.4676,4.5783,4.6651,4.6172,4.6112,4.6249,4.5843,4.5076,4.3958,4.194,3.9538,3.6909,3.4788,3.278,3.088,0.0,0.0,0.0,0.0,0.0,0.0,0.0,0.0,0.0,0.0,0.0,0.0,0.0,0.0,0.0,0.0,0.0,0.0,0.0,0.0,0.0,0.0,0.0,0.0,0.0,0.0,0.0,0.0,0.0,0.0,0.0,0.0,0.0,0.0,0.0,4.3166,4.5399,4.6583,4.6989,4.6447,4.6887,4.7394,4.7902,5.0202,5.1826,5.2334,5.3315,5.3856,5.3856,5.3619,5.3518,5.3518,5.3518,5.3518,5.3518,5.3518,5.3518,5.3484,5.2942,5.2435,5.1928,5.1074,5.036,4.9817,4.8954,4.8055,4.7119,4.6122,4.5663,4.5518,4.5518,4.5131,4.4531,0.0,0.0,0.0,0.0,0.0,0.0,0.0,2.1224,2.2337,2.4728,2.8349,3.2254,3.6181,4.0104,4.271,4.3319,4.3296,4.1809,3.8385,3.6786,3.4953,3.2693,3.4667,3.7301,4.0457,4.2393,4.4077,4.5394,4.6711,4.7369,4.7369,4.7369,4.704,4.6369,4.6411,4.6179,4.5766,4.5344,4.2992,3.9487,3.7558,3.6077,3.48,0.0,0.0,0.0,0.0,0.0,0.0,0.0,0.0,0.0,0.0,0.0,0.0,0.0,0.0,0.0,0.0,0.0,0.0,0.0,0.0,0.0,0.0,0.0,0.0,0.0,0.0,0.0,0.0,0.0,0.0,0.0,0.0,0.0,4.0164,4.4113,4.7733,4.9965,5.1522,5.2401,5.2401,5.2401,5.2401,5.2401,5.3822,5.4668,5.4668,5.4634,5.4634,5.4634,5.389,5.3518,5.3518,5.3518,5.3518,5.3518,5.3518,5.3518,5.3518,5.3518,5.3484,5.3348,5.186,5.1183,5.1048,4.9593,4.9018,4.8849,4.7573,4.7,4.6853,4.6853,4.638,4.5635,0.0,0.0,0.0,0.0,0.0,0.0,0.0,2.1445,2.2667,2.5487,2.9126,3.3276,3.8063,4.1294,4.3718,4.5323,4.4546,4.2663,3.9756,3.8671,3.7653,3.6562,3.8193,4.0404,4.318,4.4665,4.6142,4.7459,4.8327,4.876,4.876,4.876,4.8626,4.8491,4.8623,4.8481,4.8104,4.8145,4.6914,4.4651,4.1546,3.9712,3.8523,0.0,0.0,0.0,0.0,0.0,0.0,0.0,0.0,0.0,0.0,0.0,0.0,0.0,0.0,0.0,0.0,0.0,0.0,0.0,0.0,0.0,0.0,0.0,0.0,0.0,0.0,0.0,0.0,0.0,0.0,0.0,0.0,4.4048,4.4147,4.753,5.0845,5.3078,5.4194,5.4769,5.4769,5.4769,5.4769,5.4769,5.5649,5.619,5.619,5.5683,5.5412,5.5412,5.416,5.3518,5.3518,5.3518,5.3518,5.3518,5.3518,5.3518,5.3518,5.3518,5.2909,5.1826,5.1386,5.0608,4.9593,4.9187,4.9018,4.8951,4.8575,4.844,4.8409,4.8409,4.7597,4.638,0.0,0.0,0.0,0.0,0.0,0.0,0.0,2.197,2.3532,2.6756,3.0212,3.4334,3.951,4.1987,4.3826,4.5191,4.3913,4.1943,3.9352,3.8739,3.8678,3.9126,4.1272,4.3419,4.5514,4.713,4.8207,4.8686,4.9344,4.9523,4.9299,4.9299,4.9344,4.9434,4.9658,4.9769,4.9837,5.0094,4.9792,4.8889,4.6452,4.4127,4.1897,3.9471,3.8275,3.7768,3.635,3.5578,3.4967,3.2765,0.0,0.0,0.0,0.0,0.0,0.0,0.0,0.0,0.0,0.0,0.0,0.0,0.0,0.0,0.0,0.0,0.0,0.0,0.0,0.0,0.0,0.0,0.0,0.0,4.5747,4.886,4.9974,5.1856,5.3721,5.5344,5.6156,5.663,5.663,5.663,5.663,5.663,5.7036,5.7273,5.7273,5.6292,5.5681,5.5681,5.4262,5.3518,5.3518,5.3518,5.3518,5.3518,5.3518,5.3518,5.3518,5.3518,5.301,5.2131,5.1455,5.071,4.9898,4.9255,4.9018,0.0,0.0,0.0,0.0,0.0,4.8003,4.7158,0.0,0.0,0.0,0.0,0.0,0.0,0.0,2.2622,2.4569,2.8054,3.1266,3.5095,4.0137,4.1919,4.2962,4.3449,4.1979,4.0151,3.8068,3.7986,3.8938,4.0949,4.3918,4.6172,4.7608,4.9299,5.0002,4.9584,5.0108,5.0108,4.9674,4.9674,4.9734,4.9958,5.0269,5.0752,5.1324,5.161,5.1926,5.2099,5.1335,4.8779,4.5191,4.3174,4.2365,4.2064,4.0446,3.9439,3.8698,3.7227,0.0,0.0,0.0,0.0,0.0,0.0,0.0,0.0,0.0,0.0,0.0,0.0,0.0,0.0,0.0,0.0,0.0,0.0,0.0,0.0,0.0,0.0,0.0,0.0,5.0783,5.351,5.613,5.6269,5.6331,5.694,5.7584,5.7991,5.7991,5.7991,5.7954,5.7918,5.7918,5.7918,5.7881,0.0,0.0,0.0,0.0,5.3518,5.3518,5.3518,5.3518,5.3518,5.3518,5.3518,5.3518,5.3518,5.345,5.3281,5.1928,5.1251,5.098,4.9661,4.9086,4.9018,4.9018,4.9018,4.8917,4.8274,4.7973,4.7804,0.0,0.0,0.0,0.0,0.0,0.0,0.0,2.2785,2.454,2.7565,3.066,3.4143,3.8299,3.9528,4.0296,4.0934,3.9398,3.829,3.8144,3.9355,4.1159,4.3717,4.5807,4.7788,4.9598,4.9986,5.0513,5.1164,5.1285,5.1469,5.1728,5.1728,5.1864,5.2133,5.2533,5.2885,5.3189,5.3618,5.3639,5.3346,5.3013,5.1611,4.9567,4.7478,4.6606,4.6201,4.4496,4.3662,4.2899,3.9821,3.8186,3.6908,3.3626,0.0,0.0,0.0,0.0,0.0,0.0,0.0,0.0,0.0,0.0,0.0,0.0,0.0,0.0,0.0,0.0,0.0,0.0,0.0,0.0,5.0823,5.4209,5.6767,5.7659,5.8218,5.8565,5.8357,5.8459,5.8527,5.8527,5.8527,5.8456,5.8135,5.8135,5.8063,5.7918,5.6494,5.5681,5.5681,5.4262,5.3518,5.3518,5.3518,5.3518,5.3518,0.0,0.0,5.3518,5.3518,5.3145,5.2536,5.2232,5.142,5.027,4.9999,4.9526,4.9018,4.9018,4.9018,4.8984,4.8849,4.8409,4.7872,0.0,0.0,0.0,0.0,0.0,0.0,0.0,2.2086,2.364,2.6703,2.8912,3.157,3.5239,3.6101,3.6627,3.7188,3.6755,3.6935,3.8086,4.0547,4.3028,4.5368,4.7592,4.9179,5.0166,5.0524,5.0993,5.1572,5.1711,5.2033,5.2487,5.2622,5.2815,5.3214,5.3465,5.3726,5.4071,5.4327,5.4348,5.4269,5.4144,5.3614,5.2672,5.0696,4.9716,4.9248,4.7921,4.6651,4.526,4.2862,4.1122,3.9475,3.6707,3.4331,3.214,0.0,0.0,0.0,0.0,0.0,0.0,0.0,0.0,0.0,0.0,0.0,0.0,0.0,0.0,4.3707,0.0,0.0,5.197,5.5026,5.7304,5.8804,5.9236,5.966,5.9681,5.908,5.9046,5.908,5.9012,5.8909,5.8702,5.8384,5.8277,5.8099,5.7918,5.6494,5.5681,5.5681,5.4262,5.3518,5.3518,5.3518,5.3518,5.3518,5.3518,5.3518,5.3518,5.3518,5.3281,5.2875,5.2469,5.1894,5.115,5.0405,4.9661,4.9018,4.9018,4.9018,4.9018,4.9018,4.8781,4.8477,0.0,0.0,0.0,0.0,0.0,0.0,0.0,0.0,2.2671,2.5432,2.6904,2.8816,3.1823,3.2399,3.2755,3.3293,3.4359,3.5922,3.8058,4.1603,4.4588,4.6749,4.9119,5.0439,5.0559,5.1099,5.1509,5.1711,5.1941,5.2352,5.2891,5.3126,5.354,5.41,5.4132,5.4442,5.4794,5.4825,5.4847,5.4836,5.4836,5.4719,5.4355,5.2716,5.1823,5.1242,5.0096,4.8363,4.6418,4.505,4.3285,4.1388,3.9532,3.7568,3.5381,3.2799,3.1409,0.0,0.0,0.0,0.0,0.0,0.0,0.0,0.0,0.0,4.3742,4.5475,4.7434,4.9903,5.3249,5.4373,5.5724,5.8716,5.9702,6.0172,6.0402,6.0413,6.0101,5.9229,5.9474,5.9681,5.9483,5.9318,5.8978,5.8596,5.835,5.8135,5.7918,5.663,5.5852,5.5681,5.4431,5.3653,5.3518,5.3518,5.3518,5.3518,5.3518,5.3518,5.3518,5.3518,5.3518,5.345,5.2638,5.23,5.2198,5.071,4.9729,4.9187,4.9052,4.9018,4.9018,4.9018,4.9018,4.9018,0.0,0.0,0.0,0.0,0.0,0.0,0.0,0.0,0.0,2.3491,2.5304,2.7083,2.8685,2.9022,2.9422,3.0119,3.2515,3.5267,3.8325,4.2504,4.5981,4.8589,5.0092,5.1183,5.1789,5.1849,5.2017,5.2215,5.2473,5.2966,5.3596,5.4028,5.473,5.5549,5.5762,5.5997,5.6257,5.6244,5.5808,5.5063,5.5063,5.4464,5.3509,5.299,5.2494,5.1788,4.9632,4.7968,4.6511,4.4757,4.3571,4.259,4.1184,3.9631,3.7941,3.5757,0.0,3.275,3.415,3.6564,3.875,3.9175,4.0113,4.118,0.0,0.0,4.8892,5.0493,5.3295,5.6012,5.7481,5.8394,5.9194,6.0076,6.0769,6.0912,6.0239,6.0052,5.9627,5.8716,5.9694,6.0419,6.0231,5.9876,5.9417,5.8702,5.8526,5.8312,5.7918,5.7137,5.6393,5.575,5.4905,5.416,5.3518,5.3518,5.3518,5.3518,5.3518,5.3518,5.3518,5.3518,5.3518,5.345,5.2638,5.23,5.2198,5.071,5.0033,4.9898,4.9255,4.9018,4.9018,4.9018,4.9018,4.9018,0.0,0.0,0.0,0.0,0.0,0.0,0.0,0.0,0.0,0.0,2.2994,2.4041,2.5505,2.5831,2.6381,2.7506,3.0505,3.3913,3.7653,4.2767,4.6837,4.955,5.1269,5.244,5.2979,5.2872,5.2916,5.3266,5.3684,5.4157,5.4697,5.5184,5.5693,5.6185,5.6153,5.6017,5.5857,5.5844,5.5552,5.5059,5.4951,5.4459,5.3608,5.2197,5.0957,4.974,4.8163,4.6248,0.0,0.0,4.1626,4.0883,3.9975,3.9286,3.8369,3.623,3.5492,0.0,3.7936,4.0202,4.2282,0.0,4.5233,4.7052,4.8835,5.1406,5.3827,5.528,5.7024,5.8573,5.9437,5.9835,6.0204,0.0,6.1193,6.1092,6.0218,5.9688,5.903,5.8103,5.7852,5.8053,5.8756,5.9064,5.8857,5.8119,5.8322,5.8348,5.7918,5.7205,5.6664,5.6359,5.5209,5.4431,5.4126,5.3721,5.3518,5.3518,5.3518,5.3518,5.3518,5.3518,5.3518,5.3484,5.3145,5.2739,5.2266,5.1623,5.0879,5.0067,4.9763,4.939,4.9018,4.9018,4.9018,4.9018,0.0,0.0,0.0,0.0,0.0,0.0,0.0,0.0,0.0,0.0,0.0,2.1784,2.3158,2.3386,2.4099,2.574,2.8779,3.2545,3.7049,4.2307,4.6617,4.9824,5.1831,5.3053,5.3503,5.3695,5.3883,5.4032,5.47,5.5162,5.5436,5.5978,5.6385,5.6696,5.6455,5.6235,5.5998,5.5998,5.5596,5.5008,5.4854,5.4171,5.2986,5.0788,4.8673,4.6782,4.5955,4.3913,0.0,0.0,3.8925,3.8346,3.7562,3.772,3.787,3.5881,3.6625,3.8517,4.0713,0.0,0.0,4.7368,4.9706,5.2073,5.4288,5.5909,5.7316,5.8456,5.8895,5.9195,5.9713,5.9545,5.9581,6.0493,6.073,6.0503,5.9745,5.8938,5.7989,5.6878,5.5688,5.5344,5.6234,5.7273,5.7686,5.7261,5.7773,5.797,5.7613,5.7273,5.7002,5.6799,5.575,5.5006,5.46,5.4059,5.3687,5.3518,5.3518,5.3518,5.3518,5.3518,5.3518,5.3518,5.3518,5.3179,5.2604,5.2401,5.1555,5.0371,5.0168,4.9627,4.9018,4.9018,4.9018,4.9018,0.0,0.0,0.0,0.0,0.0,0.0,0.0,0.0,0.0,0.0,0.0,0.0,0.0,2.2065,2.2954,2.513,2.7506,3.1251,3.6836,4.083,4.4875,4.912,5.1399,5.2663,5.3007,5.4376,5.4718,5.4095,5.5215,5.5663,5.5436,5.6144,5.6715,5.72,5.7091,5.7195,5.7433,5.7433,5.6544,5.5085,5.4822,5.3301,5.1033,4.8694,4.5925,4.33,4.287,0.0,0.0,3.6443,3.5735,3.5464,3.4011,3.5081,0.0,3.4979,3.7119,4.0359,0.0,0.0,4.8988,5.0984,5.3271,5.5458,5.7097,5.8044,5.8693,5.9239,5.8556,5.7914,5.8031,5.7328,5.7208,5.8725,5.8972,5.8879,5.8491,5.76,5.6364,5.4783,5.3682,5.2974,0.0,5.4579,5.5912,5.6235,5.6814,5.7046,5.6833,5.7476,5.7543,5.6833,5.6765,5.6055,5.46,5.4566,5.4194,5.3518,5.3518,5.3518,5.3518,5.3518,5.3518,5.3518,5.3518,5.3484,5.3416,5.2638,5.186,5.1116,5.0371,4.9627,4.9018,4.9018,4.9018,4.9018,0.0,0.0,0.0,0.0,0.0,0.0,0.0,0.0,0.0,0.0,0.0,0.0,0.0,0.0,0.0,0.0,2.6321,2.9412,3.3247,3.8253,4.2604,4.5962,4.8914,5.0784,5.1588,5.2754,5.3292,5.3034,5.4103,5.4461,5.4241,5.514,5.5576,5.5606,5.6046,5.6088,5.586,5.5715,5.5041,5.3983,5.2913,5.1343,4.924,4.5891,4.2982,4.0227,0.0,0.0,3.4813,3.3246,3.2679,3.2577,3.2104,3.2801,3.4207,3.6015,3.8611,4.169,4.529,0.0,5.1535,5.4021,5.5983,5.7579,5.8565,5.8497,5.7998,5.7287,5.5905,5.4606,5.3934,5.3783,5.4091,5.5104,5.6299,5.711,5.7078,5.644,5.5379,5.3802,5.2704,0.0,0.0,0.0,0.0,5.4895,5.6338,5.7154,5.7012,5.7582,5.778,5.7543,5.707,5.6562,5.6055,5.5074,5.4465,5.4228,5.3721,5.3518,5.3518,5.3518,5.3518,5.3518,5.3518,5.3518,5.3484,5.3213,5.2638,5.1928,5.1657,5.1116,5.0473,5.0473,5.0473,5.0338,0.0,0.0,0.0,0.0,0.0,0.0,0.0,0.0,0.0,0.0,0.0,0.0,0.0,0.0,0.0,0.0,0.0,2.7578,3.0742,3.4897,3.8791,4.2204,4.5166,4.7108,4.8061,4.9563,5.0205,4.9867,5.1421,5.195,5.1621,5.2807,5.3408,5.3478,5.3844,5.3859,5.3577,5.353,5.2692,5.1218,5.0,4.8264,4.6057,4.2386,3.9566,0.0,0.0,0.0,3.1153,3.0273,3.0345,3.0751,3.048,3.1799,3.4071,3.7103,4.0341,4.3828,4.7986,5.1263,5.4097,5.6756,5.8083,5.8858,5.9177,5.8053,5.6519,5.4985,5.2533,5.0484,4.9924,4.9717,5.014,5.1691,5.3694,5.5293,5.6133,5.5693,5.5003,5.4138,5.2908,5.2136,0.0,0.0,0.0,5.3923,5.5822,5.6953,5.678,5.7556,5.7954,5.7881,5.7442,5.707,5.6799,5.5852,5.5108,5.4566,5.4126,5.3754,5.3518,5.3518,5.3518,5.3518,5.3518,5.3518,5.3518,5.3518,5.3044,5.23,5.23,5.186,5.1185,5.1185,5.1185,5.105,0.0,0.0,0.0,0.0,0.0,0.0,0.0,0.0,0.0,0.0,0.0,0.0,0.0,0.0,0.0,0.0,0.0,0.0,2.9292,3.0892,3.3618,3.7937,4.0241,4.1825,4.2717,4.488,4.5603,4.4829,4.7191,4.8079,4.7638,4.9146,5.0126,5.0525,5.0429,5.0429,5.0596,5.0834,4.9437,4.703,4.6088,4.4163,4.1478,3.8199,0.0,0.0,0.0,0.0,0.0,0.0,0.0,0.0,0.0,3.2341,3.6186,3.8401,4.2367,4.6796,5.0103,5.3495,5.6664,5.9009,5.9473,5.9276,5.886,5.666,5.4188,5.2289,4.8495,4.5613,0.0,0.0,4.545,4.8443,5.1049,5.3384,5.5444,5.5351,5.5213,0.0,0.0,0.0,0.0,0.0,0.0,5.3514,0.0,5.6438,5.6303,5.7495,5.8099,5.7918,5.7881,5.7543,5.6867,5.6833,5.6089,5.4668,5.4668,5.4296,5.3585,5.3551,5.3551,5.3518,5.3518,5.3518,5.3518,5.3518,5.3044,5.2367,5.2367,5.1928,5.132,5.132,5.132,5.132,0.0,0.0,0.0,0.0,0.0,0.0,0.0,0.0,0.0,0.0,0.0,0.0,0.0,0.0,0.0,0.0,0.0,0.0,2.5745,2.7719,3.0095,3.2925,3.5104,3.6734,3.7915,3.9466,4.0132,3.9764,4.1484,4.2178,4.1936,4.3362,4.401,4.4007,4.4455,4.4712,4.4715,4.4431,4.3391,4.1814,0.0,3.8931,3.6646,0.0,0.0,0.0,0.0,0.0,0.0,0.0,0.0,0.0,0.0,3.6332,3.8865,4.2483,4.591,4.9293,5.2962,5.6168,5.8688,5.9444,5.942,5.8565,5.5812,5.3061,5.0224,4.7107,4.326,4.0423,0.0,0.0,0.0,4.3586,4.7169,0.0,5.3404,5.5112,0.0,5.6285,0.0,5.5872,5.4693,5.594,0.0,0.0,5.6431,5.7142,5.743,5.7908,5.8099,5.7918,5.7881,5.7814,5.7611,5.707,5.6396,5.5655,5.5655,5.5315,5.4667,5.4567,5.4194,5.3651,5.3551,5.3518,5.3518,5.3518,5.3382,5.3179,5.3179,5.3078,5.2909,5.2909,5.2909,5.2909,0.0,0.0,0.0,0.0,0.0,0.0,0.0,0.0,0.0,0.0,0.0,0.0,0.0,0.0,0.0,0.0,0.0,0.0,0.0,2.5169,2.6725,2.8653,3.0181,3.1577,3.2926,3.4007,3.4625,3.4793,0.0,0.0,3.6832,3.8196,3.8942,3.9154,3.9467,3.9662,3.9682,3.9401,0.0,0.0,0.0,0.0,0.0,0.0,0.0,0.0,0.0,0.0,0.0,0.0,0.0,3.5318,3.8633,4.117,4.3451,4.6364,0.0,5.2415,5.5638,5.8112,5.9817,5.9989,5.9087,5.7145,5.3294,4.9781,4.6266,4.2521,3.8821,0.0,0.0,0.0,0.0,0.0,0.0,0.0,5.3166,5.5189,5.6602,0.0,5.7783,0.0,5.6783,5.7719,5.8303,0.0,5.8058,5.811,5.8108,5.8393,5.8385,5.8027,5.8027,5.7991,5.7881,5.7476,5.7008,5.6506,5.6506,5.5996,5.5074,5.494,5.4431,5.3684,0.0,5.3518,5.3518,5.3518,5.3518,5.3518,5.3518,5.3518,5.3518,5.3518,5.3518,5.3518,0.0,0.0,0.0,0.0,0.0,0.0,0.0,0.0,0.0,0.0,0.0,0.0,0.0,0.0,0.0,0.0,0.0,0.0,0.0,0.0,0.0,2.527,2.5913,2.6894,2.8223,2.8878,2.946,2.9967,3.1353,0.0,0.0,0.0,0.0,0.0,0.0,0.0,0.0,0.0,0.0,0.0,0.0,0.0,0.0,0.0,0.0,0.0,0.0,0.0,0.0,0.0,3.7574,3.9039,4.2929,4.6046,4.8636,5.0039,5.2632,5.5487,5.7871,5.9416,6.0344,6.0231,5.8358,5.5312,5.076,4.6458,4.229,3.8249,0.0,3.2736,3.3401,3.3917,3.5659,3.9983,0.0,4.8317,5.3049,5.4984,5.6652,5.8612,5.882,5.8844,5.8995,5.9437,5.9898,6.0336,5.9781,5.9214,5.8674,5.8904,5.8771,5.8241,5.8171,5.8063,5.7881,5.7918,5.7722,5.7289,5.7359,5.6747,5.5548,5.5246,5.4702,5.3919,5.372,5.3653,5.3653,5.3754,5.3788,5.3788,5.3788,5.3788,5.3788,5.3788,5.3788,5.3788,0.0,0.0,0.0,0.0,0.0,0.0,0.0,0.0,0.0,0.0,0.0,0.0,0.0,0.0,0.0,0.0,0.0,0.0,0.0,0.0,0.0,0.0,2.3883,2.4357,2.5221,2.5356,2.5475,2.5594,2.6455,2.7197,0.0,0.0,0.0,0.0,0.0,0.0,0.0,0.0,0.0,0.0,0.0,0.0,0.0,0.0,0.0,0.0,0.0,0.0,0.0,0.0,3.9078,4.1508,4.6481,4.9221,5.1046,5.3274,5.5101,5.6725,5.8078,5.9633,6.0431,5.8642,5.6518,5.3228,4.7165,4.251,0.0,0.0,0.0,2.9031,3.023,3.0885,3.228,3.5476,0.0,0.0,0.0,0.0,5.6028,0.0,0.0,0.0,0.0,0.0,0.0,0.0,6.0552,6.0489,5.9832,5.9448,5.8909,5.8207,5.8027,5.7918,5.7881,5.8063,5.8246,5.8426,5.8565,5.8391,5.779,5.6707,5.5821,5.5068,5.4635,0.0,5.4465,5.5074,5.5344,5.5344,5.5344,5.5344,5.5344,5.5344,5.5344,5.5243,0.0,0.0,0.0,0.0,0.0,0.0,0.0,0.0,0.0,0.0,0.0,0.0,0.0,0.0,0.0,0.0,0.0,0.0,0.0,0.0,0.0,0.0,0.0,0.0,0.0,2.3932,2.4135,2.4508,0.0,2.5218,2.5557,2.5557,2.576,2.6082,2.5726,0.0,0.0,0.0,0.0,0.0,0.0,0.0,0.0,0.0,0.0,0.0,0.0,0.0,0.0,0.0,3.7443,4.0612,4.6989,5.0574,5.2739,5.4363,5.5928,5.7362,5.8422,5.9281,5.9507,5.7761,5.524,5.1503,4.5162,0.0,0.0,0.0,2.8464,2.7175,2.8559,0.0,0.0,0.0,0.0,0.0,0.0,0.0,0.0,0.0,0.0,0.0,0.0,0.0,0.0,0.0,6.0879,6.0914,6.0481,5.9911,5.9178,5.8324,5.8049,5.7669,5.7155,5.7635,5.8015,5.829,5.8772,5.8769,5.8274,5.7428,5.6609,5.5789,5.5382,5.5175,5.5209,5.5581,5.5681,5.5681,5.5681,5.5681,5.5681,5.5681,5.5681,5.5683,0.0,0.0,0.0,0.0,0.0,0.0,0.0,0.0,2.5394,2.627,2.6661,2.637,2.5148,2.408,0.0,0.0,0.0,0.0,0.0,0.0,0.0,0.0,0.0,0.0,0.0,0.0,0.0,2.4034,2.4034,0.0,0.0,0.0,0.0,0.0,2.4101,2.4034,2.4034,0.0,0.0,0.0,0.0,0.0,0.0,0.0,0.0,0.0,0.0,0.0,0.0,0.0,3.4708,3.7986,4.4575,4.9255,5.257,5.3956,5.5553,5.7124,5.829,5.8691,5.839,5.6764,5.3896,4.9813,4.3428,3.8359,0.0,0.0,2.6694,2.5887,2.7263,0.0,0.0,0.0,0.0,0.0,0.0,0.0,0.0,0.0,0.0,0.0,0.0,0.0,0.0,0.0,6.0878,6.0968,6.0818,6.0086,5.9286,5.85,5.8002,5.7357,5.6605,5.7223,5.7566,5.7701,5.8528,5.8629,5.8208,5.7808,5.7193,5.6508,5.6129,5.5953,5.5953,5.6122,5.619,5.619,5.619,5.619,5.619,5.619,5.619,5.6156,0.0,0.0,0.0,0.0,0.0,0.0,0.0,0.0,2.6762,2.8148,2.9124,2.9353,2.8632,2.5832,0.0,0.0,0.0,0.0,0.0,0.0,0.0,0.0,0.0,0.0,0.0,0.0,0.0,2.2482,2.2482,0.0,0.0,0.0,0.0,0.0,0.0,2.2482,2.2482,2.2482,0.0,0.0,0.0,0.0,0.0,0.0,0.0,0.0,0.0,0.0,0.0,0.0,0.0,3.3788,3.7749,4.3322,4.8984,5.1725,0.0,0.0,5.6881,5.7842,5.7802,5.5044,5.205,4.7972,4.1178,0.0,0.0,2.7449,2.5201,2.441,2.5765,2.7035,0.0,0.0,0.0,3.6972,0.0,0.0,0.0,0.0,0.0,0.0,0.0,0.0,0.0,0.0,6.0574,6.0848,6.0782,5.9774,5.9038,5.8745,5.7802,5.7131,5.69,5.7099,5.7166,5.7103,5.8029,5.8407,5.8337,5.7841,5.7535,5.7432,5.6946,5.6697,0.0,5.7408,5.7679,5.7679,5.7679,5.7679,5.7679,5.7679,5.7679,5.7577,0.0,0.0,0.0,0.0,0.0,0.0,0.0,2.5727,2.748,2.8537,2.9789,3.0355,2.974,2.78,0.0,0.0,0.0,0.0,0.0,0.0,0.0,0.0,0.0,0.0,0.0,0.0,2.2516,2.297,2.297,0.0,0.0,0.0,0.0,0.0,0.0,2.2313,2.2313,0.0,0.0,0.0,0.0,0.0,0.0,0.0,0.0,0.0,0.0,0.0,0.0,0.0,0.0,0.0,3.2494,3.5734,0.0,0.0,5.0096,5.2431,5.4398,5.5379,5.545,5.3604,5.0488,4.623,3.995,0.0,3.1208,2.6731,2.4762,2.4157,2.5075,2.6547,2.7751,0.0,0.0,0.0,0.0,0.0,0.0,0.0,0.0,0.0,0.0,0.0,0.0,5.9679,6.01,6.0264,6.0077,5.9846,5.9242,5.8223,5.7758,5.7105,5.632,5.6806,5.6869,5.6498,5.7198,5.7657,5.7908,5.7604,5.7637,5.7941,5.7586,5.7442,0.0,5.778,5.7881,5.7881,5.7881,5.7881,5.7881,5.7881,5.7881,5.7848,0.0,0.0,0.0,0.0,0.0,0.0,2.367,2.5633,2.7328,2.8138,2.9697,3.0553,2.9902,2.8906,2.7323,2.5036,0.0,0.0,0.0,0.0,0.0,0.0,0.0,0.0,0.0,0.0,2.3004,2.3729,2.3951,2.4052,0.0,0.0,2.3342,2.2632,0.0,0.0,0.0,0.0,0.0,0.0,0.0,0.0,0.0,0.0,0.0,0.0,0.0,0.0,0.0,0.0,0.0,0.0,0.0,0.0,0.0,0.0,4.5635,4.8376,5.1116,5.2181,5.2241,5.1049,4.7889,4.3636,0.0,0.0,3.0308,2.6245,2.4614,2.4133,2.4793,2.6077,2.7061,2.7063,0.0,3.3616,0.0,0.0,0.0,0.0,0.0,0.0,0.0,0.0,0.0,5.918,5.9371,5.9303,5.9051,5.9251,5.89,5.79,5.7585,5.7001,5.6077,5.646,5.6364,5.5792,5.6336,5.6702,5.685,5.7158,5.753,5.7865,5.7889,5.7881,0.0,5.7881,5.7881,5.7881,5.7881,5.7881,5.7881,5.7881,5.7881,5.7881,0.0,0.0,0.0,0.0,0.0,0.0,0.0,0.0,2.6125,2.6989,2.8967,3.0028,2.9297,2.8715,2.7648,2.5745,0.0,0.0,0.0,0.0,0.0,0.0,0.0,0.0,0.0,0.0,2.3763,2.4474,2.5236,2.5559,2.5559,2.4846,2.4101,2.3342,0.0,0.0,0.0,0.0,0.0,0.0,0.0,0.0,0.0,0.0,0.0,0.0,0.0,0.0,0.0,0.0,0.0,0.0,0.0,0.0,2.9311,0.0,4.0629,4.32,4.6955,4.8294,4.8352,4.6995,4.3781,3.9783,0.0,0.0,2.8269,2.5878,2.4711,2.4261,2.4804,2.5386,2.5928,2.6272,2.8844,0.0,0.0,0.0,0.0,0.0,0.0,0.0,0.0,0.0,5.8526,5.8702,5.8356,0.0,5.7724,5.761,5.7664,5.7999,5.7208,5.668,5.6383,5.6077,5.5619,5.5026,5.5412,5.5438,5.5142,5.6507,5.7117,5.7151,5.7686,5.7881,0.0,5.7881,5.7881,5.7881,5.7881,5.7881,5.7881,5.7881,5.7881,5.7881,0.0,0.0,0.0,0.0,0.0,0.0,0.0,0.0,2.4983,2.5227,2.7121,2.81,2.718,2.7429,2.6898,2.5018,0.0,0.0,0.0,0.0,0.0,0.0,0.0,0.0,0.0,0.0,2.4745,2.5997,2.6742,2.7148,2.7233,2.6486,2.5499,2.4334,2.3478,2.2838,0.0,0.0,0.0,0.0,0.0,0.0,0.0,0.0,0.0,0.0,0.0,0.0,0.0,0.0,0.0,0.0,0.0,0.0,0.0,2.9431,3.3964,3.8203,4.046,4.1588,4.2005,4.1319,3.9264,3.6444,3.2648,0.0,2.7947,2.511,2.4278,2.4109,2.421,2.5134,2.5997,2.6451,2.8971,0.0,0.0,0.0,0.0,0.0,0.0,0.0,0.0,0.0,5.7018,5.7565,5.7226,5.6934,5.6768,5.7146,5.7303,5.7172,5.7103,5.6881,5.6546,5.6209,5.5642,5.4772,5.4701,5.4694,5.4771,5.572,5.6396,5.6904,5.7613,5.7881,5.7881,5.7881,5.7881,5.7881,5.7881,5.7881,5.7881,5.7881,5.7881,5.7881,0.0,0.0,0.0,0.0,0.0,0.0,0.0,0.0,2.3846,2.3828,2.544,2.6321,2.5459,2.6112,2.5949,2.424,0.0,0.0,0.0,0.0,0.0,0.0,0.0,0.0,0.0,2.4391,2.5642,2.7131,2.845,2.9148,2.9256,2.849,2.7402,2.6062,2.4637,2.3599,0.0,0.0,0.0,0.0,0.0,0.0,2.2313,0.0,0.0,0.0,0.0,0.0,0.0,0.0,0.0,0.0,0.0,0.0,0.0,0.0,2.8334,3.2063,0.0,3.5846,3.6283,3.6048,3.4596,0.0,0.0,0.0,2.6725,2.4567,2.4351,2.4441,2.3982,2.5321,2.6545,2.6734,2.9679,0.0,0.0,0.0,0.0,0.0,0.0,0.0,0.0,5.6031,5.6372,5.685,5.6505,5.6275,5.6383,5.6721,5.6847,5.6733,5.6933,5.6855,5.6483,5.5978,5.5408,5.462,5.4205,5.4088,5.4194,5.4938,5.5683,5.6427,5.7171,5.7645,0.0,5.7881,5.7881,5.7881,5.7881,5.7881,5.7881,5.7881,5.7881,5.7881,0.0,0.0,0.0,0.0,0.0,0.0,0.0,0.0,0.0,0.0,0.0,2.4663,2.411,2.4826,0.0,0.0,0.0,0.0,0.0,0.0,0.0,0.0,0.0,0.0,0.0,2.4932,2.6404,2.7891,3.0176,3.137,3.1487,3.0651,2.9603,2.8303,2.5956,2.4447,0.0,0.0,0.0,0.0,0.0,0.0,0.0,0.0,0.0,0.0,0.0,0.0,0.0,0.0,0.0,0.0,0.0,0.0,0.0,0.0,0.0,0.0,0.0,0.0,0.0,0.0,0.0,0.0,0.0,0.0,0.0,2.4228,2.4784,2.5114,2.4111,2.5832,2.7344,2.7163,3.0838,0.0,0.0,0.0,0.0,0.0,0.0,0.0,0.0,5.6022,5.6434,5.6435,5.604,5.5966,5.643,5.6369,5.6429,5.66,5.6733,5.6617,5.6257,5.5519,5.4926,5.4463,5.3948,5.3617,5.3518,5.4262,5.5006,0.0,5.6494,5.7205,5.7881,5.7881,5.7881,5.7881,5.7881,5.7881,5.7881,5.7881,5.7881,5.7881,0.0,0.0,0.0,0.0,0.0,0.0,0.0,0.0,0.0,0.0,0.0,2.3325,0.0,0.0,0.0,0.0,0.0,0.0,0.0,0.0,0.0,0.0,0.0,0.0,0.0,2.5692,2.7199,2.8739,3.0939,3.2137,3.2281,3.1606,3.0607,2.9346,2.7011,2.477,2.2781,0.0,0.0,0.0,0.0,0.0,0.0,0.0,0.0,0.0,2.2313,2.2313,0.0,0.0,0.0,0.0,0.0,0.0,0.0,0.0,2.2863,2.335,2.45,0.0,2.6514,2.6623,2.6446,0.0,0.0,0.0,0.0,0.0,0.0,0.0,0.0,2.5965,2.7682,2.8139,3.1577,3.4594,0.0,0.0,0.0,0.0,0.0,0.0,5.5977,5.5784,5.5661,5.6091,5.5741,5.5653,5.604,5.6344,5.6591,5.676,5.6573,5.6265,5.5773,5.5134,5.4586,5.411,5.3849,5.3617,5.3518,5.4262,5.5006,5.575,5.6494,5.7205,5.7881,5.7881,5.7881,5.7881,5.7881,5.7881,5.7881,5.7881,5.7881,5.7881,0.0,0.0,0.0,0.0,0.0,0.0,0.0,0.0,0.0,0.0,0.0,0.0,0.0,0.0,0.0,0.0,0.0,0.0,0.0,0.0,0.0,0.0,0.0,0.0,2.4474,2.6285,2.7977,2.9499,3.1698,3.3236,3.4048,3.3459,3.2505,3.115,2.7557,2.4746,2.2708,2.2636,2.2528,2.2432,2.2363,0.0,0.0,0.0,0.0,0.0,2.2321,2.2335,0.0,2.2405,2.2432,2.2446,0.0,0.0,0.0,0.0,2.2689,2.2868,2.3384,2.4064,2.4622,2.4745,2.4906,2.4969,0.0,0.0,0.0,0.0,0.0,0.0,0.0,0.0,0.0,0.0,3.3031,0.0,0.0,0.0,0.0,0.0,0.0,0.0,0.0,5.5383,5.5366,5.6077,5.5992,5.609,5.6483,5.6724,5.6855,5.6881,5.6456,5.607,5.5636,5.4957,5.4399,5.398,5.3717,5.3584,5.3518,5.3923,5.4668,5.575,5.6122,5.69,5.7881,5.7881,5.7881,5.7881,5.7881,5.7881,5.7881,5.7881,5.7881,5.7881,0.0,0.0,0.0,0.0,0.0,0.0,0.0,0.0,0.0,0.0,0.0,0.0,0.0,0.0,0.0,0.0,0.0,0.0,0.0,0.0,0.0,0.0,0.0,2.3797,2.4643,2.686,2.8737,3.0277,3.2611,3.438,3.563,3.5322,3.4234,3.2299,2.7596,2.4593,2.3015,2.2889,2.2747,2.2636,2.2501,0.0,0.0,0.0,0.0,0.0,0.0,0.0,0.0,2.2582,2.2636,2.2649,2.2729,0.0,0.0,0.0,0.0,0.0,2.4189,2.442,2.4475,2.4615,2.4727,2.4849,0.0,0.0,0.0,0.0,0.0,0.0,0.0,0.0,0.0,0.0,0.0,0.0,0.0,0.0,0.0,0.0,0.0,0.0,5.5329,5.5312,5.5535,5.6206,5.6376,5.6577,5.6851,5.6876,5.6826,5.6649,5.6152,5.5758,5.5501,5.4799,5.4271,5.3948,5.3651,5.3518,5.3518,5.3518,5.4262,5.5547,0.0,0.0,5.7712,5.7848,5.7881,5.7881,5.7881,5.7881,5.7881,5.7881,5.7881,5.7881,0.0,0.0,0.0,0.0,0.0,0.0,0.0,0.0,0.0,0.0,0.0,0.0,0.0,0.0,0.0,0.0,0.0,0.0,0.0,0.0,0.0,0.0,2.3342,2.4052,2.5406,2.7638,2.9551,3.1021,3.3875,3.5125,3.4904,3.5715,3.3821,2.9601,2.6884,2.4746,2.3151,2.3077,2.2927,2.2747,2.2703,0.0,0.0,0.0,0.0,0.0,0.0,0.0,0.0,2.2649,2.2708,2.276,2.2838,0.0,0.0,0.0,0.0,0.0,2.43,2.5084,2.5656,2.5755,2.5817,2.5901,0.0,0.0,0.0,0.0,0.0,0.0,0.0,0.0,0.0,0.0,0.0,0.0,0.0,0.0,0.0,0.0,0.0,5.5317,5.6876,5.6932,5.6638,5.6097,5.6186,5.5958,5.5377,5.546,5.5413,5.5147,5.4813,5.467,5.4691,5.4364,5.4076,5.375,5.3584,5.3518,5.3518,5.3518,5.3957,5.4803,0.0,5.619,5.7036,5.7645,5.7881,5.7881,5.7881,5.7881,5.7881,5.7881,5.7881,5.7881,0.0,0.0,0.0,0.0,0.0,0.0,0.0,0.0,0.0,0.0,0.0,0.0,0.0,0.0,0.0,0.0,0.0,0.0,0.0,0.0,0.0,2.3966,2.5135,2.61,2.6776,2.9803,3.1901,3.2983,3.5182,3.6321,3.639,3.5139,3.2631,2.9133,2.6871,2.5004,2.3502,2.3424,2.3271,2.3102,0.0,0.0,0.0,0.0,0.0,0.0,0.0,0.0,0.0,0.0,2.3028,2.3077,2.3175,0.0,0.0,0.0,0.0,0.0,2.5075,2.5793,2.6357,2.7332,2.7188,2.6838,0.0,0.0,0.0,0.0,0.0,0.0,0.0,0.0,0.0,0.0,0.0,0.0,0.0,0.0,0.0,0.0,0.0,5.503,5.6221,5.5787,5.5522,5.5665,5.5736,5.566,5.5327,5.5327,5.5189,5.493,5.4578,5.4275,5.402,5.3977,5.392,5.3849,5.3618,5.3518,5.3518,5.3518,5.389,5.46,0.0,5.5513,5.6258,5.7002,5.7306,5.734,5.7746,5.7881,5.7881,5.7881,5.7881,5.7881,0.0,0.0,0.0,0.0,0.0,0.0,0.0,0.0,0.0,0.0,0.0,0.0,0.0,0.0,0.0,0.0,0.0,0.0,0.0,0.0,2.4,2.4745,2.7232,2.8601,2.8601,3.1935,3.41,3.5035,3.6592,3.7462,3.7668,3.4286,3.1497,2.9155,2.6974,2.518,2.3774,2.3703,2.356,2.3436,0.0,0.0,0.0,0.0,0.0,0.0,0.0,0.0,0.0,0.0,0.0,0.0,0.0,0.0,0.0,2.3638,2.3667,2.4042,2.5556,2.612,2.6686,2.8223,0.0,0.0,0.0,0.0,0.0,0.0,0.0,0.0,0.0,0.0,0.0,0.0,0.0,0.0,0.0,5.2821,5.3739,5.5133,5.4679,5.4561,5.5367,5.4802,5.4596,5.5147,5.5184,5.5119,5.5023,5.4935,5.4779,5.4537,5.4183,5.381,5.3451,5.3379,5.3502,5.3806,5.3616,5.3517,5.3518,5.3518,5.3822,5.4329,5.4532,5.4905,5.5513,5.6427,5.6799,5.6867,5.7611,5.7881,5.7881,5.7881,5.7881,5.7881,0.0,0.0,0.0,0.0,0.0,0.0,0.0,0.0,0.0,0.0,0.0,0.0,0.0,0.0,0.0,0.0,0.0,0.0,0.0,0.0,2.4745,2.5507,2.9025,3.0954,3.0954,3.322,3.5148,3.6626,3.8115,3.8292,3.718,3.3613,3.0957,2.9009,2.6923,2.5157,2.3815,2.381,2.3714,2.3573,2.3549,0.0,0.0,0.0,0.0,0.0,0.0,0.0,0.0,0.0,0.0,0.0,0.0,0.0,2.3793,2.3793,2.3789,2.3987,2.4947,2.5732,2.654,2.7554,2.8857,0.0,0.0,0.0,0.0,0.0,0.0,0.0,0.0,0.0,0.0,0.0,0.0,0.0,5.2894,0.0,5.3518,5.4363,5.4436,5.4693,5.55,5.5537,5.5185,5.4524,5.4451,5.4157,5.3408,5.335,5.3286,5.3142,5.2862,5.2821,5.3039,5.2368,5.2416,5.3178,5.3508,5.3617,5.3518,5.3518,5.3551,5.3619,5.4296,5.4634,5.4769,5.6224,5.6799,5.6867,5.7611,5.7881,5.7881,5.7881,5.7881,5.7881,0.0,0.0,0.0,0.0,0.0,0.0,0.0,0.0,0.0,0.0,0.0,0.0,0.0,0.0,0.0,0.0,0.0,0.0,0.0,0.0,2.4357,2.5559,2.8315,3.0499,3.1853,3.4561,3.6457,3.7483,3.7584,3.7024,3.5762,3.2628,3.0417,2.9009,2.7437,2.5961,2.4624,2.4641,2.4309,2.3779,2.3757,2.3635,0.0,0.0,0.0,0.0,0.0,0.0,0.0,0.0,2.3693,2.3739,2.38,2.3873,2.3925,2.3955,2.4032,2.4228,2.5053,2.5858,2.6673,2.7559,2.9342,0.0,0.0,0.0,0.0,0.0,0.0,0.0,0.0,0.0,0.0,0.0,0.0,5.1536,5.3665,5.3959,5.4252,5.506,5.4693,5.4509,5.4803,5.4399,5.3995,5.3702,5.3188,5.2784,5.2454,5.1977,5.1878,5.2249,5.2061,5.2137,5.251,5.2375,5.2298,5.224,5.2746,5.3176,5.3518,5.3518,5.3518,5.3518,5.3788,5.416,5.4668,5.5716,5.6393,5.6867,5.7611,5.7881,5.7881,5.7881,5.7881,5.7881,0.0,0.0,0.0,0.0,0.0,0.0,0.0,0.0,0.0,0.0,0.0,0.0,0.0,0.0,0.0,0.0,0.0,0.0,2.2313,2.3004,2.3951,2.5203,2.7402,2.945,3.121,3.3952,3.6084,3.755,3.6772,3.579,3.4514,3.2157,3.0315,2.8956,2.7991,2.6609,2.5049,2.5146,2.4694,2.3878,2.3915,2.3837,0.0,0.0,0.0,0.0,0.0,0.0,0.0,0.0,2.3863,2.3852,2.3925,2.3986,2.4036,2.4102,2.4151,2.4373,2.5191,2.5988,2.6859,0.0,0.0,0.0,0.0,0.0,0.0,0.0,0.0,0.0,0.0,0.0,0.0,0.0,4.8967,5.1169,5.3335,5.3628,5.3849,5.4399,5.3739,5.3261,5.3261,5.2784,5.2433,5.2433,5.194,5.161,5.161,5.1096,5.1018,5.1449,5.16,5.1748,5.194,5.2205,5.2174,5.1766,5.1993,5.249,5.3212,5.3416,5.3518,5.3518,5.3518,5.3923,5.4668,5.5412,5.6292,5.7205,5.7679,5.7881,5.7881,5.7881,5.7881,5.7881,0.0,0.0,0.0,0.0,0.0,0.0,0.0,0.0,0.0,0.0,0.0,0.0,0.0,0.0,0.0,0.0,0.0,0.0,2.2313,2.297,2.3729,2.4474,2.659,2.818,2.8976,3.1142,3.3749,3.6761,3.596,3.4888,3.3543,3.2326,3.0734,2.8817,2.8472,2.7049,2.4962,2.515,2.473,2.3935,2.4072,2.4052,2.3925,0.0,0.0,0.0,0.0,0.0,0.0,0.0,2.3996,2.3996,2.3996,2.4036,2.4112,2.4112,2.4151,2.4373,2.5191,2.5988,2.7005,0.0,0.0,0.0,0.0,0.0,0.0,0.0,0.0,0.0,0.0,0.0,0.0,4.6856,4.8526,5.0161,5.1756,5.1977,5.1977,5.1977,5.1279,5.0802,5.0802,5.0802,5.0802,5.0802,5.0802,5.0802,5.0802,5.0765,5.0765,5.0802,5.1449,5.1645,5.1405,5.167,5.1841,5.1899,5.1275,5.1565,5.2597,5.3212,5.3518,5.3518,5.3518,5.3923,5.4634,5.5412,5.6596,5.7881,5.7881,5.7881,5.7881,5.7881,5.7881,5.7881,0.0,0.0,0.0,0.0,0.0,0.0,0.0,0.0,0.0,0.0,0.0,0.0,0.0,0.0,0.0,0.0,0.0,0.0,2.2313,2.2482,2.297,2.3695,2.5386,2.6707,2.7504,2.9733,3.1803,3.3647,3.341,3.2842,3.1978,3.0742,3.0231,3.0325,2.9452,2.8461,2.7404,2.7086,2.6483,2.5753,2.5826,2.5507,2.4974,0.0,0.0,0.0,0.0,0.0,0.0,0.0,0.0,0.0,2.4046,2.4066,2.4122,2.4161,2.418,2.4373,2.5191,2.6796,0.0,0.0,0.0,0.0,0.0,0.0,0.0,0.0,0.0,0.0,0.0,0.0,0.0,4.6929,4.8526,4.9978,5.1022,5.1169,5.1169,5.1169,5.0949,5.0802,5.0802,5.0802,5.0802,5.0802,5.0288,4.9978,4.9978,4.937,4.9334,4.9941,5.0688,5.1302,5.1703,5.2032,5.2078,5.1856,5.17,5.2013,5.2757,5.2833,5.3241,5.3816,5.3684,5.4092,5.4805,5.5988,5.7036,5.7881,5.7881,5.7881,5.7881,5.7881,5.7881,5.7881,0.0,0.0,0.0,0.0,0.0,0.0,0.0,0.0,0.0,0.0,2.2313,2.2313,0.0,0.0,0.0,0.0,0.0,0.0,0.0,2.2313,2.2632,2.3376,2.4603,2.5939,2.7401,2.8476,2.945,3.028,3.1089,3.1293,3.0927,3.0297,3.0369,3.0973,3.0198,2.9201,2.7969,2.7437,2.6746,2.6025,2.6114,2.5815,2.5411,0.0,0.0,0.0,0.0,0.0,0.0,0.0,0.0,0.0,2.4141,0.0,2.4637,2.4667,2.4677,2.4934,2.6035,2.7897,0.0,0.0,0.0,0.0,0.0,0.0,0.0,0.0,0.0,0.0,0.0,4.6049,0.0,4.7443,4.8416,4.937,5.0215,5.0325,5.0325,5.0325,5.0031,4.9811,4.9811,4.9811,4.9811,4.9811,4.937,4.9077,4.9077,4.86,4.8526,4.9077,4.9884,5.0485,5.0837,5.1595,5.1821,5.1407,5.1537,5.1997,5.2666,5.2798,5.3188,5.3764,5.4249,5.4697,5.5209,5.6541,5.7356,5.7799,5.7961,5.8027,5.7991,5.7918,5.7881,5.7881,0.0,0.0,0.0,0.0,0.0,0.0,0.0,0.0,0.0,0.0,2.2313,2.2313,0.0,0.0,0.0,0.0,0.0,0.0,0.0,0.0,2.2646,2.3405,2.4275,2.5794,2.7978,2.7441,2.7109,2.704,2.9042,3.0081,3.022,3.0559,3.0855,3.1112,3.0782,2.9466,2.75,2.6866,2.6219,2.5533,2.5501,2.5521,2.5485,2.5411,0.0,0.0,0.0,0.0,0.0,0.0,0.0,0.0,2.419,2.475,2.5411,2.5411,2.5411,2.5742,2.7357,0.0,0.0,0.0,0.0,0.0,0.0,0.0,0.0,0.0,0.0,0.0,4.7333,4.7223,4.7443,4.8196,4.8306,4.86,4.939,4.95,4.95,4.95,4.8783,4.8306,4.8306,4.8306,4.8306,4.8306,4.8306,4.8306,4.8306,4.8306,4.8306,4.8306,4.915,4.9551,4.9395,5.0684,5.1162,5.089,5.1123,5.1589,5.2414,5.2903,5.3245,5.3452,5.4937,5.5593,5.5768,5.7051,5.7603,5.7672,5.8112,5.8243,5.8171,5.7991,5.7918,5.7918,0.0,0.0,0.0,0.0,0.0,0.0,0.0,0.0,0.0,0.0,0.0,0.0,0.0,0.0,0.0,0.0,0.0,0.0,0.0,0.0,2.2801,2.3516,2.5036,2.613,2.675,2.6743,2.6451,2.5876,2.7191,2.8183,2.8852,2.9658,3.0798,3.2121,3.1138,3.0174,2.9266,2.8041,2.7409,2.7226,2.6576,2.6355,2.6282,2.5631,2.4897,0.0,0.0,0.0,0.0,0.0,0.0,0.0,2.419,2.475,2.5411,2.5411,2.5411,2.5742,0.0,2.9916,0.0,0.0,0.0,0.0,0.0,0.0,0.0,0.0,0.0,0.0,4.8086,4.8049,4.8122,4.8269,4.8306,4.8379,4.8563,4.86,4.86,4.86,4.8416,4.8306,4.8306,4.8306,4.8306,4.8306,4.8306,4.8306,4.8306,4.8306,4.8306,4.8306,4.915,4.9591,4.9571,5.0346,5.1003,5.1449,5.1266,5.1562,5.2233,5.2216,5.2857,5.4046,5.5019,5.5637,5.6015,5.692,5.7586,5.8044,5.86,5.8667,5.8419,5.8207,5.8169,5.8169,0.0,0.0,0.0,0.0,0.0,0.0,0.0,0.0,0.0,0.0,0.0,0.0,0.0,0.0,0.0,0.0,0.0,0.0,0.0,0.0,0.0,2.377,2.5094,2.589,2.6008,2.5791,2.5467,2.5065,2.6043,2.7267,2.8676,2.9604,3.0783,3.2039,3.1136,3.0012,2.8675,2.7661,2.6979,2.6623,2.6172,2.6025,2.5988,2.5558,2.4897,2.419,2.419,0.0,0.0,0.0,0.0,0.0,0.0,0.0,2.5411,2.5411,2.5411,2.5852,0.0,0.0,0.0,0.0,0.0,0.0,0.0,0.0,0.0,0.0,0.0,4.8196,4.7773,4.7736,4.7736,4.7736,4.7736,4.7846,4.8269,4.8306,4.8306,4.8306,4.8306,4.8306,4.8306,4.8306,4.8306,4.8306,4.8306,4.8306,4.8306,4.8306,4.8306,4.8306,4.8746,4.8967,4.8967,4.9675,5.0195,5.0535,5.1086,5.1692,5.2384,5.2498,5.3336,5.4827,5.5253,5.5773,5.6381,5.7046,5.7645,5.8167,5.855,5.8634,5.8562,5.8419,5.8348,5.8348,0.0,0.0,0.0,0.0,0.0,0.0,0.0,0.0,0.0,0.0,0.0,0.0,0.0,0.0,0.0,0.0,0.0,0.0,0.0,0.0,0.0,2.4034,2.4971,2.5491,2.5458,2.4932,2.4622,2.4479,2.5565,2.7108,0.0,0.0,3.0802,3.1658,3.1074,2.961,2.7476,2.6856,2.6135,2.5384,2.5237,2.5274,2.5394,2.5247,2.4806,2.4199,2.4199,2.4199,2.419,2.419,0.0,0.0,0.0,0.0,2.5411,2.5411,2.5411,2.5888,0.0,0.0,0.0,0.0,0.0,0.0,0.0,0.0,0.0,0.0,0.0,4.7846,4.7039,4.6892,4.6892,4.6892,4.6892,4.7113,4.7792,4.7902,4.7939,4.8086,4.8086,4.8086,4.8086,4.8086,4.8086,4.8086,4.8086,4.8159,4.8306,4.8306,4.8306,4.8306,4.8306,4.8306,4.8306,4.8905,4.9248,4.9411,5.0772,5.1849,5.2649,5.2954,5.3938,5.5389,5.5482,5.5959,5.6697,5.7251,5.7726,5.8219,5.8342,5.8523,5.8771,5.8631,5.8561,5.8561,0.0,0.0,0.0,0.0,0.0,0.0,0.0,0.0,0.0,0.0,2.2313,0.0,0.0,0.0,0.0,0.0,0.0,0.0,0.0,0.0,0.0,2.4405,2.5333,2.554,2.4908,2.4996,2.4686,2.4008,2.6229,0.0,0.0,0.0,0.0,3.1902,0.0,2.9678,2.7627,2.69,2.6135,2.5348,2.4642,2.4808,2.5407,2.4709,2.4321,2.421,2.421,2.4191,2.419,2.419,2.419,0.0,0.0,0.0,2.5411,2.5411,2.5411,2.5778,0.0,0.0,0.0,0.0,0.0,0.0,0.0,0.0,0.0,0.0,4.6709,4.7003,4.6214,4.6067,4.6067,4.6067,4.6067,4.6104,4.6214,4.6214,4.6471,4.7186,4.7259,4.7259,4.7259,4.7259,4.7259,4.7259,4.7259,4.7553,4.8269,4.8306,4.8306,4.8306,4.8306,4.8306,4.8306,4.8397,4.8779,4.9411,5.0879,5.1981,5.2761,5.2699,5.3505,5.4942,5.5404,5.5979,5.6662,5.7322,5.7854,5.8319,5.8694,5.8855,5.8944,5.8806,5.8736,5.8702,0.0,0.0,0.0,0.0,0.0,0.0,0.0,0.0,0.0,0.0,0.0,2.2419,0.0,0.0,0.0,0.0,0.0,0.0,0.0,0.0,0.0,0.0,2.4487,2.459,2.4295,2.4413,2.433,2.3966,0.0,0.0,0.0,3.1053,3.201,0.0,0.0,0.0,0.0,2.691,2.5888,2.4715,2.4385,2.4506,2.4866,2.4478,2.4303,2.4257,2.4192,2.4191,2.419,2.419,2.4209,2.4191,2.4191,0.0,0.0,0.0,2.4743,0.0,2.7787,0.0,0.0,0.0,0.0,0.0,0.0,0.0,0.0,4.4562,4.4488,4.4599,4.5149,4.5223,4.5223,4.5223,4.5223,4.5406,4.5847,4.5883,4.603,4.6397,4.6434,4.6434,4.6434,4.6434,4.6434,4.6434,4.6434,4.6581,4.6948,4.6948,4.7168,4.759,4.7626,4.7846,4.8306,4.8306,4.8612,4.9293,5.0235,5.1107,5.186,5.1981,5.3063,5.481,5.4963,5.5651,5.6671,5.6786,5.7178,5.7541,5.7381,5.7684,5.8221,5.8187,5.8393,5.8737,0.0,0.0,0.0,0.0,0.0,0.0,0.0,0.0,0.0,0.0,0.0,0.0,0.0,0.0,0.0,0.0,0.0,0.0,0.0,0.0,0.0,0.0,0.0,2.3878,2.3955,2.4016,2.4036,0.0,0.0,0.0,2.9771,3.1391,3.2557,0.0,3.1836,3.0027,0.0,0.0,0.0,0.0,0.0,2.4376,0.0,0.0,0.0,2.4663,2.4589,0.0,0.0,0.0,0.0,0.0,2.4257,2.4294,0.0,0.0,0.0,0.0,0.0,0.0,0.0,0.0,0.0,0.0,0.0,0.0,0.0,0.0,4.2286,4.2359,4.3553,4.3957,4.4085,4.4085,4.4268,4.4599,4.5223,4.5296,4.5369,4.5553,4.559,4.559,4.559,4.559,4.559,4.559,4.559,4.5663,4.5883,4.5883,4.6177,4.6782,4.7003,4.7369,4.7993,4.8138,4.8533,4.9154,4.9459,5.0114,5.1009,5.1189,5.2359,5.419,5.422,5.4952,5.6071,5.5984,5.6233,5.6681,5.6199,5.6491,5.7295,5.7535,5.7947,5.8462,0.0,0.0,0.0,0.0,0.0,0.0,0.0,0.0,0.0,0.0,0.0,0.0,0.0,2.299,2.3151,2.3378,0.0,0.0,0.0,0.0,0.0,0.0,0.0,0.0,2.4112,2.4161,2.418,0.0,0.0,0.0,2.9085,3.0711,3.1885,3.2606,3.1712,3.043,2.8828,0.0,0.0,0.0,0.0,0.0,0.0,0.0,0.0,0.0,0.0,0.0,0.0,0.0,0.0,0.0,0.0,0.0,0.0,0.0,0.0,0.0,0.0,0.0,0.0,0.0,0.0,0.0,0.0,0.0,0.0,0.0,4.0671,4.1168,4.1279,4.1902,4.2433,4.2433,4.3057,4.3588,4.3625,4.3608,4.3901,4.4672,4.4764,4.4764,4.4764,4.4764,4.4764,4.4764,4.4764,4.5112,4.5847,4.5883,4.592,4.5957,4.6709,4.7113,4.7149,4.7746,4.8352,4.8992,4.872,4.9323,5.0713,5.0481,5.117,5.2564,5.2999,5.3662,5.447,5.482,5.5344,5.5949,5.5694,5.5884,5.6372,5.7124,5.7466,5.7603,0.0,0.0,0.0,0.0,0.0,0.0,0.0,0.0,0.0,0.0,0.0,0.0,0.0,2.3247,2.3435,2.3569,2.3789,0.0,0.0,0.0,0.0,0.0,0.0,0.0,0.0,2.418,0.0,0.0,0.0,2.8227,2.9023,3.065,3.1825,3.2546,3.1176,3.0002,2.8913,2.7824,0.0,0.0,0.0,0.0,0.0,0.0,0.0,0.0,0.0,0.0,0.0,0.0,0.0,0.0,0.0,0.0,0.0,0.0,0.0,0.0,0.0,0.0,0.0,0.0,0.0,0.0,0.0,0.0,3.5018,3.5826,3.6633,3.7499,3.8579,4.0304,4.1552,4.1552,4.1772,4.1956,4.1956,4.1956,4.2249,4.3057,4.3167,4.3167,4.3167,4.3167,4.3167,4.3167,4.3167,4.3497,4.4305,4.4342,4.4599,4.5112,4.592,4.6838,4.7846,4.7965,4.8097,4.8229,4.8321,4.8875,4.9793,4.9983,5.0619,5.1635,5.2565,5.3491,5.4349,5.485,5.5218,5.5436,5.5126,5.5386,5.6048,5.6841,5.7395,5.7877,0.0,0.0,0.0,0.0,0.0,0.0,0.0,0.0,0.0,0.0,0.0,0.0,0.0,0.0,2.4011,2.4183,2.4377,2.4368,2.4141,2.4141,0.0,0.0,0.0,0.0,0.0,0.0,0.0,0.0,0.0,0.0,0.0,2.9843,3.087,3.1335,3.0271,2.9647,0.0,0.0,0.0,2.6304,0.0,0.0,2.6191,0.0,0.0,0.0,0.0,0.0,0.0,0.0,0.0,0.0,0.0,0.0,0.0,0.0,0.0,0.0,0.0,0.0,0.0,0.0,0.0,0.0,0.0,0.0,3.1702,3.2779,3.3844,3.5004,3.6413,3.8212,3.9753,4.0561,4.0912,4.1095,4.1095,4.1095,4.1279,4.1846,4.1919,4.1919,4.1919,4.1919,4.1919,4.1919,4.2139,0.0,4.3057,4.3368,4.3975,4.5076,4.5626,4.6654,4.8269,4.8131,4.7992,4.7854,4.8034,4.8452,4.9089,4.9624,5.0257,5.1047,5.2422,5.3296,5.3911,5.475,5.5074,5.5074,5.483,5.505,5.5605,5.6368,5.7101,5.7831,0.0,0.0,0.0,0.0,0.0,0.0,0.0,0.0,0.0,2.3577,0.0,0.0,0.0,0.0,0.0,2.5204,2.534,2.5117,2.43,2.4263,0.0,0.0,0.0,0.0,0.0,0.0,0.0,0.0,0.0,0.0,0.0,0.0,2.8987,2.8987,2.8987,2.9427,3.0063,0.0,2.7857,2.7837,0.0,2.6787,2.6857,0.0,0.0,0.0,2.9603,2.911,0.0,2.8409,0.0,0.0,0.0,0.0,0.0,0.0,0.0,0.0,0.0,0.0,0.0,0.0,0.0,0.0,2.6355,0.0,2.9354,3.0956,3.2559,3.3954,3.4747,3.5591,3.6964,3.935,4.0451,4.0948,4.0985,4.0985,4.1022,4.1058,4.1058,4.1058,4.1058,4.1058,4.1058,4.1058,4.1809,4.2286,4.2286,4.3057,4.4232,4.581,4.5883,4.6654,4.8269,4.8209,4.8148,4.7992,4.7804,4.8034,4.8626,4.9401,5.0088,5.0915,5.2497,5.3112,5.3061,5.4381,5.4918,5.4948,5.4948,5.4948,5.5053,5.5788,5.6554,5.7355,0.0,0.0,0.0,0.0,0.0,0.0,0.0,0.0,0.0,0.0,0.0,0.0,2.5354,2.5661,2.5907,2.6118,2.6203,2.6172,2.5952,2.5952,2.5952,2.5952,2.5952,0.0,0.0,0.0,0.0,0.0,0.0,0.0,0.0,0.0,0.0,0.0,2.8987,2.9133,2.9317,2.884,0.0,0.0,2.7653,2.7622,0.0,0.0,0.0,0.0,0.0,3.2131,3.0899,0.0,2.9054,2.6341,0.0,0.0,0.0,0.0,0.0,0.0,2.4284,0.0,0.0,0.0,0.0,0.0,2.4814,2.6098,2.7372,2.786,2.9659,3.1458,3.2265,3.3073,3.4197,3.6068,3.7074,3.7845,3.8395,3.8505,3.8909,4.0084,4.023,4.023,4.023,4.023,4.023,0.0,4.1001,4.1682,4.2286,4.3042,4.3851,4.4803,4.5462,4.6341,4.733,4.7914,4.8187,4.8148,4.7891,4.8167,4.8901,4.9647,5.0398,5.1171,5.2797,5.3771,5.4338,5.5044,5.5686,5.6221,5.6221,5.6221,5.6292,5.7084,5.7726,5.8332,0.0,0.0,0.0,0.0,0.0,0.0,0.0,0.0,0.0,0.0,0.0,0.0,2.717,2.7808,2.8143,2.7969,2.7731,2.7446,2.7126,2.6796,2.6602,2.6602,2.6602,2.6602,2.6602,0.0,0.0,2.6602,2.742,2.7798,2.7824,0.0,0.0,0.0,0.0,0.0,0.0,0.0,0.0,0.0,2.8346,0.0,0.0,2.995,3.098,0.0,0.0,0.0,3.1986,3.2414,3.0415,0.0,0.0,0.0,0.0,0.0,0.0,0.0,0.0,0.0,0.0,0.0,0.0,0.0,2.419,2.5181,2.6172,0.0,2.8007,2.9549,3.0687,3.1274,3.2032,3.328,3.3917,3.4922,3.6758,3.7015,3.7492,3.8741,3.8888,3.9035,3.935,3.9386,3.9386,3.9386,4.0157,4.1095,4.2199,4.2938,4.3652,4.44,4.5333,4.6194,4.6999,4.7843,4.8246,4.8246,4.8092,4.8251,4.8741,4.9904,5.0626,5.1136,5.2739,5.3882,5.46,5.5196,5.6038,5.6897,5.6845,5.6819,5.6891,5.7227,5.7773,5.8478,0.0,0.0,0.0,0.0,0.0,0.0,0.0,0.0,0.0,0.0,2.8415,2.8564,2.934,3.0354,3.078,3.0183,2.9612,2.895,2.8239,2.753,2.7126,2.7126,2.7053,2.7005,2.7005,2.6895,2.6859,2.6859,2.7567,2.7934,2.7934,0.0,0.0,0.0,0.0,0.0,0.0,0.0,0.0,2.9133,2.9133,2.9244,0.0,0.0,3.1236,3.2219,3.3882,3.3524,3.2352,3.2862,3.1166,0.0,0.0,0.0,0.0,0.0,2.5282,0.0,0.0,0.0,0.0,0.0,0.0,0.0,2.4226,2.4824,2.5595,2.6319,2.7126,2.8081,2.9549,2.9806,3.0063,3.0883,3.1103,3.2265,3.5569,3.6009,3.6354,3.7272,3.7382,3.7639,3.8358,3.8505,3.8579,3.8579,3.946,4.0643,4.2079,4.2795,4.3506,4.4198,4.5222,4.6119,4.6834,4.7808,4.8306,4.8306,4.8306,4.8287,4.836,4.9938,5.0688,5.0815,5.2354,5.3426,5.4194,5.4998,5.6017,5.7105,5.7051,5.701,5.6959,5.6733,5.7209,5.808,2.3542,0.0,0.0,0.0,0.0,0.0,0.0,0.0,0.0,0.0,3.0371,3.0009,0.0,0.0,0.0,3.0985,3.0943,3.087,3.0699,3.0552,3.0467,3.0467,2.9843,2.9512,2.9512,2.884,2.8546,2.8546,2.8693,2.8767,2.8767,2.8913,0.0,0.0,0.0,0.0,0.0,0.0,0.0,2.9989,2.9989,0.0,3.2008,3.2856,3.3742,3.4713,3.6403,3.6001,3.4376,3.2724,3.1386,3.018,0.0,0.0,0.0,0.0,0.0,0.0,0.0,0.0,0.0,0.0,0.0,0.0,2.4337,2.4824,2.5448,0.0,2.6282,2.6943,2.7226,2.7299,2.7567,2.8374,2.9035,3.0601,3.3844,3.4284,3.4835,3.6354,3.6523,3.6597,3.6743,3.7345,3.7749,3.7749,3.958,4.1075,4.1904,4.2595,4.3029,4.3134,4.4704,4.5675,4.5878,4.7477,4.8306,4.8306,4.8306,4.8267,4.8263,4.9232,4.9898,5.035,5.1318,5.249,5.3756,5.4472,5.539,5.6455,5.7084,5.7188,5.6984,5.6933,5.728,5.7872,2.4496,0.0,0.0,0.0,0.0,0.0,0.0,0.0,0.0,0.0,3.3164,0.0,0.0,0.0,0.0,0.0,0.0,0.0,0.0,0.0,3.1397,3.1397,3.1017,3.0797,3.0797,3.0393,2.9989,2.961,2.961,2.961,2.9574,2.9207,0.0,0.0,0.0,0.0,0.0,0.0,2.9684,3.076,3.0356,0.0,3.2693,3.3516,3.4375,3.528,3.655,3.6238,3.4903,3.2583,3.1853,0.0,0.0,2.8517,2.7982,0.0,2.7001,2.6633,0.0,0.0,0.0,2.6098,0.0,0.0,0.0,2.5117,2.5411,2.5411,2.5705,2.6135,2.6539,2.6282,2.6245,2.7053,2.7897,2.9097,3.1115,3.2082,3.3073,3.4321,3.4798,3.5202,3.5605,3.6413,3.7088,3.7456,3.8821,4.0131,4.1285,4.1978,4.2465,4.2861,4.4231,4.5146,4.5585,4.6981,4.7901,4.8265,4.8265,4.8151,4.8028,4.8826,4.9443,5.0031,5.0805,5.1726,5.2798,5.3925,5.4619,5.5112,5.6351,5.6767,5.6608,5.6311,5.6451,5.6914,2.5631,0.0,0.0,0.0,0.0,0.0,0.0,0.0,0.0,0.0,0.0,0.0,0.0,0.0,0.0,0.0,0.0,0.0,0.0,0.0,0.0,0.0,3.1788,3.1678,3.1874,3.158,3.1103,3.043,3.043,3.043,3.043,2.9757,0.0,0.0,0.0,0.0,0.0,0.0,0.0,3.1568,0.0,3.1678,3.2913,3.355,3.4504,3.5555,3.6083,3.5837,3.4877,3.2625,3.2277,3.2412,3.0572,2.9813,0.0,0.0,0.0,0.0,0.0,0.0,0.0,0.0,0.0,2.5778,0.0,0.0,0.0,2.5191,2.5154,0.0,0.0,0.0,0.0,0.0,0.0,0.0,0.0,2.9549,0.0,3.2216,3.2926,3.366,3.4454,3.5312,3.6156,3.6978,3.7729,3.8749,3.9991,4.1107,4.1994,4.261,4.3796,4.4783,4.5585,4.6615,4.7478,4.8187,4.8187,4.8032,4.7809,4.8394,4.9017,4.9739,5.0293,5.1024,5.1869,5.3274,5.3859,5.3958,5.5659,5.6265,5.6118,5.5636,5.5613,5.5928,2.696,2.7197,0.0,0.0,0.0,0.0,0.0,0.0,0.0,0.0,0.0,0.0,0.0,0.0,0.0,0.0,0.0,0.0,3.4821,0.0,0.0,0.0,0.0,0.0,3.3513,3.2131,3.136,3.125,3.125,3.125,3.125,3.1176,0.0,0.0,3.1176,0.0,0.0,0.0,3.2289,0.0,3.3146,3.3513,0.0,3.377,3.5202,3.7125,3.6523,3.5845,3.4944,0.0,3.2207,3.1812,0.0,3.1875,3.1225,0.0,0.0,0.0,0.0,0.0,0.0,0.0,2.7603,0.0,0.0,0.0,2.5191,2.4493,0.0,0.0,0.0,0.0,0.0,0.0,0.0,0.0,2.5815,2.6576,2.8227,3.1213,3.1617,3.1971,3.2803,3.3623,3.4431,3.5224,3.6604,3.7432,3.7419,4.0165,4.1704,4.1756,4.3429,4.4744,4.5585,4.6615,4.7478,4.8187,4.8187,4.8028,4.7699,4.7666,4.829,4.9365,4.9316,5.0133,5.1602,5.2325,5.3069,5.3966,5.5585,5.6021,5.5764,5.5706,5.559,5.5701,2.8735,2.9297,0.0,0.0,0.0,0.0,0.0,0.0,0.0,0.0,0.0,0.0,0.0,0.0,0.0,0.0,0.0,3.8395,0.0,0.0,0.0,0.0,0.0,0.0,0.0,0.0,0.0,0.0,3.2118,3.2118,3.2082,0.0,0.0,0.0,3.1604,0.0,3.2779,0.0,3.3133,0.0,0.0,0.0,0.0,3.4491,3.5459,3.6758,3.6413,3.5473,3.4361,0.0,3.3529,0.0,0.0,0.0,0.0,0.0,0.0,0.0,0.0,0.0,0.0,0.0,0.0,0.0,2.6953,0.0,2.5988,0.0,0.0,0.0,0.0,0.0,0.0,0.0,2.4897,0.0,0.0,0.0,2.709,0.0,0.0,0.0,3.1091,3.1531,3.2228,3.35,3.459,3.5798,3.7124,3.9266,4.0887,4.1796,4.3105,4.44,4.5716,4.6176,4.6983,4.8072,4.8072,4.785,4.745,4.7377,4.8015,4.9197,4.9148,5.0012,5.1576,5.24,5.2977,5.3518,5.5133,5.5763,5.5677,5.5467,5.5443,5.5602,0.0,0.0,0.0,0.0,0.0,0.0,0.0,0.0,0.0,0.0,0.0,0.0,4.1379,4.1702,0.0,0.0,4.1552,4.0928,0.0,0.0,3.7514,0.0,0.0,0.0,0.0,0.0,0.0,0.0,3.3243,3.3133,3.2926,0.0,0.0,0.0,0.0,3.2706,3.377,0.0,3.394,3.4968,3.4614,3.4835,3.5371,3.5591,3.6083,3.6633,3.6633,3.5716,3.4541,3.4894,3.4601,0.0,3.5114,0.0,0.0,0.0,0.0,0.0,3.2131,0.0,0.0,0.0,0.0,0.0,0.0,0.0,0.0,0.0,0.0,0.0,0.0,0.0,0.0,0.0,0.0,2.5081,0.0,0.0,0.0,0.0,0.0,0.0,0.0,2.9732,3.0344,3.1518,3.2713,3.4174,3.5879,3.8084,3.9913,4.1282,4.2481,4.3943,4.5772,4.5883,4.6634,4.8052,4.8052,4.785,4.7414,4.7377,4.7917,4.896,4.9186,5.0078,5.1447,5.2397,5.2927,5.3311,5.4741,5.5489,5.5758,5.5652,5.5694,5.5844,3.2441,3.2232,0.0,0.0,0.0,0.0,0.0,0.0,0.0,0.0,0.0,0.0,0.0,0.0,0.0,0.0,0.0,4.4378,4.1242,0.0,4.0598,0.0,0.0,3.7749,0.0,0.0,0.0,0.0,0.0,0.0,0.0,0.0,0.0,0.0,0.0,3.3733,3.3844,3.4601,3.4968,3.5078,3.5899,3.6229,3.634,0.0,3.7456,3.7456,3.7456,0.0,0.0,3.5261,3.4968,0.0,0.0,0.0,0.0,0.0,0.0,0.0,0.0,0.0,0.0,3.1568,0.0,0.0,0.0,0.0,2.8693,0.0,0.0,0.0,0.0,0.0,0.0,0.0,0.0,0.0,0.0,0.0,0.0,0.0,0.0,0.0,0.0,2.8583,2.906,2.9097,3.1298,3.263,3.266,3.6376,3.8903,3.9641,4.1331,4.3394,4.5772,4.5883,4.6672,4.8187,4.8187,4.8032,4.7793,4.7684,4.8027,4.8676,4.9356,5.0207,5.1092,5.1872,5.2737,5.3651,5.4508,5.5317,5.6038,5.6479,5.6652,5.6678,0.0,0.0,0.0,0.0,0.0,0.0,0.0,3.8796,0.0,0.0,0.0,0.0,0.0,4.7755,4.8012,0.0,0.0,4.6801,4.5168,4.3076,0.0,0.0,0.0,3.7639,0.0,0.0,0.0,0.0,0.0,0.0,0.0,0.0,0.0,0.0,0.0,3.4431,0.0,0.0,0.0,0.0,0.0,3.7088,3.7125,0.0,3.7492,3.7492,3.7492,3.6978,0.0,3.656,3.6303,3.6119,3.7477,3.7514,3.7088,3.7088,3.6486,0.0,0.0,0.0,3.333,3.3073,0.0,0.0,0.0,0.0,0.0,0.0,0.0,0.0,0.0,0.0,0.0,0.0,0.0,0.0,0.0,0.0,0.0,0.0,0.0,0.0,0.0,0.0,0.0,2.8117,2.9464,3.1139,3.3253,3.571,3.8151,4.05,4.1669,4.3409,4.5828,4.5902,4.6672,4.8187,4.8187,4.8052,4.7793,4.7788,4.8104,4.8772,4.9669,5.0488,5.133,5.2308,5.2907,5.3353,5.4756,5.5473,5.5829,5.6706,5.7025,5.7206,3.5752,0.0,0.0,0.0,0.0,0.0,0.0,0.0,0.0,0.0,4.6464,0.0,5.0268,0.0,5.0692,0.0,5.0545,4.9571,4.847,4.592,0.0,4.4011,4.1185,0.0,0.0,0.0,0.0,0.0,0.0,3.6303,0.0,0.0,0.0,0.0,0.0,3.5128,3.5789,0.0,3.5789,0.0,0.0,3.819,0.0,0.0,3.8264,3.7529,0.0,3.7588,3.7221,3.7734,3.7588,3.7367,3.8726,3.8762,3.8337,3.8337,3.8006,3.7514,3.7221,3.6156,0.0,3.4761,3.3697,0.0,3.2669,0.0,0.0,0.0,0.0,0.0,0.0,0.0,0.0,0.0,0.0,0.0,0.0,2.5364,0.0,0.0,0.0,0.0,0.0,0.0,2.6256,2.731,2.8656,3.0467,0.0,3.4504,3.678,3.9717,4.0598,4.247,4.5443,4.548,4.6397,4.8246,4.8246,4.8131,4.7975,4.7975,4.8207,4.867,4.9904,5.069,5.1274,5.2541,5.3082,5.3228,5.4928,5.5596,5.5772,5.7023,5.7461,5.7741,0.0,0.0,0.0,0.0,3.7515,0.0,0.0,0.0,4.6061,0.0,4.9964,5.2569,5.4268,5.4473,5.4473,5.4473,5.3702,5.2543,5.1022,4.9334,0.0,0.0,4.4892,4.3588,4.3515,0.0,0.0,0.0,0.0,0.0,0.0,0.0,0.0,0.0,3.6303,0.0,3.5114,3.5041,3.5481,3.6486,3.8872,3.9386,3.8872,4.0435,3.9606,3.7713,3.8542,3.8799,3.8762,3.8799,3.8836,3.8946,3.9717,3.9937,3.9937,3.9937,3.9937,3.979,3.8982,3.8175,3.7382,3.656,3.5701,0.0,0.0,0.0,3.5078,0.0,0.0,0.0,0.0,0.0,0.0,0.0,0.0,0.0,0.0,0.0,0.0,0.0,0.0,0.0,0.0,2.5658,2.6565,2.6638,2.8778,0.0,0.0,3.2889,3.4908,3.7492,3.8322,4.0671,4.4654,4.4745,4.5957,4.8306,4.8306,4.8306,4.8306,4.8306,4.8343,4.8453,5.0105,5.0839,5.0986,5.2543,5.3203,5.3445,5.4987,5.5669,5.5926,5.7446,5.8033,5.829,3.8102,3.9203,3.9848,0.0,3.9605,4.0251,0.0,0.0,0.0,0.0,5.2322,5.4012,5.517,5.528,5.528,5.528,5.3995,0.0,0.0,0.0,0.0,4.8049,4.625,4.4709,4.3551,4.2323,0.0,4.0471,0.0,0.0,3.8065,0.0,0.0,0.0,0.0,0.0,3.678,3.5518,3.5481,3.645,3.8285,3.8872,3.8799,0.0,3.9827,3.9402,4.0194,4.012,3.968,4.0304,4.0471,4.0508,4.0728,4.0781,4.0781,4.0781,4.0781,4.0634,3.979,3.8982,3.8212,3.7382,3.656,3.5973,0.0,0.0,0.0,0.0,0.0,0.0,0.0,0.0,0.0,0.0,0.0,0.0,0.0,0.0,0.0,2.6319,0.0,0.0,0.0,2.5485,2.6219,2.7383,2.8081,0.0,0.0,0.0,3.4614,3.8285,3.9166,4.1222,4.4654,4.5296,4.6507,4.8306,4.8306,4.8306,4.8306,4.8306,4.8636,4.9317,5.0362,5.1132,5.1756,5.2784,5.3555,5.4179,5.5207,5.6308,5.7409,5.785,5.84,5.9061,3.9496,0.0,0.0,4.2029,0.0,0.0,4.4436,4.6962,0.0,5.2092,5.3836,0.0,5.6528,5.6638,5.6638,5.6638,5.55,0.0,5.4289,0.0,0.0,4.9958,4.8012,4.6361,4.5112,4.3608,0.0,4.1625,0.0,0.0,3.9203,0.0,0.0,0.0,0.0,3.7404,0.0,3.6486,3.6376,3.7015,3.8946,3.9753,0.0,4.1038,4.1258,4.1038,4.1846,4.1405,4.0487,4.0948,4.1095,4.1168,4.1499,4.1625,4.1625,4.1625,4.1625,4.1442,4.0634,4.0084,3.9643,3.9203,3.8469,3.7881,3.7881,3.7588,3.7477,0.0,3.634,3.4871,0.0,0.0,0.0,0.0,0.0,0.0,0.0,0.0,0.0,0.0,2.775,0.0,2.6549,2.6439,2.6806,2.7725,2.8117,0.0,0.0,0.0,3.3886,3.7921,3.8884,4.0879,4.4105,4.4984,4.5993,4.7278,4.759,4.7773,4.7773,4.8159,4.8783,4.9647,5.0435,5.1242,5.2087,5.3261,5.3995,5.4509,5.5684,5.6895,5.8033,5.84,5.8804,5.9368,0.0,0.0,0.0,0.0,0.0,0.0,0.0,4.8159,0.0,5.3371,0.0,5.6308,5.785,5.7997,5.7997,5.7997,0.0,5.6455,5.5669,5.4179,5.2968,5.205,4.9848,4.814,4.7113,4.4929,0.0,0.0,0.0,4.0047,4.0047,0.0,0.0,0.0,0.0,0.0,0.0,3.7713,3.7823,3.8043,4.0451,4.1462,4.1719,4.324,4.3314,4.2727,4.3387,4.2616,4.1279,4.1389,4.1389,4.1535,4.2249,4.247,4.247,4.247,4.247,4.2286,4.1462,4.1242,4.1242,4.1132,4.0561,4.0047,4.0047,3.9423,3.8872,3.8872,3.7477,3.6303,0.0,0.0,0.0,0.0,0.0,0.0,0.0,0.0,0.0,0.0,0.0,0.0,0.0,0.0,0.0,0.0,0.0,0.0,0.0,0.0,3.3109,3.7088,3.8204,4.0264,4.3358,4.4362,4.5223,4.592,4.6709,4.7113,4.7113,4.8049,4.893,4.9794,5.0618,5.1463,5.2417,5.3812,5.4509,5.4876,5.6381,5.7446,5.8253,5.9061,5.9404,5.9698,0.0,0.0,0.0,0.0,0.0,4.9353,5.0545,5.1756,5.3445,5.5868,5.6418,5.6969,5.7886,5.7997,5.7997,5.7997,5.7262,0.0,0.0,0.0,0.0,5.205,5.0949,4.9334,4.7149,4.603,4.4745,0.0,4.1699,4.0875,4.0838,3.9386,0.0,0.0,0.0,0.0,3.7603,3.8924,0.0,3.9696,4.2119,4.3497,4.4177,4.5112,4.4966,4.4305,4.4452,4.3461,4.2176,4.2873,4.3057,4.3094,4.324,4.3277,4.3277,4.3277,4.3277,4.3094,4.2323,4.2103,4.1919,4.1279,4.0985,4.0875,4.0875,4.0267,3.968,3.968,3.7881,3.6303,3.6303,0.0,0.0,0.0,0.0,0.0,0.0,0.0,0.0,0.0,0.0,3.2326,0.0,0.0,0.0,0.0,0.0,0.0,0.0,0.0,3.3109,0.0,3.8752,0.0,0.0,0.0,4.5773,4.592,4.6709,4.7113,4.7149,4.8673,4.9811,5.0618,5.1426,5.2601,5.3995,5.4289,5.517,5.6492,5.7409,5.829,5.9074,5.9905,6.0603,6.1227,0.0,0.0,0.0,0.0,0.0,0.0,0.0,5.5537,5.6579,5.7336,5.7079,5.7116,5.7923,5.7997,5.7997,5.7997,5.7666,5.7079,5.6271,5.5464,5.4473,5.3298,5.1683,0.0,4.8416,4.6764,4.5333,4.4121,4.2947,4.2139,4.1699,4.1368,0.0,0.0,0.0,3.935,0.0,0.0,0.0,4.2506,4.3644,4.4599,4.5369,4.5736,4.5663,4.5333,4.5333,4.4819,4.4085,4.3662,4.3515,4.3515,4.3515,4.3515,4.3515,4.3515,4.3515,4.3441,4.302,4.291,4.2837,4.2433,4.2029,4.1735,4.1735,4.1111,4.0414,3.9974,3.8982,3.7918,3.7088,3.6281,0.0,0.0,0.0,0.0,0.0,0.0,0.0,0.0,0.0,0.0,0.0,0.0,0.0,0.0,0.0,0.0,0.0,0.0,3.3463,0.0,0.0,0.0,4.3268,0.0,4.5883,4.592,4.6709,4.7333,4.7773,4.9003,5.0271,5.1463,5.227,5.3298,5.4473,5.5317,5.6345,5.7519,5.8327,5.8854,5.9331,6.0566,6.1263,6.1667,0.0,4.803,0.0,0.0,5.183,0.0,5.6895,5.8524,5.9171,5.8364,5.7703,5.7483,5.796,5.7997,5.7997,5.7997,5.7997,5.7666,5.6859,5.6198,5.5427,5.4436,5.2417,5.0765,4.961,4.7498,4.592,0.0,4.4158,4.3351,4.258,4.3204,0.0,0.0,0.0,0.0,0.0,0.0,4.304,4.4966,4.5131,4.57,4.6397,4.6397,4.6287,4.6177,4.6177,4.6067,4.57,4.4415,4.4029,4.4029,4.4029,4.4029,4.4029,4.4029,4.3864,4.3754,4.3754,4.3625,4.3515,4.3515,4.302,4.2543,4.2543,4.1919,4.1185,4.0524,4.012,3.946,3.8006,3.7749,0.0,0.0,0.0,0.0,0.0,0.0,0.0,0.0,0.0,0.0,3.3537,0.0,0.0,0.0,0.0,0.0,3.2361,0.0,0.0,0.0,0.0,4.1022,4.3232,0.0,4.5883,4.592,4.6892,4.77,4.8343,4.9554,5.0822,5.205,5.3041,5.4032,5.5023,5.6455,5.7446,5.807,5.8914,5.9294,5.9648,6.108,6.1704,6.1961,0.0,0.0,0.0,0.0,0.0,5.6932,5.8707,5.9722,6.0015,5.9184,5.9001,5.8731,5.807,5.7997,5.7997,5.7997,5.7997,5.7666,5.6859,5.6748,5.6014,5.4473,5.3482,5.1903,4.9647,4.86,4.7315,0.0,4.5002,4.4195,4.3404,4.3478,0.0,0.0,0.0,0.0,0.0,4.4048,4.4929,4.5847,4.6562,4.7369,4.8086,4.8086,4.7645,4.7003,4.7003,4.6544,4.5883,4.5736,4.5663,4.5663,4.5663,4.5663,4.5663,4.5663,4.5149,4.4599,4.4599,4.4048,4.3515,4.3515,4.3441,4.3404,4.3404,4.2763,4.2176,4.2103,4.0928,3.9643,3.8762,3.8579,3.8505,0.0,0.0,0.0,0.0,0.0,0.0,0.0,0.0,0.0,0.0,3.5224,3.4784,0.0,3.2596,0.0,0.0,0.0,0.0,3.7093,3.9593,4.1691,4.3358,4.5059,4.5883,4.592,4.7462,4.8233,4.8379,5.0692,5.1867,5.2087,5.3628,5.517,5.6638,5.7519,5.7923,5.807,5.8914,5.9625,6.0382,6.1263,6.2071,6.267,0.0,0.0,0.0,0.0,0.0,0.0,0.0,6.1337,6.1557,6.075,6.0236,5.9795,5.9465,5.9024,5.8731,5.8731,5.829,5.785,5.7556,5.7079,5.6528,5.5868,5.4121,5.2747,5.1793,4.9481,4.7976,0.0,0.0,0.0,0.0,4.5223,0.0,0.0,0.0,4.4488,4.4966,4.5296,4.6177,4.7388,4.7663,4.8012,4.8306,4.8306,4.8122,4.781,4.781,4.7609,4.7352,4.7352,4.6691,4.5883,4.5883,4.5883,4.5883,4.5883,4.5663,4.5406,4.5406,4.4819,4.4232,4.4232,4.3864,4.3515,4.3515,4.324,4.2873,4.2396,4.1405,4.0377,3.957,3.9423,3.9093,3.8138,0.0,0.0,0.0,0.0,0.0,0.0,0.0,0.0,0.0,3.5188,3.4821,3.4307,0.0,0.0,0.0,0.0,0.0,3.6431,0.0,4.1289,4.3375,4.5077,4.6654,4.8142,4.8766,4.9591,5.0545,5.1536,5.2784,5.4237,5.5354,5.6492,5.7556,5.7886,5.7997,5.8143,5.9428,6.0126,6.0566,6.1851,6.2511,6.278,5.785,0.0,5.8107,0.0,5.9538,6.0382,6.1741,6.2438,6.2622,6.2034,6.1447,6.0933,6.0456,5.9905,5.9551,5.9551,5.8841,5.8364,5.8364,5.7593,5.7042,5.6822,5.495,0.0,5.3203,5.0692,4.915,4.8673,4.8122,0.0,0.0,0.0,0.0,0.0,4.5773,4.6067,4.6617,4.6617,4.7278,4.8306,4.8306,4.8306,4.8306,4.8306,4.8306,4.8306,4.8306,4.8306,4.8306,4.8306,4.7572,4.6617,4.6617,4.6617,4.6617,4.6617,4.6434,4.625,4.625,4.5663,4.5039,4.5039,4.4635,4.4121,4.3901,4.3864,4.3571,4.2506,4.1846,4.1222,4.0414,4.0267,3.9863,3.8726,0.0,0.0,0.0,0.0,0.0,0.0,3.6853,3.6376,3.4784,3.4857,3.4747,0.0,0.0,0.0,0.0,0.0,0.0,0.0,0.0,0.0,4.341,4.5297,4.7241,4.9224,4.9978,5.0896,5.2013,5.2491,5.3885,5.5978,5.6565,5.7262,5.7997,5.7997,5.7997,5.8143,5.9758,6.0419,6.0603,6.2218,6.278,6.278,6.0346,6.0346,6.0603,6.141,6.1557,6.1851,6.2658,6.278,6.278,6.2805,6.278,6.2181,6.0566,6.0382,6.0382,6.0382,5.9625,5.9184,5.9184,5.8437,5.7629,0.0,0.0,5.484,5.3203,5.238,5.1189,4.9574,0.0,0.0,4.7076,0.0,4.7516,4.8269,4.8269,4.8269,4.8269,4.8269,4.8269,4.8306,4.8306,4.8306,4.8306,4.8306,4.8306,4.8306,4.8306,4.8306,4.8306,4.8306,4.8306,4.8269,4.8269,4.8269,4.8269,4.8269,4.77,4.7076,4.7076,4.6507,4.5883,4.5883,4.5883,4.5663,4.4892,4.4709,4.4232,4.2616,4.2286,4.2029,4.1242,4.1095,4.1058,4.1058,0.0,0.0,0.0,0.0,0.0,0.0,3.8175,3.7404,3.4137,3.4527,0.0,0.0,0.0,0.0,0.0,0.0,0.0,3.8615,4.0251,0.0,4.3461,4.5865,4.748,4.8343,5.0802,5.1977,5.205,5.3665,5.5244,5.6785,5.6822,5.7262,5.7997,5.7997,5.7997,5.8143,5.9758,6.0419,6.0603,6.2218,6.278,6.278,6.1924,6.2034,6.2144,6.2365,6.2438,6.2511,6.2768,6.278,6.278,6.278,6.278,6.2597,6.2108,6.1557,6.1227,0.0,6.0493,5.9771,0.0,5.8964,5.8474,5.7666,5.6859,5.6198,5.5684,5.3812,5.2564,5.205,0.0,0.0,0.0,4.7369,4.7223,4.7516,4.8086,4.8306,4.8306,4.8306,4.8306,4.8306,4.8306,4.8306,4.8306,4.8306,4.8306,4.8306,4.8306,4.8306,4.8306,4.8306,4.8306,4.8306,4.8306,4.8306,4.8306,4.8306,4.8122,4.7939,4.7939,4.7333,4.6709,4.6709,4.6324,4.5847,4.559,4.5112,4.4544,4.4048,4.3497,4.2873,4.2066,4.1919,4.1735,4.1168,4.1552,0.0,0.0,0.0,0.0,0.0,3.8542,3.8065,3.6501,3.7037,0.0,0.0,0.0,0.0,0.0,0.0,0.0,0.0,4.0251,0.0,4.4305,4.6159,4.8067,5.0031,5.1353,5.2564,5.3702,5.5317,5.6345,5.6822,5.7373,5.7776,5.7997,5.7997,5.8327,5.8914,5.9979,6.075,6.1337,6.2401,6.278,6.278,6.267,6.278,6.278,6.278,6.278,6.278,6.278,6.278,6.278,6.278,6.278,6.278,6.278,6.2365,0.0,6.2034,6.1337,6.0639,6.0126,5.9515,5.8964,5.8474,5.7409,5.6822,5.6822,5.5023,0.0,5.3665,5.205,5.0398,4.8783,4.8269,4.7846,4.7553,4.8067,4.8306,4.8306,4.8306,4.8306,4.8306,4.8306,4.8306,4.8306,4.8306,4.8306,4.8306,4.8306,4.8306,4.8306,4.8306,4.8306,4.8306,4.8306,4.8306,4.8306,4.8306,4.8306,4.8306,4.8306,4.792,4.7553,4.7553,4.7168,4.6728,4.6434,4.5736,4.5149,4.5149,4.4525,4.3791,4.3277,4.2947,4.258,4.2103,4.2433,4.258,4.2066,0.0,0.0,0.0,0.0,0.0,0.0,3.8212,3.8836,0.0,0.0,0.0,0.0,0.0,0.0,4.0891,4.2213,4.3774,4.5572,4.7516,4.926,5.0839,5.2234,5.3739,5.5354,5.6345,5.6969,5.7299,5.7776,5.7997,5.7997,5.7997,5.8474,5.9258,6.0089,6.0896,6.1704,6.2511,6.278,6.278,6.278,6.278,6.278,6.278,6.278,6.278,6.278,6.278,6.278,6.278,6.278,6.278,6.278,6.278,6.278,6.278,0.0,0.0,6.1594,6.0199,5.9294,5.9184,5.7776,5.6932,5.6895,5.6088,5.528,5.4473,5.2858,5.1316,4.9867,4.9757,4.9224,4.8489,4.8416,4.8379,4.8379,4.8343,4.8306,4.8306,4.8306,4.8306,4.8306,4.8306,4.8306,4.8306,4.8306,4.8306,4.8306,4.8306,4.8306,4.8306,4.8306,4.8306,4.8306,4.8306,4.8306,4.8306,4.8306,4.8306,4.8306,4.8306,4.8306,4.8122,4.7333,4.6581,4.5993,4.5993,4.5333,4.4782,4.4709,4.4085,4.3588,4.3515,4.3515,4.3515,4.3515,0.0,0.0,0.0,0.0,0.0,3.8043,3.8689,3.9496,0.0,0.0,0.0,0.0,0.0,4.1735,4.4709,4.5516,4.6361,4.7259,4.9627,5.0875,5.1096,5.3445,5.5354,5.6822,5.6859,5.7299,5.7997,5.7997,5.7997,5.7997,5.7997,5.851,5.9368,6.0126,6.0933,6.1777,6.2511,6.278,6.278,0.0,0.0,6.278,6.278,6.278,6.278,6.278,6.278,6.278,6.278,6.278,6.278,6.278,6.278,6.278,6.278,6.2658,6.2254,6.163,6.1227,6.0493,5.9258,5.8817,5.8364,5.774,5.6932,5.6124,5.5317,5.3702,5.2711,5.2344,5.1096,5.0398,5.0178,4.9554,4.9297,4.9243,4.86,4.8306,4.8306,4.8306,4.8306,4.8306,4.8306,4.8306,4.8306,4.8306,4.8306,4.8306,4.8306,4.8306,4.8306,4.8306,4.8306,4.8306,4.8306,4.8306,4.8306,4.8306,4.8306,4.8306,4.8306,4.8306,4.8269,4.8086,4.7369,4.6819,4.6819,4.6177,4.5443,4.4801,4.4544,4.4195,4.3625,4.3515,4.3515,4.3515,4.28,4.2176,0.0,4.2249,4.2523,4.2119,4.3351,4.4268,0.0,0.0,0.0,4.5902,4.5608,4.548,4.5626,4.581,4.6874,4.8893,5.0178,5.172,5.3555,5.539,5.6455,5.6822,5.7446,5.7813,5.7997,5.7997,5.7997,5.7997,5.7997,5.8841,6.0126,6.0346,6.1263,6.2548,6.2732,6.278,6.278,6.278,6.278,6.278,6.278,6.278,6.278,6.278,6.278,6.278,6.278,6.278,6.278,6.278,6.278,6.278,6.278,6.278,6.2622,6.2181,6.1814,6.119,6.0346,5.9588,5.9024,5.8547,5.7776,5.6969,5.6161,5.528,5.4268,5.3167,5.2307,5.1499,5.0765,5.0325,5.0141,5.0068,4.926,4.8893,4.8857,4.8453,4.8306,4.8306,4.8306,4.8306,4.8306,4.8306,4.8306,4.8306,4.8306,4.8306,4.8306,4.8306,4.8306,4.8306,4.8306,4.8306,4.8306,4.8306,4.8306,4.8306,4.8306,4.8306,4.8306,4.8306,4.7957,4.7626,4.7626,4.7003,4.6324,4.5865,4.5205,4.4562,4.4121,4.3718,4.3515,4.3515,4.28,4.2433,4.28,4.3204,4.3644,4.4011,4.5186,4.5883,4.5883,4.5847,0.0,4.759,4.8049,4.8049,4.7609,4.8306,4.9297,5.0618,5.183,5.3482,5.55,5.6381,5.7005,5.7373,5.7813,5.7997,5.7997,5.7997,5.7997,5.8033,5.84,5.9281,6.0456,6.0786,6.1704,6.278,6.278,6.278,6.278,6.278,6.278,6.278,6.278,6.278,6.2842,6.2989,6.3025,6.3062,6.3147,6.3099,6.3025,6.3025,6.2879,6.278,6.278,6.278,6.278,6.278,6.2144,6.1741,6.1594,6.0309,5.9441,5.9184,5.84,5.7666,5.6969,5.6859,5.5757,5.3739,5.3482,5.2674,5.1316,5.1096,5.0986,5.0949,5.0124,4.9721,4.9537,4.8783,4.8416,4.8306,4.8306,4.8306,4.8306,4.8306,4.8306,4.8306,4.8306,4.8306,4.8306,4.8306,4.8306,4.8306,4.8306,4.8306,4.8306,4.8306,4.8306,4.8306,4.8306,4.8306,4.8306,4.8306,4.8306,4.8306,4.8306,4.7736,4.7223,4.7113,4.5975,4.4984,4.4745,4.4011,4.3515,4.3515,0.0,4.2763,4.3571,4.3901,4.4342,4.5186,4.5993,4.6507,4.6617,4.7259,4.7957,4.8636,4.9591,5.0161,5.0161,5.1463,5.2307,5.2527,5.4032,5.5464,5.6822,5.6932,5.7336,5.7997,5.7997,5.7997,5.7997,5.7997,5.807,5.8217,5.8914,5.9758,6.0639,6.1337,6.2108,6.278,6.278,6.278,6.278,6.278,6.278,6.278,6.278,6.278,6.3062,6.3796,6.3906,6.4127,6.4824,6.431,6.3906,6.3906,6.3246,6.278,6.278,6.278,6.278,6.278,6.2695,6.2328,6.163,6.1374,6.0603,5.9221,5.84,5.7923,5.7813,5.7152,5.6602,5.6235,5.484,5.4069,5.3775,5.2417,5.1793,5.1756,5.0949,5.0215,4.961,4.9463,4.8967,4.8306,4.8306,4.8306,4.8306,4.8306,4.8306,4.8306,4.8306,4.8306,4.8306,4.8306,4.8306,4.8306,4.8306,4.8306,4.8306,4.8306,4.8306,4.8306,4.8306,4.8306,4.8306,4.8306,4.8306,4.8306,4.8306,4.8196,4.7883,4.7223,4.6892,4.6269,4.4911,4.4011,4.3515,4.3515,0.0,4.3608,4.4415,4.5718,4.6856,4.7682,4.8526,4.9297,4.9994,5.0178,5.0288,5.0398,5.183,5.2637,5.2637,5.2894,5.3665,5.5045,5.5978,5.6565,5.6822,5.7483,5.7886,5.7997,5.7997,5.7997,5.7997,5.7997,5.84,5.9001,5.9148,6.0089,6.141,6.1557,6.2108,6.278,6.278,6.278,6.278,6.3503,6.387,6.4163,6.4163,6.4163,6.4273,6.4677,6.4751,6.4897,6.5264,6.4971,6.4567,6.4127,6.3723,6.3319,6.2842,6.278,6.278,6.278,6.278,6.2658,6.2254,6.1814,6.086,5.9221,5.8841,5.8437,5.7997,5.7629,5.7226,5.6785,5.6051,5.5244,5.4363,5.3628,5.3041,5.2601,5.1793,5.1242,5.0822,4.9941,4.9353,4.893,4.8489,4.86,4.9003,4.9003,4.926,4.9664,4.9664,4.9664,4.9664,4.9664,4.9664,4.9664,4.9664,4.9003,4.8306,4.8306,4.8306,4.8306,4.8306,4.8306,4.8306,4.8306,4.8306,4.8306,4.8306,4.8306,4.8196,4.781,4.7369,4.6856,4.6122,4.5333,0.0,4.4782,4.4782,4.5259,4.6507,4.7296,4.8269,4.9517,4.9994,5.0398,5.0765,5.1206,5.1646,5.2087,5.3225,5.4032,5.4473,5.4473,5.506,5.6235,5.6602,5.7042,5.7446,5.7813,5.7997,5.7997,5.7997,5.7997,5.8033,5.8474,5.8854,5.9258,6.0162,6.0933,6.163,6.2071,6.2475,6.278,6.278,6.278,6.278,6.4383,6.4897,6.5301,6.5301,6.5301,6.5375,6.5558,6.5595,6.5668,6.5852,6.5705,6.5338,6.4714,6.431,6.3833,6.3172,6.289,6.278,6.278,6.278,6.278,6.278,6.2034,6.0933,5.9515,5.9294,5.8804,5.7997,5.7997,5.7666,5.7079,5.6895,5.6161,5.495,5.4766,5.4216,5.3445,5.2821,5.2344,5.1867,5.0675,5.0051,4.9831,4.915,4.9297,4.9904,4.9904,5.0288,5.0802,5.0802,5.0802,5.0802,5.0802,5.0802,5.0802,5.0802,4.9884,4.8893,4.8893,4.8893,4.8893,4.8893,4.8893,4.8893,4.8893,4.8893,4.8893,4.8893,4.8893,4.8893,4.8893,4.836,4.781,4.7443,0.0,4.6397,4.6214,4.6324,4.6985,4.8416,4.8783,4.9554,5.1206,5.1353,5.1499,5.1903,5.2491,5.3115,5.3739,5.4509,5.5317,5.6124,5.5978,5.6271,5.7079,5.7079,5.7483,5.829,5.829,5.8364,5.8547,5.8547,5.8547,5.8584,5.9208,5.9588,5.9869,6.108,6.1704,6.1924,6.2585,6.278,6.278,6.278,6.278,6.278,6.5228,6.5264,6.5301,6.5301,6.5301,6.5558,6.6292,6.6402,6.6659,6.743,6.688,6.6402,6.6329,6.4971,6.4053,6.4016,6.3282,6.278,6.278,6.278,6.278,6.278,6.2034,6.119,6.0346,5.9588,5.8804,5.7997,5.7997,5.796,5.7886,5.7152,5.6748,5.6602,5.5831,5.506,5.4326,5.4252,5.3371,5.1977,5.1867,5.1389,5.0692,5.0655,5.0655,5.0729,5.0729,5.0765,5.0802,5.0802,5.0802,5.0802,5.0802,5.0802,5.0802,5.0802,5.0729,5.0618,5.0618,5.0618,5.0618,5.0618,5.0618,5.0618,5.0618,5.0618,5.0618,5.0618,5.0618,5.0618,5.0618,5.0582,5.0031,4.8453,0.0,0.0,4.7113,4.7626,4.8453,4.939,5.0141,5.1242,5.2873,5.3041,5.3628,5.5133,5.5302,5.5376,5.5427,5.6198,5.7005,5.7813,5.7116,5.7116,5.7886,5.7923,5.8327,5.9111,5.9111,5.9501,6.0236,6.0236,6.0236,6.0236,6.0309,6.075,6.141,6.1557,6.2034,6.2707,6.278,6.278,6.278,6.278,6.278,6.278,6.6035,6.6439,6.6769,6.6769,6.6769,6.688,6.7173,6.7247,6.7357,6.765,6.743,6.7026,6.6549,6.5962,6.5191,6.4163,6.3796,6.3392,6.2842,6.278,6.278,6.278,6.2511,6.1961,6.1153,6.086,6.0052,5.8767,5.8767,5.851,5.7997,5.7703,5.7299,5.6785,5.6492,5.5904,5.5097,5.462,5.4032,5.3408,5.238,5.183,5.1499,5.0986,5.1096,5.1536,5.1536,5.2197,5.3041,5.3041,5.3371,5.3775,5.3775,5.3775,5.3775,5.3775,5.3775,5.3775,5.3775,5.2307,5.0802,5.0802,5.0802,5.0802,5.0802,5.0802,5.0802,5.0802,5.0802,5.0802,5.0802,5.0802,5.0582,4.9958,0.0,4.9738,4.9444,4.9664,5.0178,5.0986,5.1793,5.2711,5.3849,5.4399,5.495,5.5559,5.6051,5.6345,5.6345,5.7116,5.7666,5.7997,5.818,5.8414,5.8767,5.8767,5.9171,5.9942,5.9942,6.0126,6.0419,6.0419,6.0419,6.0419,6.0933,6.13,6.163,6.2144,6.2548,6.278,6.278,6.278,6.278,6.278,6.278,6.278,6.721,6.7687,6.8164,6.8385,6.8421,6.8421,6.8421,6.8421,6.8421,6.8421,6.8238,6.7871,6.732,6.6806,6.6072,6.4934,6.4383,6.3833,6.3246,6.2952,6.278,6.278,6.278,6.2438,6.163,6.1594,6.0933,5.9588,5.9588,5.9171,5.84,5.84,5.796,5.7189,5.7189,5.6748,5.5941,5.539,5.5023,5.4693,5.3555,5.3115,5.3078,5.2527,5.2637,5.3115,5.3115,5.3849,5.4766,5.4766,5.5133,5.5596,5.5596,5.5596,5.5596,5.5596,5.5596,5.5596,5.5596,5.3995,5.2307,5.2307,5.2307,5.2307,5.2307,5.2307,5.2307,5.2307,5.2307,5.2307,5.2307,5.2307,5.2234,5.1977,5.2123,5.2234,5.1977,5.216,5.2491,5.3041,5.3628,5.4289,5.5097,5.5647,5.6088,5.6308,5.6859,5.7189,5.7189,5.7703,5.8107,5.8364,5.8891,5.9441,5.9942,5.9698,5.9979,6.0786,6.0786,6.0896,6.1153,6.1153,6.1153,6.119,6.1741,6.1998,6.2034,6.2585,6.278,6.278,6.278,6.278,6.278,6.278,6.278,6.278,6.8752,6.8898,6.9155,6.9963,7.011,7.011,7.011,7.011,7.011,7.011,6.9412,6.8898,6.8898,6.7467,6.6512,6.6512,6.5044,6.4127,6.409,6.3282,6.278,6.278,6.278,6.2438,6.163,6.1594,6.1227,6.0419,6.0419,6.0015,5.9184,5.9184,5.8767,5.7997,5.7997,5.7556,5.6822,5.6822,5.6345,5.5633,5.5596,5.5596,5.5596,5.5596,5.5596,5.5596,5.5596,5.5596,5.5633,5.5633,5.5611,5.5611,5.5611,5.5611,5.5611,5.5611,5.5611,5.5611,5.5611,5.5611,5.5611,5.5596,5.5596,5.5596,5.5596,5.5596,5.5596,5.5596,5.5596,5.5596,5.5596,5.5596,5.5317,5.4546,5.506,5.5317,5.4509,5.5097,5.5596,5.5596,5.5633,5.5904,5.6712,5.6822,5.7152,5.7923,5.7997,5.7997,5.7997,5.8033,5.84,5.9184,5.9221,6.0015,6.1557,6.0823,6.0823,6.1594,6.1594,6.2034,6.278,6.278,6.278,6.278,6.278,6.278,6.278,6.278,6.278,6.278,6.278,6.278,6.278,6.278,6.278,6.278,6.9706,6.9743,6.9816,7.0073,7.011,7.011,7.011,7.011,7.011,7.011,6.9889,6.9522,6.8972,6.8458,6.7724,6.6586,6.6072,6.5521,6.4971,6.4163,6.3723,6.3723,6.3135,6.2695,6.2438,6.2438,6.2071,6.1227,6.1227,6.0823,6.0052,5.9441,5.9074,5.8841,5.8253,5.7886,5.7593,5.7042,5.6675,5.6381,5.5831,5.5596,5.5596,5.5596,5.5596,5.5596,5.5596,5.5941,5.6455,5.6455,5.6822,5.7262,5.7262,5.7262,5.7262,5.7262,5.7262,5.7262,5.7262,5.7262,5.7005,5.5868,5.5596,5.5596,5.5596,5.5596,5.5596,5.5596,5.5596,5.5596,5.5596,5.5596,5.5522,5.528,5.5427,5.5522,5.528,5.5427,5.5596,5.5596,5.6088,5.6528,5.6785,5.7299,5.774,5.796,5.851,5.8841,5.8841,5.9391,5.9795,6.0052,6.0603,6.1117,6.1594,6.1374,6.1667,6.2438,6.2438,6.2585,6.278,6.278,6.278,6.278,6.278,6.278,6.278,6.278,6.278,6.278,6.278,6.278,6.278,6.278,6.278,6.278,7.0513,7.0587,7.0697,7.0991,7.1064,7.1064,7.1064,7.1064,7.1064,7.1064,7.077,7.0403,6.9926,6.9559,6.8972,6.8017,6.732,6.6512,6.5375,6.4861,6.442,6.409,6.3613,6.3172,6.278,6.278,6.2585,6.2071,6.2071,6.1667,6.086,6.0382,5.9832,5.9184,5.9024,5.8767,5.8437,5.796,5.7753,5.768,5.6859,5.6528,5.6528,5.6528,5.6528,5.6528,5.6528,5.6859,5.7262,5.7262,5.7593,5.7997,5.7997,5.7997,5.7997,5.7997,5.7997,5.7997,5.7997,5.7997,5.7776,5.6785,5.6528,5.6528,5.6528,5.6528,5.6528,5.6528,5.6528,5.6528,5.6528,5.6528,5.6528,5.6528,5.6528,5.6528,5.6528,5.6528,5.6528,5.6528,5.6969,5.7262,5.7262,5.7997,5.8621,5.8914,5.9391,5.9661,5.9661,6.0162,6.0566,6.086,6.1337,6.1741,6.2071,6.2071,6.2328,6.278,6.278,6.278,6.278,6.278,6.278,6.278,6.278,6.278,6.278,6.278,6.278,6.278,6.278,6.278,6.278,6.278,6.278,6.278,7.1358,7.1541,7.1798,7.2569,7.2716,7.2716,7.2716,7.2716,7.2716,7.2716,7.2092,7.1615,7.1541,7.0807,7.0293,7.022,6.8788,6.7247,6.5742,6.5558,6.5154,6.4347,6.4163,6.3723,6.2952,6.2842,6.278,6.278,6.278,6.2438,6.1704,6.163,6.0823,5.9441,6.0126,6.0015,5.9294,5.9294,5.9294,5.9221,5.851,5.8217,5.8217,5.8217,5.818,5.8107,5.8107,5.807,5.7997,5.7997,5.7997,5.7997,5.7997,5.7997,5.7997,5.7997,5.7997,5.7997,5.7997,5.8033,5.8107,5.8107,5.8143,5.818,5.8107,5.8107,5.8143,5.8217,5.8217,5.8217,5.8217,5.8217,5.8217,5.8217,5.8217,5.8217,5.8217,5.8217,5.8217,5.8217,5.8217,5.8217,5.8217,5.8877,5.9588,6.0346,6.0456,6.0529,6.0529,6.0566,6.097,6.1667,6.1704,6.2071,6.278,6.278,6.278,6.278,6.278,6.278,6.278,6.278,6.278,6.278,6.278,6.278,6.278,6.278,6.278,6.278,6.278,6.278,6.278,6.278,6.278,6.278,7.301,7.3193,7.3413,7.4258,7.4404,7.4404,7.4404,7.4404,7.4404,7.4404,7.4258,7.3891,7.3266,7.2459,7.1725,7.1101,7.0146,6.9155,6.8201,6.754,6.6806,6.5999,6.4751,6.4016,6.3796,6.3172,6.278,6.278,6.278,6.2732,6.2548,6.1887,6.141,6.1043,6.0603,6.0309,6.0162,6.0162,6.0162,6.0126,5.9942,5.9869,5.9869,5.9869,5.9501,5.8927,5.8927,5.8547,5.7997,5.7997,5.7997,5.7997,5.7997,5.7997,5.7997,5.7997,5.7997,5.7997,5.7997,5.8474,5.8927,5.8927,5.9428,5.9722,5.9074,5.8927,5.9134,5.9758,5.9869,5.9869,5.9869,5.9869,5.9869,5.9869,5.9869,5.9869,5.9869,5.9869,5.9869,5.9869,5.9869,5.9869,5.9869,6.0052,6.0236,6.0382,6.097,6.1337,6.1337,6.1961,6.2365,6.2548,6.2548,6.2622,6.278,6.278,6.278,6.278,6.278,6.278,6.278,6.278,6.278,6.278,6.278,6.278,6.278,6.278,6.278,6.278,6.278,6.278,6.278,6.278,6.278,6.2915,7.4184,7.4258,7.4404,7.4845,7.4918,7.4918,7.4918,7.4918,7.4918,7.4918,7.4918,7.4735,7.4331,7.3891,7.3193,7.1982,7.1138,7.033,6.9522,6.8715,6.7907,6.71,6.5888,6.4897,6.4127,6.3649,6.3209,6.278,6.278,6.278,6.278,6.2365,6.1961,6.1594,6.1557,6.1337,6.097,6.097,6.097,6.0933,6.0566,6.0419,6.0419,6.0419,6.0162,5.9795,5.9795,5.9501,5.9134,5.9134,5.9134,5.9134,5.9134,5.9134,5.9134,5.9134,5.9134,5.9134,5.9134,5.9465,5.9795,5.9795,6.0089,6.0309,5.9869,5.9795,5.9905,6.0309,6.0419,6.0419,6.0419,6.0419,6.0419,6.0419,6.0419,6.0419,6.0419,6.0419,6.0419,6.0419,6.0419,6.0566,6.0933,6.097,6.1117,6.152,6.1924,6.2181,6.2181,6.2585,6.278,6.278,6.278,6.278,6.278,6.278,6.278,6.278,6.278,6.278,6.278,6.278,6.278,6.278,6.278,6.278,6.278,6.278,6.278,6.278,6.278,6.278,6.278,6.278,6.278,6.289,7.5102,7.5139,7.5175,7.5285,7.5322,7.5322,7.5322,7.5322,7.5322,7.5322,7.5322,7.5322,7.5322,7.5065,7.4331,7.2826,7.1982,7.1174,7.0367,6.9669,6.8898,6.7944,6.7136,6.5999,6.453,6.4383,6.3796,6.278,6.278,6.278,6.278,6.278,6.2438,6.1814,6.2511,6.2438,6.1814,6.1814,6.1814,6.1741,6.108,6.0823,6.0823,6.0823,6.0713,6.0603,6.0603,6.0529,6.0419,6.0419,6.0419,6.0419,6.0419,6.0419,6.0419,6.0419,6.0419,6.0419,6.0419,6.0493,6.0603,6.0603,6.0713,6.0823,6.0823,6.0713,6.0639,6.0786,6.0823,6.0823,6.0823,6.0823,6.0823,6.0823,6.0823,6.0823,6.0823,6.0823,6.0823,6.0823,6.0823,6.108,6.1741,6.1814,6.2071,6.2743,6.278,6.278,6.278,6.278,6.278,6.278,6.278,6.278,6.278,6.278,6.278,6.278,6.278,6.278,6.278,6.278,6.278,6.278,6.278,6.278,6.278,6.278,6.278,6.278,6.278,6.278,6.278,6.278,6.278,6.2927,7.5799,7.5946,7.6166,7.6833,7.698,7.698,7.698,7.698,7.698,7.698,7.698,7.698,7.698,7.5763,7.4551,7.3597,7.2789,7.2018,7.1211,7.1064,7.033,6.8788,6.7981,6.71,6.6182,6.5485,6.4383,6.278,6.278,6.278,6.278,6.278,6.2743,6.2658,6.2743,6.2768,6.2658,6.2658,6.2658,6.2658,6.2548,6.245,6.245,6.245,6.2034,6.1447,6.1447,6.1006,6.0419,6.0419,6.0419,6.0419,6.0419,6.0419,6.0419,6.0419,6.0419,6.0419,6.0419,6.0896,6.1447,6.1447,6.1961,6.245,6.245,6.1924,6.163,6.2328,6.245,6.245,6.245,6.245,6.245,6.245,6.245,6.245,6.245,6.245,6.245,6.245,6.245,6.2548,6.2658,6.2658,6.2695,6.278,6.278,6.278,6.278,6.278,6.278,6.278,6.278,6.278,6.278,6.278,6.278,6.278,6.278,6.278,6.278,6.278,6.278,6.278,6.278,6.278,6.278,6.278,6.278,6.278,6.278,6.278,6.278,6.278,6.278,6.3,7.6717,7.679,7.687,7.7237,7.7273,7.7273,7.7273,7.7273,7.7273,7.7273,7.7273,7.7273,7.7273,7.5842,7.4771,7.4404,7.323,7.2349,7.1982,7.1578,7.0962,7.0293,6.9045,6.7981,6.7173,6.6366,6.5411,6.42,6.3759,6.3282,6.278,6.278,6.278,6.278,6.278,6.278,6.278,6.278,6.278,6.278,6.278,6.278,6.278,6.278,6.2585,6.2291,6.2291,6.2034,6.1741,6.1741,6.1741,6.1741,6.1741,6.1741,6.1741,6.1741,6.1741,6.1741,6.1741,6.1998,6.2291,6.2291,6.2548,6.278,6.278,6.2548,6.2365,6.2732,6.278,6.278,6.278,6.278,6.278,6.278,6.278,6.278,6.278,6.278,6.278,6.278,6.278,6.278,6.278,6.278,6.278,6.278,6.278,6.278,6.278,6.278,6.278,6.278,6.278,6.278,6.278,6.278,6.278,6.278,6.278,6.278,6.278,6.278,6.278,6.278,6.278,6.283,6.2904,6.2904,6.2953,6.3002,6.2929,6.2855,6.278,6.278,6.278,6.3037]}]]